[[{"header":{"parameterUnit":"m.s-1","parameterCategory":1,"la1":31.0,"la2":29.5877,"lo1":-88.7671,"lo2":-86.6584,"dy":0.0162,"dx":0.0185,"nx":115,"ny":88,"refTime":"2024-07-29T06:00:00:Z","depth":0,"parameterNumber":2,"parameterNumberName":"U-component_of_WINDS"},"data":[0.0,0.0,0.0,0.0,0.0,0.0,0.0,0.0,0.0,0.0,0.0,0.0,0.0,0.0,0.0,0.0,0.0,0.0,0.0,0.0,0.0,0.0,0.0,0.0,0.0,0.0,0.0,0.0,0.0,0.0,0.0,0.0,0.0,0.0,0.0,0.0,0.0,0.0,0.0,0.0,0.0,0.0,0.0,0.0,0.0,0.0,0.0,0.0,0.0,0.0,0.0,0.0,0.0,0.0,0.0,0.0,0.0,0.0,0.0,0.0,0.0,0.0,0.0,0.0,0.0,0.0,0.0,0.0,0.0,0.0,0.0,0.0,0.0,0.0,0.0,0.0,0.0,0.0,0.0,0.0,0.0,0.0,0.0,0.0,0.0,0.0,0.0,0.0,0.0,0.0,0.0,0.0,0.0,0.0,0.0,0.0,0.0,0.0,0.0,0.0,0.0,0.0,0.0,0.0,0.0,0.0,0.0,0.0,0.0,0.0,0.0,0.0,0.0,0.0,0.0,0.0,0.0,0.0,0.0,0.0,0.0,0.0,0.0,0.0,0.0,0.0,0.0,0.0,0.0,0.0,0.0,0.0,0.0,0.0,0.0,0.0,0.0,0.0,0.0,0.0,0.0,0.0,0.0,0.0,0.0,0.0,0.0,0.0,0.0,0.0,0.0,0.0,0.0,0.0,0.0,0.0,0.0,0.0,0.0,0.0,0.0,0.0,0.0,0.0,0.0,0.0,0.0,0.0,0.0,0.0,0.0,0.0,0.0,0.0,0.0,0.0,0.0,0.0,0.0,0.0,0.0,0.0,0.0,0.0,0.0,0.0,0.0,0.0,0.0,0.0,0.0,0.0,0.0,0.0,0.0,0.0,0.0,0.0,0.0,0.0,0.0,0.0,0.0,0.0,0.0,0.0,0.0,0.0,0.0,0.0,0.0,0.0,0.0,0.0,0.0,0.0,0.0,0.0,0.0,0.0,0.0,0.0,0.0,0.0,0.0,0.0,0.0,0.0,0.0,0.0,0.0,0.0,0.0,0.0,0.0,0.0,0.0,0.0,0.0,0.0,0.0,0.0,0.0,0.0,0.0,0.0,0.0,0.0,0.0,0.0,0.0,0.0,0.0,0.0,0.0,0.0,0.0,0.0,0.0,0.0,0.0,0.0,0.0,0.0,0.0,0.0,0.0,0.0,0.0,0.0,0.0,0.0,0.0,0.0,0.0,0.0,0.0,0.0,0.0,0.0,0.0,0.0,0.0,0.0,0.0,0.0,0.0,0.0,0.0,0.0,0.0,0.0,0.0,0.0,0.0,0.0,0.0,0.0,0.0,0.0,0.0,0.0,0.0,0.0,0.0,0.0,0.0,0.0,0.0,0.0,0.0,0.0,0.0,0.0,0.0,0.0,0.0,0.0,0.0,0.0,0.0,0.0,0.0,0.0,0.0,0.0,0.0,0.0,0.0,0.0,0.0,0.0,0.0,0.0,0.0,0.0,0.0,0.0,0.0,0.0,0.0,0.0,0.0,0.0,0.0,0.0,0.0,0.0,0.0,0.0,0.0,0.0,0.0,0.0,0.0,0.0,0.0,0.0,0.0,0.0,0.0,0.0,0.0,0.0,0.0,0.0,0.0,0.0,0.0,0.0,0.0,0.0,0.0,0.0,0.0,0.0,0.0,0.0,0.0,0.0,0.0,0.0,0.0,0.0,0.0,0.0,0.0,0.0,0.0,0.0,0.0,0.0,0.0,0.0,0.0,0.0,0.0,0.0,0.0,0.0,0.0,0.0,0.0,0.0,0.0,0.0,0.0,0.0,0.0,0.0,0.0,0.0,0.0,0.0,0.0,0.0,0.0,0.0,0.0,0.0,0.0,0.0,0.0,0.0,0.0,0.0,0.0,0.0,0.0,0.0,0.0,0.0,0.0,0.0,0.0,0.0,0.0,0.0,0.0,0.0,0.0,0.0,0.0,0.0,0.0,0.0,0.0,0.0,0.0,0.0,0.0,0.0,0.0,0.0,0.0,0.0,0.0,0.0,0.0,0.0,0.0,0.0,0.0,0.0,0.0,0.0,0.0,0.0,0.0,0.0,0.0,0.0,0.0,0.0,0.0,0.0,0.0,0.0,0.0,0.0,0.0,0.0,0.0,0.0,0.0,0.0,0.0,0.0,0.0,0.0,0.0,0.0,0.0,0.0,0.0,0.0,0.0,0.0,0.0,0.0,0.0,0.0,0.0,0.0,0.0,0.0,0.0,0.0,0.0,0.0,0.0,0.0,0.0,0.0,0.0,0.0,0.0,0.0,0.0,0.0,0.0,0.0,0.0,0.0,0.0,0.0,0.0,0.0,0.0,0.0,0.0,0.0,0.0,0.0,0.0,0.0,0.0,0.0,0.0,0.0,0.0,0.0,0.0,0.0,0.0,0.0,0.0,0.0,0.0,0.0,0.0,0.0,0.0,0.0,0.0,0.0,0.0,0.0,0.0,0.0,0.0,0.0,0.0,0.0,0.0,0.0,0.0,0.0,0.0,0.0,0.0,0.0,0.0,0.0,0.0,0.0,0.0,0.0,0.0,0.0,0.0,0.0,0.0,0.0,0.0,0.0,0.0,0.0,0.0,0.0,0.0,0.0,0.0,0.0,0.0,0.0,0.0,0.0,0.0,0.0,0.0,0.0,0.0,0.0,0.0,0.0,0.0,0.0,0.0,0.0,0.0,0.0,0.0,0.0,0.0,0.0,0.0,0.0,0.0,0.0,0.0,0.0,0.0,0.0,0.0,0.0,0.0,0.0,0.0,0.0,0.0,0.0,0.0,0.0,0.0,0.0,0.0,0.0,0.0,0.0,0.0,0.0,0.0,0.0,0.0,0.0,0.0,0.0,0.0,0.0,0.0,0.0,0.0,0.0,0.0,0.0,0.0,0.0,0.0,0.0,0.0,0.0,0.0,0.0,0.0,0.0,0.0,0.0,0.0,0.0,0.0,0.0,0.0,0.0,0.0,0.0,0.0,0.0,0.0,0.0,0.0,0.0,0.0,0.0,0.0,0.0,0.0,0.0,0.0,0.0,0.0,0.0,0.0,0.0,0.0,0.0,0.0,0.0,0.0,0.0,0.0,0.0,0.0,0.0,0.0,0.0,0.0,0.0,0.0,0.0,0.0,0.0,0.0,0.0,0.0,0.0,0.0,0.0,0.0,0.0,0.0,0.0,0.0,0.0,0.0,0.0,0.0,0.0,0.0,0.0,0.0,0.0,0.0,0.0,0.0,0.0,0.0,0.0,0.0,0.0,0.0,0.0,0.0,0.0,0.0,0.0,0.0,0.0,0.0,0.0,0.0,0.0,0.0,0.0,0.0,0.0,0.0,0.0,0.0,0.0,0.0,0.0,0.0,0.0,0.0,0.0,0.0,0.0,0.0,0.0,0.0,0.0,0.0,0.0,0.0,0.0,0.0,0.0,0.0,0.0,0.0,0.0,0.0,0.0,0.0,0.0,0.0,0.0,0.0,0.0,0.0,0.0,0.0,0.0,0.0,0.0,0.0,0.0,0.0,0.0,0.0,0.0,0.0,0.0,0.0,0.0,0.0,0.0,0.0,0.0,0.0,0.0,0.0,0.0,0.0,0.0,0.0,0.0,0.0,0.0,0.0,0.0,0.0,0.0,0.0,0.0,0.0,0.0,0.0,0.0,0.0,0.0,0.0,0.0,0.0,0.0,0.0,0.0,0.0,0.0,0.0,0.0,0.0,0.0,0.0,0.0,0.0,0.0,0.0,0.0,0.0,0.0,0.0,0.0,0.0,0.0,0.0,0.0,0.0,0.0,0.0,0.0,0.0,0.0,0.0,0.0,0.0,0.0,0.0,0.0,0.0,0.0,0.0,0.0,0.0,0.0,0.0,0.0,0.0,0.0,0.0,0.0,0.0,0.0,0.0,0.0,0.0,0.0,0.0,0.0,0.0,0.0,0.0,0.0,0.0,0.0,0.0,0.0,0.0,0.0,0.0,0.0,0.0,0.0,0.0,0.0,0.0,0.0,0.0,0.0,0.0,0.0,0.0,0.0,0.0,0.0,0.0,0.0,0.0,0.0,0.0,0.0,0.0,0.0,0.0,0.0,0.0,0.0,0.0,0.0,0.0,0.0,0.0,0.0,0.0,0.0,0.0,0.0,0.0,0.0,0.0,0.0,0.0,0.0,0.0,0.0,0.0,0.0,0.0,0.0,0.0,0.0,0.0,0.0,0.0,0.0,0.0,0.0,0.0,0.0,0.0,0.0,0.0,0.0,0.0,0.0,-0.836,0.0,0.0,0.0,0.0,0.0,0.0,0.0,0.0,0.0,0.0,0.0,0.0,0.0,0.0,0.0,0.0,0.0,0.0,0.0,0.0,0.0,0.0,0.0,0.0,0.0,0.0,0.0,0.0,0.0,0.0,0.0,0.0,0.0,0.0,0.0,0.0,0.0,0.0,0.0,0.0,0.0,0.0,0.0,0.0,0.0,0.0,0.0,0.0,0.0,0.0,0.0,0.0,0.0,0.0,0.0,0.0,0.0,0.0,0.0,0.0,0.0,0.0,0.0,0.0,0.0,0.0,0.0,0.0,0.0,0.0,0.0,0.0,0.0,0.0,0.0,0.0,0.0,0.0,0.0,0.0,0.0,0.0,0.0,0.0,0.0,0.0,0.0,0.0,0.0,0.0,0.0,0.0,0.0,0.0,0.0,0.0,0.0,0.0,0.0,0.0,0.0,0.0,0.0,0.0,0.0,0.0,0.0,0.0,0.0,0.0,-0.993,-0.9831,-1.0003,-0.967,-0.8688,0.0,0.0,0.0,0.0,0.0,0.0,0.0,0.0,0.0,0.0,0.0,0.0,0.0,0.0,0.0,0.0,0.0,0.0,0.0,0.0,0.0,0.0,0.0,0.0,0.0,0.0,0.0,0.0,0.0,0.0,0.0,0.0,0.0,0.0,0.0,0.0,0.0,0.0,0.0,0.0,0.0,0.0,0.0,0.0,0.0,0.0,0.0,0.0,0.0,0.0,0.0,0.0,0.0,0.0,0.0,0.0,0.0,0.0,0.0,0.0,0.0,0.0,0.0,0.0,0.0,0.0,0.0,0.0,0.0,0.0,0.0,0.0,0.0,0.0,0.0,0.0,0.0,0.0,0.0,0.0,0.0,0.0,0.0,0.0,0.0,0.0,0.0,0.0,0.0,0.0,0.0,0.0,0.0,0.0,0.0,0.0,0.0,0.0,0.0,0.0,0.0,0.0,0.0,0.0,0.0,0.0,0.0,0.0,0.0,0.0,0.0,0.0,-1.0693,-1.0054,-0.8999,0.0,0.0,0.0,0.0,0.0,0.0,0.0,0.0,0.0,0.0,0.0,0.0,0.0,0.0,0.0,0.0,0.0,0.0,0.0,0.0,0.0,0.0,0.0,0.0,0.0,0.0,0.0,0.0,0.0,0.0,0.0,0.0,0.0,0.0,0.0,0.0,0.0,0.0,0.0,0.0,0.0,0.0,0.0,0.0,0.0,0.0,0.0,0.0,0.0,0.0,0.0,0.0,0.0,0.0,0.0,0.0,0.0,0.0,0.0,0.0,0.0,0.0,0.0,0.0,0.0,0.0,0.0,0.0,0.0,0.0,0.0,0.0,0.0,0.0,0.0,0.0,0.0,0.0,0.0,0.0,0.0,0.0,0.0,0.0,0.0,0.0,0.0,0.0,0.0,0.0,0.0,0.0,0.0,0.0,0.0,0.0,0.0,0.0,0.0,0.0,0.0,0.0,0.0,0.0,0.0,0.0,0.0,0.0,0.0,0.0,-1.1409,-1.1534,-1.1835,0.0,-0.931,0.0,0.0,0.0,0.0,0.0,0.0,0.0,0.0,0.0,0.0,0.0,0.0,0.0,0.0,0.0,0.0,0.0,0.0,0.0,0.0,0.0,0.0,0.0,0.0,0.0,0.0,0.0,0.0,0.0,0.0,0.0,0.0,0.0,0.0,0.0,0.0,0.0,0.0,0.0,0.0,0.0,0.0,0.0,0.0,0.0,0.0,0.0,0.0,0.0,0.0,0.0,0.0,0.0,0.0,0.0,0.0,0.0,0.0,0.0,0.0,0.0,0.0,0.0,0.0,0.0,0.0,0.0,0.0,0.0,0.0,0.0,0.0,0.0,0.0,0.0,0.0,0.0,0.0,0.0,0.0,0.0,0.0,0.0,0.0,0.0,0.0,0.0,0.0,0.0,0.0,0.0,0.0,0.0,0.0,0.0,0.0,0.0,0.0,0.0,0.0,0.0,0.0,0.0,0.0,0.0,0.0,0.0,0.0,0.0,0.0,-1.2195,-1.2718,-1.1907,-1.1018,0.0,0.0,0.0,0.0,0.0,0.0,0.0,0.0,0.0,0.0,0.0,0.0,0.0,0.0,0.0,0.0,0.0,0.0,0.0,0.0,0.0,0.0,0.0,0.0,0.0,0.0,0.0,0.0,0.0,0.0,0.0,0.0,0.0,0.0,0.0,0.0,0.0,0.0,0.0,0.0,0.0,0.0,0.0,0.0,0.0,0.0,0.0,0.0,0.0,0.0,0.0,0.0,0.0,0.0,0.0,0.0,0.0,0.0,0.0,0.0,0.0,0.0,0.0,0.0,0.0,0.0,0.0,0.0,0.0,0.0,0.0,0.0,0.0,0.0,0.0,0.0,0.0,0.0,0.0,0.0,0.0,0.0,0.0,0.0,0.0,0.0,0.0,0.0,0.0,0.0,0.0,0.0,0.0,0.0,0.0,0.0,0.0,0.0,0.0,0.0,0.0,0.0,0.0,0.0,0.0,0.0,0.0,0.0,0.0,0.0,-1.2741,-1.3035,-1.3554,-1.2443,-1.133,-1.0351,0.0,0.0,0.0,0.0,0.0,0.0,0.0,0.0,0.0,0.0,0.0,0.0,0.0,0.0,0.0,0.0,0.0,0.0,0.0,0.0,0.0,0.0,0.0,0.0,0.0,0.0,0.0,0.0,0.0,0.0,0.0,0.0,0.0,0.0,0.0,0.0,0.0,0.0,0.0,0.0,0.0,0.0,0.0,0.0,0.0,0.0,0.0,0.0,0.0,0.0,0.0,0.0,0.0,0.0,0.0,0.0,0.0,0.0,0.0,0.0,0.0,0.0,0.0,0.0,0.0,0.0,0.0,0.0,0.0,0.0,0.0,0.0,0.0,0.0,0.0,0.0,0.0,0.0,0.0,0.0,0.0,0.0,0.0,0.0,0.0,0.0,0.0,0.0,0.0,0.0,0.0,0.0,0.0,0.0,0.0,0.0,0.0,0.0,0.0,0.0,0.0,0.0,0.0,0.0,0.0,0.0,0.0,0.0,-1.4011,-1.3944,-1.395,-1.4016,-1.3851,-1.254,0.0,0.0,0.0,0.0,0.0,0.0,0.0,0.0,0.0,0.0,0.0,0.0,0.0,0.0,0.0,0.0,0.0,0.0,0.0,0.0,0.0,0.0,0.0,0.0,0.0,0.0,0.0,0.0,0.0,0.0,0.0,0.0,0.0,0.0,0.0,0.0,0.0,0.0,0.0,0.0,0.0,0.0,0.0,0.0,0.0,0.0,0.0,0.0,0.0,0.0,0.0,0.0,0.0,0.0,0.0,0.0,0.0,0.0,0.0,0.0,0.0,0.0,0.0,0.0,0.0,0.0,0.0,0.0,0.0,0.0,0.0,0.0,0.0,0.0,0.0,0.0,0.0,0.0,0.0,0.0,0.0,0.0,0.0,0.0,0.0,0.0,0.0,0.0,0.0,0.0,0.0,0.0,0.0,0.0,0.0,0.0,0.0,0.0,0.0,0.0,0.0,0.0,0.0,0.0,0.0,0.0,0.0,0.0,0.0,-1.3472,-1.3961,-1.455,-1.5178,-1.3526,-1.2289,0.0,0.0,0.0,0.0,0.0,0.0,0.0,0.0,0.0,0.0,0.0,0.0,0.0,0.0,0.0,0.0,0.0,0.0,0.0,0.0,0.0,0.0,0.0,0.0,0.0,0.0,0.0,0.0,0.0,0.0,0.0,0.0,0.0,0.0,0.0,0.0,0.0,0.0,0.0,0.0,0.0,0.0,0.0,0.0,0.0,0.0,0.0,0.0,0.0,0.0,0.0,0.0,0.0,0.0,0.0,0.0,0.0,0.0,0.0,0.0,0.0,0.0,0.0,0.0,0.0,0.0,0.0,0.0,0.0,0.0,0.0,0.0,0.0,0.0,0.0,0.0,0.0,0.0,0.0,0.0,0.0,0.0,0.0,0.0,0.0,0.0,0.0,0.0,0.0,0.0,0.0,0.0,0.0,0.0,0.0,0.0,0.0,0.0,0.0,0.0,0.0,0.0,0.0,0.0,0.0,0.0,0.0,0.0,0.0,-1.3909,0.0,-1.5443,-1.5795,-1.3973,-1.2665,0.0,0.0,0.0,0.0,0.0,0.0,0.0,0.0,0.0,0.0,0.0,0.0,0.0,0.0,0.0,0.0,0.0,0.0,0.0,0.0,0.0,0.0,0.0,0.0,0.0,0.0,0.0,0.0,0.0,0.0,0.0,0.0,0.0,0.0,0.0,0.0,0.0,0.0,0.0,0.0,0.0,0.0,0.0,0.0,0.0,0.0,0.0,0.0,0.0,0.0,0.0,0.0,0.0,0.0,0.0,0.0,0.0,0.0,0.0,0.0,0.0,0.0,0.0,0.0,0.0,0.0,0.0,0.0,0.0,0.0,0.0,0.0,0.0,0.0,0.0,0.0,0.0,0.0,0.0,0.0,0.0,0.0,0.0,0.0,0.0,0.0,0.0,0.0,0.0,0.0,0.0,0.0,0.0,0.0,0.0,0.0,0.0,0.0,0.0,0.0,0.0,0.0,0.0,0.0,0.0,0.0,0.0,0.0,-1.3944,-1.5594,-1.6463,-1.6483,-1.5744,-1.5257,-1.3818,0.0,0.0,0.0,0.0,0.0,0.0,0.0,0.0,0.0,0.0,0.0,0.0,0.0,0.0,0.0,0.0,0.0,0.0,0.0,0.0,0.0,0.0,0.0,0.0,0.0,0.0,0.0,0.0,0.0,0.0,0.0,0.0,0.0,0.0,0.0,0.0,0.0,0.0,0.0,0.0,0.0,0.0,0.0,0.0,0.0,0.0,0.0,0.0,0.0,0.0,0.0,0.0,0.0,0.0,0.0,0.0,0.0,0.0,0.0,0.0,0.0,0.0,0.0,0.0,0.0,0.0,0.0,0.0,0.0,0.0,0.0,0.0,0.0,0.0,0.0,0.0,0.0,0.0,0.0,0.0,0.0,0.0,0.0,0.0,0.0,0.0,0.0,0.0,0.0,0.0,0.0,0.0,0.0,0.0,0.0,0.0,0.0,0.0,0.0,0.0,0.0,0.0,0.0,0.0,0.0,0.0,0.0,0.0,0.0,-1.5085,-1.5925,-1.6265,-1.5938,-1.4942,-1.389,0.0,0.0,0.0,0.0,0.0,0.0,0.0,0.0,0.0,0.0,0.0,0.0,0.0,0.0,0.0,0.0,0.0,0.0,0.0,0.0,0.0,0.0,0.0,0.0,0.0,0.0,0.0,0.0,0.0,0.0,0.0,0.0,0.0,0.0,0.0,0.0,0.0,0.0,0.0,0.0,0.0,0.0,0.0,0.0,0.0,0.0,0.0,0.0,0.0,0.0,0.0,0.0,0.0,0.0,0.0,0.0,0.0,0.0,0.0,0.0,0.0,0.0,0.0,0.0,0.0,0.0,0.0,0.0,0.0,0.0,0.0,0.0,0.0,0.0,0.0,0.0,0.0,0.0,0.0,0.0,0.0,0.0,0.0,0.0,0.0,0.0,0.0,0.0,0.0,0.0,0.0,0.0,0.0,0.0,0.0,0.0,0.0,0.0,0.0,0.0,0.0,0.0,0.0,0.0,0.0,0.0,0.0,0.0,0.0,-1.5436,-1.6082,-1.6335,-1.6118,-1.4913,-1.4092,-1.3568,0.0,0.0,0.0,0.0,0.0,0.0,0.0,0.0,0.0,0.0,0.0,0.0,0.0,0.0,0.0,0.0,0.0,0.0,0.0,0.0,0.0,0.0,0.0,0.0,0.0,0.0,0.0,0.0,0.0,0.0,0.0,0.0,0.0,0.0,0.0,0.0,0.0,0.0,0.0,0.0,0.0,0.0,0.0,0.0,0.0,0.0,0.0,0.0,0.0,0.0,0.0,0.0,0.0,0.0,0.0,0.0,0.0,0.0,0.0,0.0,0.0,0.0,0.0,0.0,0.0,0.0,0.0,0.0,0.0,0.0,0.0,0.0,0.0,0.0,0.0,0.0,0.0,0.0,0.0,0.0,0.0,0.0,0.0,0.0,0.0,0.0,0.0,0.0,0.0,0.0,0.0,0.0,0.0,0.0,0.0,0.0,0.0,0.0,0.0,0.0,0.0,0.0,0.0,0.0,0.0,0.0,0.0,0.0,-1.6361,-1.6742,-1.6682,-1.6057,-1.531,-1.4458,0.0,0.0,0.0,0.0,0.0,0.0,0.0,0.0,0.0,0.0,0.0,0.0,0.0,0.0,0.0,0.0,0.0,0.0,0.0,0.0,0.0,0.0,0.0,0.0,0.0,0.0,0.0,0.0,0.0,0.0,0.0,0.0,0.0,0.0,0.0,0.0,0.0,0.0,0.0,0.0,0.0,0.0,0.0,0.0,0.0,0.0,0.0,0.0,0.0,0.0,0.0,0.0,0.0,0.0,0.0,0.0,0.0,0.0,0.0,0.0,0.0,0.0,0.0,0.0,0.0,0.0,0.0,0.0,0.0,0.0,0.0,0.0,0.0,0.0,0.0,0.0,0.0,0.0,0.0,0.0,0.0,0.0,0.0,0.0,0.0,0.0,0.0,0.0,0.0,0.0,0.0,0.0,0.0,0.0,0.0,0.0,0.0,0.0,0.0,0.0,0.0,0.0,0.0,0.0,0.0,0.0,0.0,0.0,0.0,-1.5777,-1.6121,-1.619,-1.5812,-1.5782,-1.5056,0.0,0.0,0.0,0.0,0.0,0.0,0.0,0.0,0.0,0.0,0.0,0.0,0.0,0.0,0.0,0.0,0.0,0.0,0.0,0.0,0.0,0.0,0.0,0.0,0.0,0.0,0.0,0.0,0.0,0.0,0.0,0.0,0.0,0.0,0.0,0.0,0.0,0.0,0.0,0.0,0.0,0.0,0.0,0.0,0.0,0.0,0.0,0.0,0.0,0.0,0.0,0.0,0.0,0.0,0.0,0.0,0.0,0.0,0.0,0.0,0.0,0.0,0.0,0.0,0.0,0.0,0.0,0.0,0.0,0.0,0.0,0.0,0.0,0.0,0.0,0.0,0.0,0.0,0.0,0.0,0.0,0.0,0.0,0.0,0.0,0.0,0.0,0.0,0.0,0.0,0.0,0.0,0.0,0.0,0.0,0.0,0.0,0.0,0.0,0.0,0.0,0.0,0.0,0.0,0.0,0.0,0.0,0.0,-1.6481,-1.5876,-1.5741,-1.5626,-1.5538,-1.5554,-1.5094,0.0,0.0,0.0,0.0,0.0,0.0,0.0,0.0,0.0,0.0,0.0,0.0,0.0,0.0,0.0,0.0,0.0,0.0,0.0,0.0,0.0,0.0,0.0,0.0,0.0,0.0,0.0,0.0,0.0,0.0,0.0,0.0,0.0,0.0,0.0,0.0,0.0,0.0,0.0,0.0,0.0,0.0,0.0,0.0,0.0,0.0,0.0,0.0,0.0,0.0,0.0,0.0,0.0,0.0,0.0,0.0,0.0,0.0,0.0,0.0,0.0,0.0,0.0,0.0,0.0,0.0,0.0,0.0,0.0,0.0,0.0,0.0,0.0,0.0,0.0,0.0,0.0,0.0,0.0,0.0,0.0,0.0,0.0,0.0,0.0,0.0,0.0,0.0,0.0,0.0,0.0,0.0,0.0,0.0,0.0,0.0,0.0,0.0,0.0,0.0,0.0,0.0,0.0,0.0,0.0,0.0,0.0,0.0,-1.641,-1.6371,-1.5612,-1.5225,-1.5269,-1.503,-1.483,0.0,0.0,0.0,0.0,0.0,0.0,0.0,0.0,0.0,0.0,0.0,0.0,0.0,0.0,0.0,0.0,0.0,0.0,0.0,0.0,0.0,0.0,0.0,0.0,0.0,0.0,0.0,0.0,0.0,0.0,0.0,0.0,0.0,0.0,0.0,0.0,0.0,0.0,0.0,0.0,0.0,0.0,0.0,0.0,0.0,0.0,0.0,0.0,0.0,0.0,0.0,0.0,0.0,0.0,0.0,0.0,0.0,0.0,0.0,0.0,0.0,0.0,0.0,0.0,0.0,0.0,0.0,0.0,0.0,0.0,0.0,0.0,0.0,0.0,0.0,0.0,0.0,0.0,0.0,0.0,0.0,0.0,0.0,0.0,0.0,0.0,0.0,0.0,0.0,0.0,0.0,0.0,0.0,0.0,0.0,0.0,0.0,0.0,0.0,0.0,0.0,0.0,0.0,0.0,0.0,0.0,0.0,0.0,-1.729,-1.641,-1.6076,-1.5646,-1.5157,-1.5269,-1.504,0.0,0.0,0.0,0.0,0.0,0.0,0.0,0.0,0.0,0.0,0.0,0.0,0.0,0.0,0.0,0.0,0.0,0.0,0.0,0.0,0.0,0.0,0.0,0.0,0.0,0.0,0.0,0.0,0.0,0.0,0.0,0.0,0.0,0.0,0.0,0.0,0.0,0.0,0.0,0.0,0.0,0.0,0.0,0.0,0.0,0.0,0.0,0.0,-1.6464,0.0,0.0,0.0,0.0,0.0,0.0,0.0,0.0,0.0,0.0,0.0,0.0,0.0,0.0,0.0,0.0,0.0,0.0,0.0,0.0,0.0,0.0,0.0,0.0,0.0,0.0,0.0,0.0,0.0,0.0,0.0,0.0,0.0,0.0,0.0,0.0,0.0,0.0,0.0,0.0,0.0,0.0,0.0,0.0,0.0,0.0,0.0,0.0,0.0,0.0,0.0,0.0,0.0,0.0,0.0,0.0,0.0,0.0,0.0,-1.7446,-1.6256,-1.5956,-1.5566,-1.5081,-1.5005,-1.4694,0.0,0.0,0.0,0.0,0.0,0.0,0.0,0.0,0.0,0.0,0.0,0.0,0.0,0.0,0.0,0.0,0.0,0.0,0.0,0.0,0.0,0.0,0.0,0.0,0.0,0.0,0.0,0.0,0.0,0.0,0.0,0.0,0.0,0.0,0.0,0.0,0.0,0.0,0.0,0.0,0.0,0.0,0.0,0.0,0.0,0.0,0.0,0.0,0.0,0.0,0.0,0.0,0.0,0.0,0.0,0.0,0.0,0.0,0.0,0.0,0.0,0.0,0.0,0.0,0.0,0.0,0.0,0.0,0.0,0.0,0.0,0.0,0.0,0.0,0.0,0.0,0.0,0.0,0.0,0.0,0.0,0.0,0.0,0.0,0.0,0.0,0.0,0.0,0.0,0.0,0.0,0.0,0.0,0.0,0.0,0.0,0.0,0.0,0.0,0.0,0.0,0.0,0.0,0.0,0.0,0.0,0.0,-1.7258,-1.725,-1.6036,-1.5653,-1.5373,-1.5118,-1.4735,-1.4297,-1.3878,0.0,0.0,0.0,0.0,0.0,0.0,0.0,0.0,0.0,0.0,0.0,0.0,0.0,0.0,0.0,0.0,0.0,0.0,0.0,0.0,0.0,0.0,0.0,0.0,0.0,0.0,0.0,0.0,0.0,0.0,0.0,0.0,0.0,0.0,0.0,0.0,0.0,0.0,-1.5985,-1.6643,0.0,0.0,0.0,0.0,0.0,0.0,0.0,0.0,-1.9036,0.0,0.0,0.0,0.0,0.0,0.0,0.0,0.0,0.0,0.0,0.0,0.0,0.0,0.0,0.0,0.0,0.0,0.0,0.0,0.0,0.0,0.0,0.0,0.0,0.0,0.0,0.0,0.0,0.0,0.0,0.0,0.0,0.0,0.0,0.0,0.0,0.0,0.0,0.0,0.0,0.0,0.0,0.0,0.0,0.0,0.0,0.0,0.0,0.0,0.0,0.0,0.0,0.0,0.0,0.0,0.0,-1.5936,-1.6743,-1.6773,-1.5943,-1.5602,-1.5478,-1.5562,-1.5187,-1.4684,-1.4071,0.0,0.0,0.0,0.0,0.0,0.0,0.0,0.0,0.0,0.0,0.0,0.0,0.0,0.0,0.0,0.0,0.0,0.0,0.0,0.0,0.0,0.0,0.0,0.0,0.0,0.0,0.0,0.0,0.0,0.0,0.0,0.0,0.0,0.0,0.0,0.0,0.0,0.0,0.0,-1.7241,-1.8339,0.0,0.0,0.0,0.0,0.0,0.0,0.0,0.0,-1.9428,0.0,0.0,0.0,0.0,0.0,0.0,0.0,0.0,0.0,0.0,0.0,0.0,0.0,0.0,0.0,0.0,0.0,0.0,0.0,0.0,0.0,0.0,0.0,0.0,0.0,0.0,0.0,0.0,0.0,0.0,0.0,0.0,0.0,0.0,0.0,0.0,0.0,0.0,0.0,0.0,0.0,0.0,0.0,0.0,0.0,0.0,0.0,0.0,0.0,0.0,0.0,0.0,0.0,0.0,0.0,-1.659,-1.7106,-1.7242,-1.6879,-1.5921,-1.5657,-1.6128,-1.5208,-1.4497,0.0,0.0,0.0,0.0,0.0,0.0,0.0,0.0,0.0,0.0,0.0,0.0,0.0,0.0,0.0,0.0,0.0,0.0,0.0,0.0,0.0,0.0,0.0,0.0,0.0,0.0,0.0,0.0,0.0,0.0,0.0,0.0,0.0,0.0,0.0,0.0,0.0,0.0,0.0,0.0,-1.7929,-1.8773,-1.9377,0.0,0.0,0.0,0.0,0.0,0.0,-1.9424,-1.9589,0.0,0.0,0.0,0.0,0.0,0.0,0.0,0.0,0.0,0.0,0.0,0.0,0.0,0.0,0.0,0.0,0.0,0.0,0.0,0.0,0.0,0.0,0.0,0.0,0.0,0.0,0.0,0.0,0.0,0.0,0.0,0.0,0.0,0.0,0.0,0.0,0.0,0.0,0.0,0.0,0.0,0.0,0.0,0.0,0.0,0.0,0.0,0.0,0.0,0.0,0.0,0.0,0.0,0.0,0.0,-1.7142,-1.7584,-1.7814,-1.768,-1.639,-1.5999,-1.6677,-1.5297,-1.447,0.0,0.0,0.0,0.0,0.0,0.0,0.0,0.0,0.0,0.0,0.0,0.0,0.0,0.0,0.0,0.0,0.0,0.0,0.0,0.0,0.0,0.0,0.0,0.0,0.0,0.0,0.0,0.0,0.0,0.0,0.0,0.0,0.0,0.0,0.0,0.0,0.0,0.0,0.0,0.0,0.0,-1.9429,-2.02,-1.9791,0.0,0.0,0.0,0.0,-1.9991,-1.9888,0.0,0.0,0.0,0.0,0.0,0.0,0.0,0.0,0.0,0.0,0.0,0.0,0.0,0.0,0.0,0.0,0.0,0.0,0.0,0.0,0.0,0.0,0.0,0.0,0.0,0.0,0.0,0.0,0.0,0.0,0.0,0.0,0.0,0.0,0.0,0.0,0.0,0.0,0.0,0.0,0.0,0.0,0.0,0.0,0.0,0.0,0.0,0.0,0.0,0.0,0.0,0.0,0.0,0.0,0.0,0.0,-1.7135,-1.7715,-1.7868,-1.7456,-1.6932,-1.6775,-1.7125,-1.6023,-1.529,0.0,0.0,0.0,0.0,0.0,0.0,0.0,0.0,0.0,0.0,0.0,0.0,0.0,0.0,0.0,0.0,0.0,0.0,0.0,0.0,0.0,0.0,0.0,0.0,0.0,0.0,0.0,0.0,0.0,0.0,0.0,0.0,0.0,0.0,0.0,0.0,0.0,0.0,0.0,0.0,0.0,-2.059,-2.0719,-2.0155,-2.0249,0.0,0.0,-2.0038,-2.1187,-2.0631,0.0,0.0,0.0,0.0,0.0,0.0,0.0,0.0,0.0,0.0,0.0,0.0,0.0,0.0,0.0,0.0,0.0,0.0,0.0,0.0,0.0,0.0,0.0,0.0,0.0,0.0,0.0,0.0,0.0,0.0,0.0,0.0,0.0,0.0,0.0,0.0,0.0,0.0,0.0,0.0,0.0,0.0,0.0,0.0,0.0,0.0,0.0,0.0,0.0,0.0,0.0,0.0,0.0,0.0,0.0,-1.7508,-1.709,-1.7851,-1.8236,-1.8173,-1.7277,-1.6972,-1.7229,-1.5608,-1.4668,0.0,0.0,0.0,0.0,0.0,0.0,0.0,0.0,0.0,0.0,0.0,0.0,0.0,0.0,0.0,0.0,0.0,0.0,0.0,0.0,0.0,0.0,0.0,0.0,0.0,0.0,0.0,0.0,0.0,0.0,0.0,0.0,0.0,0.0,0.0,0.0,0.0,0.0,0.0,0.0,0.0,0.0,-2.1347,-2.056,0.0,0.0,0.0,-1.9437,-2.0141,0.0,0.0,0.0,0.0,0.0,0.0,0.0,0.0,0.0,0.0,0.0,0.0,0.0,0.0,0.0,0.0,0.0,0.0,0.0,0.0,0.0,0.0,0.0,0.0,0.0,0.0,0.0,0.0,0.0,0.0,0.0,0.0,0.0,0.0,0.0,0.0,0.0,0.0,0.0,0.0,0.0,0.0,0.0,0.0,0.0,0.0,0.0,0.0,0.0,0.0,0.0,0.0,0.0,0.0,0.0,0.0,0.0,-1.7069,-1.806,-1.8637,-1.8688,-1.7568,-1.6976,-1.7006,-1.5052,0.0,0.0,0.0,0.0,0.0,0.0,0.0,0.0,0.0,0.0,0.0,0.0,0.0,0.0,0.0,0.0,0.0,0.0,0.0,0.0,0.0,0.0,0.0,0.0,0.0,0.0,0.0,-1.0523,0.0,0.0,0.0,0.0,0.0,0.0,0.0,0.0,0.0,0.0,0.0,0.0,0.0,0.0,-2.1316,-2.2035,-2.1043,-2.056,0.0,0.0,-1.9316,-1.9824,-1.9343,-1.886,0.0,0.0,0.0,0.0,0.0,0.0,0.0,0.0,0.0,0.0,0.0,0.0,0.0,0.0,0.0,0.0,0.0,0.0,0.0,0.0,0.0,0.0,0.0,0.0,0.0,0.0,0.0,0.0,0.0,0.0,0.0,0.0,0.0,0.0,0.0,0.0,0.0,0.0,0.0,0.0,0.0,0.0,0.0,0.0,0.0,0.0,0.0,0.0,0.0,0.0,0.0,0.0,0.0,0.0,-1.7241,-1.7243,-1.8412,-1.8893,-1.8532,-1.774,-1.7037,-1.6356,-1.4708,-1.3791,0.0,0.0,0.0,0.0,0.0,0.0,0.0,0.0,0.0,0.0,0.0,0.0,0.0,0.0,0.0,0.0,0.0,0.0,0.0,0.0,0.0,0.0,0.0,0.0,0.0,0.0,0.0,0.0,0.0,0.0,0.0,0.0,0.0,0.0,0.0,0.0,0.0,0.0,0.0,0.0,0.0,-2.2019,-2.273,-2.165,-2.1587,0.0,-2.1687,-2.0218,-2.1601,-1.9867,-1.8428,-1.868,0.0,0.0,0.0,0.0,0.0,0.0,0.0,0.0,0.0,0.0,0.0,0.0,0.0,0.0,0.0,0.0,0.0,0.0,0.0,0.0,0.0,0.0,0.0,0.0,0.0,0.0,0.0,0.0,0.0,0.0,0.0,0.0,0.0,0.0,0.0,0.0,0.0,0.0,0.0,0.0,0.0,0.0,0.0,0.0,0.0,0.0,0.0,0.0,0.0,0.0,0.0,0.0,0.0,-1.687,-1.6178,-1.7862,-1.8553,-1.8121,-1.7472,-1.6752,-1.5959,-1.439,-1.3329,0.0,0.0,0.0,0.0,0.0,0.0,0.0,0.0,0.0,0.0,0.0,0.0,0.0,0.0,0.0,0.0,0.0,0.0,0.0,0.0,0.0,0.0,0.0,0.0,0.0,0.0,0.0,0.0,-1.3078,-1.3635,-1.4546,0.0,0.0,0.0,0.0,0.0,0.0,0.0,0.0,0.0,0.0,-2.2251,-2.2829,-2.1782,0.0,0.0,-2.1656,-2.0544,-2.0679,-1.9974,-1.9112,-1.8219,-1.9086,0.0,0.0,0.0,0.0,0.0,0.0,0.0,0.0,0.0,0.0,0.0,0.0,0.0,0.0,0.0,0.0,0.0,0.0,0.0,0.0,0.0,0.0,0.0,0.0,0.0,0.0,0.0,0.0,0.0,0.0,0.0,0.0,0.0,0.0,0.0,0.0,0.0,0.0,0.0,0.0,0.0,0.0,0.0,0.0,0.0,0.0,0.0,0.0,0.0,0.0,0.0,0.0,-1.6578,-1.5959,-1.7511,-1.8175,-1.7922,-1.7038,-1.6242,-1.5498,-1.3916,-1.2774,0.0,0.0,0.0,0.0,0.0,0.0,0.0,0.0,0.0,0.0,0.0,0.0,0.0,0.0,0.0,0.0,0.0,0.0,0.0,0.0,0.0,0.0,0.0,0.0,0.0,0.0,0.0,0.0,-1.3704,-1.4237,-1.5251,0.0,0.0,0.0,0.0,0.0,0.0,0.0,0.0,0.0,0.0,-2.2447,-2.3098,-2.2317,-2.2009,-2.2886,-2.2236,-2.1479,-2.1079,-2.0524,-1.984,-1.8914,0.0,0.0,0.0,0.0,0.0,0.0,0.0,0.0,0.0,0.0,0.0,0.0,0.0,0.0,0.0,0.0,0.0,0.0,0.0,0.0,0.0,0.0,0.0,0.0,0.0,0.0,0.0,-1.2167,0.0,0.0,-1.1571,0.0,0.0,0.0,0.0,0.0,0.0,0.0,0.0,0.0,0.0,0.0,0.0,0.0,0.0,0.0,0.0,0.0,0.0,0.0,0.0,0.0,0.0,-1.6427,-1.6959,-1.7563,-1.7929,-1.7848,-1.6494,-1.5506,-1.5019,-1.3257,-1.2099,-1.1617,0.0,0.0,0.0,0.0,0.0,0.0,0.0,0.0,0.0,0.0,0.0,0.0,0.0,0.0,0.0,0.0,0.0,0.0,0.0,0.0,0.0,0.0,0.0,0.0,0.0,0.0,-1.4268,-1.4856,-1.5491,0.0,0.0,0.0,0.0,0.0,0.0,0.0,0.0,0.0,-2.3765,-2.2908,-2.2603,-2.3707,-2.3466,-2.3414,-2.4312,-2.3756,-2.332,-2.3385,-2.169,-2.0516,0.0,0.0,0.0,0.0,0.0,0.0,0.0,0.0,0.0,0.0,0.0,0.0,0.0,0.0,0.0,0.0,0.0,0.0,0.0,0.0,0.0,0.0,0.0,0.0,0.0,0.0,0.0,-1.3193,-1.3155,0.0,0.0,0.0,0.0,0.0,0.0,0.0,0.0,0.0,0.0,0.0,-1.5122,-1.6144,0.0,0.0,0.0,0.0,0.0,0.0,0.0,0.0,0.0,0.0,0.0,0.0,-1.6339,-1.6783,-1.729,-1.7509,-1.7402,-1.6081,-1.5209,-1.4858,-1.3551,-1.2234,-1.0967,0.0,0.0,0.0,0.0,0.0,0.0,0.0,0.0,0.0,0.0,0.0,0.0,0.0,0.0,0.0,0.0,0.0,0.0,0.0,0.0,0.0,0.0,0.0,0.0,0.0,-1.4767,0.0,0.0,0.0,0.0,0.0,0.0,0.0,0.0,0.0,0.0,-2.2346,-2.2979,-2.3796,-2.3999,-2.4019,-2.3905,-2.365,-2.3729,0.0,0.0,0.0,0.0,0.0,0.0,0.0,0.0,0.0,0.0,0.0,0.0,0.0,0.0,-2.2682,-2.2052,-2.194,-2.1941,-2.1933,0.0,0.0,0.0,0.0,0.0,0.0,0.0,0.0,0.0,0.0,0.0,0.0,0.0,0.0,-1.4187,-1.4138,-1.3652,0.0,0.0,0.0,0.0,0.0,0.0,0.0,0.0,-1.4909,-1.5161,-1.5277,-1.6392,-1.6845,0.0,-1.7365,-1.727,0.0,0.0,0.0,0.0,0.0,0.0,0.0,0.0,-1.6478,-1.6923,-1.714,-1.7173,-1.7059,-1.5775,-1.498,-1.4775,-1.3288,-1.1969,-1.0923,-1.0225,-0.9818,0.0,0.0,0.0,0.0,0.0,0.0,0.0,0.0,0.0,0.0,0.0,0.0,0.0,0.0,0.0,0.0,0.0,0.0,0.0,0.0,0.0,0.0,0.0,-1.5581,0.0,0.0,0.0,0.0,0.0,0.0,0.0,0.0,0.0,-2.2607,-2.276,-2.3248,-2.4168,-2.4556,-2.4534,-2.3893,0.0,0.0,0.0,0.0,0.0,0.0,0.0,-2.3026,-2.1493,-2.2268,-2.3013,-2.2757,-2.3011,-2.3213,-2.2989,0.0,0.0,-2.2738,-2.2614,-2.2614,-2.2853,-2.3157,-2.3406,-2.3503,-2.3901,-2.431,0.0,0.0,0.0,0.0,0.0,0.0,0.0,0.0,-1.5356,-1.5148,0.0,-1.4635,0.0,0.0,0.0,0.0,-1.4076,-1.4251,0.0,0.0,-1.5142,-1.5457,-1.5543,-1.6704,-1.7055,-1.6623,-1.8488,-1.8778,-1.7523,-1.6468,0.0,0.0,0.0,0.0,0.0,0.0,-1.6784,-1.7312,-1.7031,-1.6882,-1.6844,-1.5507,-1.4773,-1.4647,-1.2526,-1.1392,-1.1408,-1.0922,-1.0577,-1.0317,-1.0303,0.0,0.0,0.0,0.0,0.0,0.0,0.0,0.0,0.0,0.0,0.0,0.0,0.0,0.0,0.0,0.0,0.0,0.0,0.0,0.0,-1.53,0.0,0.0,0.0,0.0,0.0,0.0,0.0,0.0,0.0,-2.3065,-2.3683,-2.3326,-2.3444,-2.4768,0.0,0.0,0.0,0.0,-2.3866,-2.3223,-2.4188,-2.4633,-2.3604,-2.3083,-2.2687,-2.2308,0.0,0.0,-2.2686,-2.2686,-2.2499,-2.1822,-2.1762,-2.2099,-2.3243,-2.3421,-2.3415,-2.3423,-2.3435,-2.3676,-2.4112,-2.4326,-2.4759,-1.5114,0.0,0.0,0.0,0.0,-1.5959,-1.6147,-1.655,-1.6227,-1.612,-1.6082,-1.5624,0.0,0.0,0.0,0.0,0.0,0.0,-1.514,-1.5152,-1.5009,-1.4932,-1.4949,-1.5852,-1.6162,-1.605,-1.6966,-1.764,-1.8074,-1.703,-1.674,-1.7202,0.0,0.0,0.0,0.0,-1.6441,-1.6964,-1.6674,-1.6454,-1.6447,-1.5487,-1.4442,-1.3492,-1.2156,-1.1167,-1.0577,-1.0742,-1.0671,-1.0342,-1.0905,0.0,0.0,0.0,0.0,0.0,0.0,0.0,0.0,0.0,0.0,0.0,0.0,0.0,0.0,0.0,0.0,0.0,0.0,0.0,-1.564,-1.6664,-1.7632,0.0,0.0,0.0,0.0,0.0,0.0,0.0,0.0,0.0,-2.2746,-2.3725,-2.4255,0.0,0.0,-2.2944,-2.3069,-2.2822,-2.2759,-2.3127,-2.3131,0.0,-2.3,-2.2917,-2.2663,-2.1979,-2.1964,-2.1971,-2.1979,-2.1986,-2.1926,-2.1732,-2.1687,-2.1822,-2.2136,-2.2233,-2.2248,-2.2233,-2.2233,-2.2388,-2.2801,-2.2987,-2.3319,-1.5197,-1.5359,-1.5785,-1.6025,-1.6221,-1.628,-1.6594,-1.7047,-1.6885,-1.6819,-1.6803,-1.653,-1.6131,-1.5656,-1.5571,0.0,0.0,0.0,-1.5428,-1.5315,-1.489,-1.4754,-1.4908,-1.5424,-1.5707,-1.5829,-1.6444,-1.7093,-1.7654,-1.7379,-1.7194,-1.7213,0.0,0.0,-1.6649,-1.6316,-1.6315,-1.6631,-1.63,-1.6107,-1.6064,-1.5222,-1.421,-1.3145,-1.2267,-1.1517,-1.1023,-1.1273,-1.1313,-1.1074,-1.1543,-1.1699,0.0,0.0,0.0,0.0,0.0,0.0,0.0,0.0,0.0,0.0,0.0,-1.2538,-1.2669,0.0,0.0,0.0,-1.4582,-1.5456,-1.6374,-1.7468,0.0,0.0,0.0,0.0,0.0,0.0,0.0,-2.1719,-2.1922,-2.2103,-2.2301,-2.3111,-2.353,-2.3008,-2.2236,-2.1911,-2.2451,0.0,-2.217,-2.2385,-2.2258,-2.2033,-2.178,-2.1804,-2.1735,-2.1362,-2.1545,-2.1687,-2.1695,-2.1897,-2.1986,-2.1769,-2.1687,-2.1687,-2.1687,-2.1687,-2.1792,-2.2031,-2.2076,-2.2222,-2.2617,-2.2894,-2.3204,-1.5045,-1.4996,-1.5034,-1.5339,-1.5761,-1.6184,-1.6618,-1.7102,-1.7102,-1.7108,-1.7108,-1.7108,-1.6847,-1.6325,-1.6172,0.0,-1.6098,-1.5712,-1.5391,-1.5132,-1.4884,-1.488,-1.5159,-1.5424,-1.5608,-1.5798,-1.6679,-1.6892,-1.666,-1.7429,-1.7563,-1.7086,-1.6879,-1.6833,-1.6833,-1.6454,-1.6275,-1.6275,-1.5957,-1.5798,-1.5742,-1.4789,-1.403,-1.3463,-1.2626,-1.2186,-1.2153,-1.2163,-1.219,-1.219,-1.2261,-1.2219,-1.2151,0.0,0.0,0.0,0.0,0.0,0.0,0.0,0.0,0.0,0.0,0.0,0.0,0.0,0.0,0.0,-1.5938,0.0,-1.6584,-1.7807,0.0,0.0,0.0,-1.9435,-2.0145,-2.0243,-2.0299,-2.0464,0.0,0.0,-2.2026,-2.1773,-2.1679,-2.2056,-2.1287,-2.0981,-2.1743,-2.1949,-2.1847,-2.1232,-2.1373,-2.1275,-2.0524,-2.0297,-2.0393,-2.0692,-2.1216,-2.1582,-2.1702,-2.2128,-2.2278,-2.1792,-2.1687,-2.165,-2.1635,-2.1567,-2.1799,-2.233,-2.2484,-2.2606,-2.286,-2.3262,-2.3326,-1.4406,-1.4159,-1.4493,-1.4901,-1.5346,-1.5206,-1.522,-1.5328,-1.5323,-1.5323,-1.5323,-1.5323,-1.5261,-1.5147,-1.5342,-1.5439,-1.5412,-1.5499,-1.5488,-1.5406,-1.5337,-1.5328,-1.5424,-1.5608,-1.5754,-1.5798,-1.6052,-1.6279,-1.66,-1.6387,-1.6439,-1.6668,-1.6268,-1.6175,-1.6411,-1.6076,-1.5913,-1.5913,-1.583,-1.5608,-1.5277,-1.4614,-1.3893,-1.3132,-1.2555,-1.2062,-1.178,-1.2028,-1.219,-1.2195,-1.2549,-1.2578,-1.2241,-1.1616,0.0,0.0,0.0,0.0,0.0,0.0,0.0,0.0,0.0,-1.3738,-1.3528,0.0,-1.5383,0.0,-1.6522,-1.7174,-1.7187,-1.7801,0.0,0.0,-1.8983,-1.9572,-2.0259,-2.0621,-2.067,-2.0306,-2.0511,-2.0546,-2.0265,-2.0198,-2.0205,-2.0324,-2.0139,-2.0146,-2.0689,-2.0447,-2.0255,-2.0355,-2.0269,-2.0114,-2.0096,-1.996,-1.9964,-2.0482,-2.0758,-2.1119,-2.1605,-2.1807,-2.1867,-2.1732,-2.1687,-2.15,-2.1066,-2.0946,-2.1006,-2.1148,-2.1178,-2.1225,-2.1318,-2.1122,-2.0895,-1.3752,-1.3536,-1.3641,-1.3836,-1.4099,-1.4509,-1.4692,-1.4692,-1.4692,-1.4692,-1.4692,-1.4692,-1.4692,-1.4692,-1.4882,-1.5023,-1.5034,-1.4903,-1.4838,-1.4969,-1.4914,-1.5006,-1.5136,-1.5507,-1.5703,-1.5792,-1.5792,-1.5852,-1.592,-1.561,-1.5519,-1.5597,-1.5274,-1.522,-1.5416,-1.568,-1.5792,-1.5792,-1.5608,-1.5249,-1.4766,-1.4242,-1.3793,-1.3289,-1.2772,-1.2408,-1.2194,-1.2383,-1.252,-1.2524,-1.2749,-1.2769,-1.2524,-1.2095,-1.1753,0.0,0.0,0.0,0.0,0.0,0.0,0.0,0.0,0.0,0.0,0.0,-1.5978,-1.641,-1.7243,-1.7645,-1.7407,-1.7753,-1.8146,-1.8464,-1.8796,-1.9267,-1.9901,-2.0086,-2.0055,-1.9836,-1.9868,-1.9826,-1.9546,-1.9574,-1.9633,-1.9664,-1.9597,-1.962,-1.9916,-1.9735,-1.964,-1.9769,-1.9632,-1.9567,-1.9769,-1.9646,-1.9656,-1.9975,-2.0309,-2.0681,-2.1069,-2.1382,-2.156,-2.1615,-2.16,-2.155,-2.1199,-2.1156,-2.1148,-2.1119,-2.0917,-2.073,-2.0707,-2.064,-2.0602,-1.3175,-1.3127,-1.2818,-1.2686,-1.2734,-1.3878,-1.4358,-1.4358,-1.4353,-1.4358,-1.4358,-1.4353,-1.4358,-1.4353,-1.441,-1.4509,-1.462,-1.4119,-1.4001,-1.4244,-1.4227,-1.4351,-1.4663,-1.5142,-1.5418,-1.5603,-1.5603,-1.5379,-1.5011,-1.5011,-1.4772,-1.4351,-1.4305,-1.4305,-1.4351,-1.5181,-1.5603,-1.5608,-1.5204,-1.4737,-1.4212,-1.38,-1.3573,-1.3478,-1.3113,-1.2886,-1.2886,-1.2886,-1.2886,-1.2886,-1.2886,-1.2886,-1.2871,-1.2476,-1.219,0.0,-1.1807,0.0,0.0,0.0,0.0,0.0,0.0,0.0,0.0,-1.5948,-1.6449,-1.733,-1.7877,-1.7978,-1.7432,-1.7721,-1.813,-1.8597,-1.8459,-1.856,-1.909,-1.9059,-1.9108,-1.9258,-1.9295,-1.9347,-1.9391,-1.945,-1.9531,-1.9612,-1.9465,-1.9391,-1.9443,-1.9509,-1.9501,-1.9391,-1.9376,-1.9413,-1.942,-1.942,-1.9465,-1.956,-2.0032,-2.0454,-2.0594,-2.1037,-2.144,-2.1472,-2.1472,-2.1483,-2.1565,-2.1491,-2.1453,-2.1274,-2.0826,-2.0542,-2.07,-2.0946,-2.1021,-1.303,-1.2774,-1.2725,-1.2529,-1.2238,-1.2496,-1.2598,-1.2607,-1.2602,-1.2607,-1.2557,-1.2602,-1.2598,-1.2602,-1.2907,-1.3115,-1.3244,-1.3621,-1.391,-1.4063,-1.4203,-1.4305,-1.4387,-1.449,-1.4531,-1.4577,-1.4582,-1.4536,-1.4444,-1.4444,-1.4398,-1.4305,-1.4305,-1.4305,-1.4305,0.0,0.0,0.0,-1.4531,-1.4217,-1.3752,-1.3668,-1.3435,-1.3022,-1.2925,0.0,-1.2886,-1.2886,-1.2886,-1.2886,-1.2886,0.0,0.0,0.0,0.0,0.0,0.0,0.0,0.0,0.0,0.0,0.0,-1.3469,-1.4132,-1.5076,-1.6365,-1.7182,-1.74,-1.7884,-1.7984,-1.7483,-1.7465,-1.7352,-1.7029,-1.7274,-1.7597,-1.8078,-1.8414,-1.8738,-1.9101,-1.9228,-1.9302,-1.9302,-1.9376,-1.9398,-1.9442,-1.9406,-1.9339,-1.9191,-1.9302,-1.9332,-1.931,-1.9302,-1.9339,-1.9332,-1.9347,-1.9515,-1.994,-2.023,-2.0555,-2.1008,-2.1193,-2.1355,-2.1333,-2.144,-2.121,-2.0752,-2.0655,-2.0546,-2.0094,-1.9901,-2.0005,-2.055,-2.0355,-1.9989,-1.2559,-1.2421,-1.2426,-1.2278,0.0,-1.2076,-1.2076,-1.2076,-1.2076,-1.2076,-1.2076,-1.2076,-1.2076,-1.213,-1.2328,-1.2475,-1.2662,-1.2934,-1.3175,-1.3467,-1.3747,-1.3889,-1.3988,-1.4206,-1.4305,-1.4305,-1.4305,-1.4217,-1.3988,-1.3931,-1.3847,-1.3615,-1.3615,-1.3615,-1.3615,-1.361,-1.3705,-1.3983,-1.3931,-1.3705,-1.3296,-1.3248,-1.3167,-1.2925,-1.2886,0.0,0.0,0.0,0.0,0.0,0.0,0.0,0.0,0.0,0.0,-1.2549,-1.2344,-1.2314,-1.2524,-1.2577,-1.2775,-1.307,-1.3799,-1.4671,-1.5585,-1.7172,-1.8019,-1.7821,-1.8047,-1.8091,-1.7815,-1.7551,-1.7375,-1.7338,-1.7496,-1.7702,-1.79,-1.8474,-1.887,-1.8834,-1.9033,-1.9221,-1.9213,-1.9221,-1.9265,-1.9242,-1.9242,-1.9213,-1.9146,-1.9221,-1.9302,-1.9213,-1.9183,-1.9228,-1.9176,-1.9221,-1.9301,-1.9591,-1.9702,-1.9872,-2.0204,-2.0255,-2.0262,-2.0347,-2.0362,-2.0215,-2.001,-1.9907,-1.9849,-1.9671,-1.9538,-1.9649,-2.0109,-1.9922,-1.9697,-1.2076,-1.2076,-1.1968,-1.1968,-1.1923,-1.1868,-1.181,-1.1814,-1.2026,0.0,0.0,-1.2076,-1.2076,-1.213,-1.2121,-1.2274,-1.2471,-1.2426,-1.2578,-1.2876,-1.319,-1.3382,-1.3478,-1.3842,-1.4019,-1.4071,-1.4025,-1.3847,-1.3478,-1.3478,-1.3301,-1.2929,-1.2886,-1.2886,-1.2886,-1.2886,-1.3109,-1.3483,-1.3483,-1.3296,-1.2934,-1.2886,-1.2886,-1.2886,-1.2837,-1.2783,-1.2783,-1.2676,-1.2632,-1.2735,-1.2783,-1.2783,-1.2886,-1.2886,-1.2886,-1.2886,-1.2886,-1.2886,-1.2886,-1.2886,-1.2964,-1.3189,-1.4094,-1.5163,-1.6303,-1.7603,-1.8282,-1.8038,-1.806,-1.8097,-1.8185,-1.7808,-1.7702,-1.8147,-1.8015,-1.7917,-1.8035,-1.8573,-1.8847,-1.8613,-1.886,-1.9108,-1.9108,-1.9108,-1.9108,-1.9101,-1.9108,-1.9108,-1.9108,-1.9183,-1.9221,-1.9131,-1.9108,-1.9108,-1.9108,-1.9101,-1.9108,-1.9152,-1.9137,-1.9108,-1.9108,-1.9108,-1.9139,-1.936,-1.9272,-1.9339,-1.9361,-1.9391,-1.9376,-1.9494,-1.945,-1.9413,-1.9581,-1.9654,-1.9654,-1.2076,-1.2071,-1.1619,-1.1427,-1.1372,-1.0838,-1.0618,-1.0728,-1.166,-1.2076,-1.2076,-1.2076,-1.2076,-1.213,-1.2229,-1.2332,-1.2524,-1.2583,-1.2725,-1.2886,-1.2973,-1.2973,-1.2968,-1.3065,-1.3113,-1.3113,-1.3109,-1.3065,-1.3027,-1.3017,-1.2978,-1.2881,-1.2886,-1.2886,-1.2886,-1.2886,-1.2929,-1.3022,-1.3017,-1.2973,-1.2886,-1.2886,-1.2886,-1.2881,-1.2431,-1.2224,-1.2229,-1.171,-1.166,-1.2175,-1.2229,-1.2426,-1.2881,-1.2886,-1.2886,-1.2886,-1.2886,-1.2886,-1.2886,-1.2886,-1.3037,-1.3449,-1.4358,-1.5335,-1.6237,-1.6504,-1.6851,-1.73,-1.7524,-1.7702,-1.8122,-1.8141,-1.8129,-1.8191,-1.7813,-1.7638,-1.7949,-1.8031,-1.8186,-1.8411,-1.8874,-1.9101,-1.9071,-1.9108,-1.9108,-1.9108,-1.9108,-1.9108,-1.9108,-1.9094,-1.9131,-1.9101,-1.9108,-1.9108,-1.9108,-1.9108,-1.9108,-1.9108,-1.9108,-1.9108,-1.9108,-1.9108,-1.9101,-1.9146,-1.9153,-1.9146,-1.9139,-1.9139,-1.9213,-1.9339,-1.9332,-1.9332,-1.9457,-1.9479,-1.9494,-1.1191,-1.1141,-1.0939,-1.0791,-1.0791,-1.0521,-1.0419,-1.0466,-1.0931,-1.1191,-1.1191,-1.1191,-1.1191,-1.1191,-1.1238,-1.1342,-1.1493,-1.161,-1.176,-1.1891,-1.1959,-1.1968,-1.1963,-1.1963,-1.2161,-1.2426,-1.2116,-1.2121,-1.2421,-1.2116,-1.1963,-1.1963,-1.1963,-1.1959,-1.1963,-1.1963,-1.1968,-1.1963,-1.2573,-1.2779,-1.248,-1.2475,-1.2328,-1.2013,-1.1714,-1.161,-1.161,-1.1355,-1.1305,-1.161,-1.1927,-1.2229,-1.2421,-1.248,-1.2475,-1.248,-1.2475,-1.248,-1.248,-1.273,-1.2969,-1.3159,-1.38,-1.446,-1.5121,-1.6299,-1.7067,-1.7454,-1.7811,-1.8293,-1.8859,-1.8721,-1.864,-1.9051,-1.8342,-1.7926,-1.8027,-1.7965,-1.7869,-1.7862,-1.8397,-1.8791,-1.8791,-1.895,-1.9108,-1.9108,-1.9108,-1.9108,-1.9108,-1.9108,-1.9108,-1.9108,-1.9108,-1.9108,-1.9108,-1.9108,-1.9108,-1.9108,-1.9108,-1.9108,-1.9108,-1.9108,-1.9108,-1.9108,-1.9108,-1.9108,-1.9108,-1.9108,-1.9139,-1.925,-1.9295,-1.9339,-1.945,-1.945,-1.942,-1.0419,-1.0419,-1.0269,-1.0171,-1.0064,-1.0016,-1.0009,-1.0016,-1.0064,-1.0064,-1.0064,-1.0265,-1.0419,-1.0419,-1.0415,-1.0517,-1.0614,-1.0736,-1.0889,-1.1019,-1.1086,-1.12,-1.1204,-1.1204,-1.146,-1.1819,-1.141,-1.146,-1.1814,-1.1405,-1.1204,-1.1204,-1.1204,-1.1204,-1.1204,-1.1204,-1.1204,-1.1255,-1.2062,-1.2323,-1.1918,-1.1868,-1.1669,-1.1255,-1.1049,-1.0998,-1.1002,-1.0846,-1.0842,-1.1002,-1.1464,-1.1773,-1.1923,-1.2026,-1.2026,-1.1918,-1.2026,-1.2076,-1.2126,-1.2632,-1.2886,-1.2895,-1.3271,-1.3693,-1.4226,-1.5949,-1.73,-1.7646,-1.8082,-1.8635,-1.9302,-1.9238,-1.9158,-1.9496,-1.8788,-1.8129,-1.8031,-1.7907,-1.7665,-1.7354,-1.7962,-1.85,-1.8577,-1.886,-1.9071,-1.9108,-1.9108,-1.9108,-1.9108,-1.9108,-1.9108,-1.9108,-1.9108,-1.9108,-1.9108,-1.9108,-1.9108,-1.9108,-1.9108,-1.9108,-1.9108,-1.9108,-1.9108,-1.9108,-1.9108,-1.9108,-1.9108,-1.9108,-1.9139,-1.925,-1.9265,-1.9302,-1.942,-1.9384,-1.9347,-1.0368,-1.0316,-0.981,-0.9413,-0.8956,-0.8956,-0.8952,-0.8956,-0.8956,-0.8962,-0.9001,-0.9961,-1.0368,-1.0415,-1.047,-1.0521,-1.0559,-1.072,-1.0821,-1.0914,-1.1019,-1.1082,-1.1154,-1.1154,-1.125,-1.1259,-1.1204,-1.1154,-1.1255,-1.12,-1.1154,-1.1204,-1.1204,-1.1154,-1.1154,-1.1154,-1.1204,-1.1204,-1.1309,-1.1351,-1.1305,-1.1255,-1.1255,-1.1204,-1.0576,-1.0324,-1.0454,-0.9877,-0.988,-1.0399,-1.0553,-1.0808,-1.1259,-1.1773,-1.1868,-1.1355,-1.1764,-1.2076,-1.213,-1.2573,-1.2886,-1.291,-1.3252,-1.3657,-1.4129,-1.5173,-1.638,-1.7242,-1.7663,-1.8285,-1.927,-1.9438,-1.9325,-1.8939,-1.8532,-1.8016,-1.7584,-1.7329,-1.7251,-1.7225,-1.7875,-1.85,-1.8461,-1.8822,-1.9071,-1.9108,-1.9108,-1.9108,-1.9108,-1.9108,-1.9108,-1.9108,-1.9108,-1.9108,-1.9108,-1.9108,-1.9108,-1.9108,-1.9108,-1.9108,-1.9108,-1.9108,-1.9108,-1.9108,-1.9108,-1.9108,-1.9108,-1.9108,-1.9146,-1.9258,-1.9265,-1.9153,-1.9153,-1.9191,-1.9221,-0.8439,-0.8442,-0.8187,-0.7987,-0.7836,-0.7785,-0.7785,-0.7785,-0.7785,-0.7783,-0.7836,-0.8293,-0.882,-0.9462,-0.9517,-0.9562,-0.9562,-0.9658,-0.9762,-0.9814,-0.9913,-1.0016,-1.0127,-1.0131,-1.0336,-1.0655,-1.0442,-1.0435,-1.0651,-1.0379,-1.0285,-1.0281,-1.0285,-1.0281,-1.0233,-1.0233,-1.0277,-1.0281,-1.0226,-1.0226,-1.0277,-1.0545,-1.0541,-1.0131,-0.9869,-0.9766,-0.9777,-0.9517,-0.9566,-0.9928,-1.0245,-1.0502,-1.0702,-1.0964,-1.0956,-1.0799,-1.1255,-1.1714,-1.2081,-1.2578,-1.2886,-1.2886,-1.3042,-1.3408,-1.4062,-1.4512,-1.5324,-1.658,-1.7503,-1.8218,-1.8732,-1.9099,-1.9199,-1.8759,-1.8324,-1.7878,-1.7335,-1.6992,-1.6765,-1.6814,-1.7345,-1.7834,-1.8147,-1.87,-1.9064,-1.9108,-1.9108,-1.9071,-1.9108,-1.9108,-1.9108,-1.9108,-1.9108,-1.9108,-1.9108,-1.9108,-1.9108,-1.9108,-1.9108,-1.9108,-1.9108,-1.9108,-1.9108,-1.9108,-1.9108,-1.9139,-1.9213,-1.9221,-1.9258,-1.9332,-1.9413,-1.9376,-1.9376,-1.9339,-1.9339,-0.7136,-0.7136,-0.7136,-0.7136,-0.7136,-0.7136,-0.7136,-0.7136,-0.7136,-0.7136,-0.7136,-0.7136,-0.7571,-0.8268,-0.8325,-0.8321,-0.8374,-0.8424,-0.8474,-0.8524,-0.8623,-0.8834,-0.9099,-0.9152,-0.9465,-0.9984,-0.9773,-0.9773,-1.0087,-0.9773,-0.9562,-0.9614,-0.9566,-0.9562,-0.9618,-0.9618,-0.9618,-0.9618,-0.9618,-0.9618,-0.9666,-0.9984,-0.9928,-0.9517,-0.9413,-0.9357,-0.9462,-0.9357,-0.9413,-0.9614,-0.9976,-1.019,-1.019,-1.03,-1.0403,-1.0454,-1.0749,-1.1259,-1.1823,-1.2372,-1.273,-1.2886,-1.2886,-1.3237,-1.3931,-1.4082,-1.4681,-1.593,-1.7034,-1.7693,-1.8267,-1.8667,-1.8775,-1.8386,-1.8062,-1.7681,-1.7026,-1.661,-1.6485,-1.6528,-1.6983,-1.7365,-1.7801,-1.8344,-1.8767,-1.9037,-1.8986,-1.9026,-1.9071,-1.9108,-1.9108,-1.9108,-1.9108,-1.9108,-1.9108,-1.9108,-1.9108,-1.9108,-1.9108,-1.9108,-1.9108,-1.9108,-1.9108,-1.9108,-1.9139,-1.9176,-1.9258,-1.9295,-1.9332,-1.942,-1.9501,-1.9567,-1.9494,-1.945,-1.942,-0.7136,-0.7082,-0.7079,-0.7028,-0.7082,-0.7028,-0.7082,-0.6974,-0.7028,-0.7082,-0.7031,-0.7028,-0.7082,-0.7139,-0.719,-0.7192,-0.7246,-0.7297,-0.7348,-0.745,-0.7447,-0.7774,-0.8421,-0.8477,-0.8788,-0.9357,-0.9305,-0.9406,-0.9562,-0.9462,-0.9458,-0.9566,-0.9354,-0.9409,-0.9514,-0.9566,-0.9614,-0.9614,-0.9618,-0.9614,-0.9618,-0.9618,-0.9618,-0.9566,-0.9364,-0.9305,-0.951,-0.9312,-0.9309,-0.9618,-0.9618,-0.9669,-0.9721,-1.0142,-1.0352,-1.0352,-1.0395,-1.0702,-1.1204,-1.1764,-1.2323,-1.2779,-1.2837,-1.3232,-1.397,-1.4082,-1.4512,-1.539,-1.6078,-1.6866,-1.7809,-1.8159,-1.8143,-1.7719,-1.7763,-1.729,-1.6416,-1.6386,-1.6405,-1.6485,-1.6863,-1.7323,-1.7713,-1.7841,-1.8302,-1.8733,-1.8761,-1.87,-1.9026,-1.9108,-1.9108,-1.9108,-1.9108,-1.9108,-1.9108,-1.9108,-1.9108,-1.9108,-1.9108,-1.9108,-1.9108,-1.9108,-1.9108,-1.9146,-1.9191,-1.9265,-1.931,-1.9347,-1.9413,-1.9457,-1.9523,-1.956,-1.956,-1.9457,-1.9428,-0.5948,-0.5948,-0.5948,-0.5948,-0.595,-0.595,-0.5948,-0.595,-0.5952,-0.595,-0.595,-0.595,-0.595,-0.5948,-0.595,-0.6379,-0.7082,-0.7136,-0.7136,-0.719,-0.7187,-0.7348,-0.7664,-0.7664,-0.7877,-0.8249,-0.8306,-0.8355,-0.8504,-0.8458,-0.8405,-0.8405,-0.8402,-0.8616,-0.8879,-0.904,-0.9194,-0.9409,-0.9462,-0.9409,-0.9361,-0.9413,-0.9413,-0.9361,-0.926,-0.9211,-0.9208,-0.9113,-0.9208,-0.9465,-0.9465,-0.951,-0.9614,-0.9773,-0.9877,-0.9932,-1.0194,-1.0502,-1.0702,-1.1204,-1.1769,-1.2323,-1.2377,-1.2926,-1.383,-1.4107,-1.4432,-1.5253,-1.5584,-1.614,-1.6816,-1.7318,-1.7419,-1.7031,-1.6991,-1.6878,-1.6317,-1.6188,-1.6318,-1.6442,-1.6863,-1.7275,-1.7393,-1.7632,-1.7928,-1.8207,-1.8366,-1.8662,-1.8988,-1.9108,-1.9064,-1.9108,-1.9108,-1.9108,-1.9108,-1.9108,-1.9108,-1.9108,-1.9108,-1.9108,-1.9108,-1.9108,-1.9108,-1.9228,-1.931,-1.9384,-1.942,-1.9523,-1.9552,-1.9596,-1.9632,-1.9625,-1.9581,-1.9523,-1.956,-0.4741,-0.4741,-0.4741,-0.4737,-0.4741,-0.4739,-0.4737,-0.4739,-0.4741,-0.4739,-0.4741,-0.4739,-0.4853,-0.502,-0.5077,-0.5565,-0.6436,-0.6492,-0.6542,-0.6544,-0.649,-0.665,-0.6912,-0.6966,-0.7176,-0.756,-0.767,-0.7774,-0.7821,-0.7818,-0.7774,-0.7723,-0.7771,-0.7925,-0.8196,-0.8349,-0.8564,-0.8774,-0.8988,-0.9103,-0.905,-0.9204,-0.9316,-0.9215,-0.9159,-0.911,-0.9061,-0.9005,-0.911,-0.9361,-0.9409,-0.9465,-0.9614,-0.9618,-0.9618,-0.9669,-0.9932,-1.0241,-1.0446,-1.0909,-1.1464,-1.2022,-1.2292,-1.2881,-1.3961,-1.4082,-1.4561,-1.5171,-1.5415,-1.558,-1.5968,-1.6533,-1.6814,-1.6531,-1.661,-1.6474,-1.6013,-1.605,-1.6182,-1.6355,-1.6656,-1.6905,-1.6983,-1.7192,-1.7328,-1.7403,-1.7765,-1.8273,-1.8901,-1.8819,-1.8822,-1.9033,-1.895,-1.8981,-1.9026,-1.9108,-1.9108,-1.9108,-1.9108,-1.9108,-1.9108,-1.9146,-1.9191,-1.9265,-1.9384,-1.9494,-1.956,-1.9661,-1.9697,-1.9697,-1.9697,-1.9661,-1.9661,-1.9654,-1.9625,-0.3626,-0.368,-0.3624,-0.3738,-0.3737,-0.3737,-0.3681,-0.3738,-0.3737,-0.3792,-0.3849,-0.3683,-0.4073,-0.4406,-0.4462,-0.4794,-0.5236,-0.5291,-0.5403,-0.5462,-0.5464,-0.5729,-0.6206,-0.6206,-0.6534,-0.713,-0.7506,-0.7613,-0.756,-0.7509,-0.7509,-0.7563,-0.7391,-0.7385,-0.7489,-0.7655,-0.7661,-0.7762,-0.8246,-0.857,-0.8626,-0.8886,-0.9099,-0.9106,-0.9001,-0.9061,-0.9162,-0.9057,-0.9113,-0.9357,-0.9361,-0.9465,-0.9562,-0.9618,-0.9618,-0.9618,-0.9614,-0.988,-1.0348,-1.0799,-1.1255,-1.1882,-1.2499,-1.308,-1.3806,-1.4131,-1.4541,-1.5225,-1.5415,-1.5468,-1.5522,-1.5975,-1.6328,-1.6497,-1.6516,-1.6378,-1.6017,-1.5913,-1.6044,-1.6182,-1.6399,-1.6399,-1.6436,-1.6601,-1.6676,-1.6763,-1.7061,-1.7652,-1.8467,-1.8261,-1.8312,-1.8738,-1.8829,-1.8745,-1.8943,-1.9108,-1.9108,-1.9108,-1.9108,-1.9108,-1.9101,-1.9139,-1.9221,-1.9302,-1.9487,-1.9596,-1.9632,-1.9697,-1.9697,-1.9697,-1.9697,-1.969,-1.9697,-1.9697,-1.9697,-0.3624,-0.3624,-0.3624,-0.3624,-0.3624,-0.3624,-0.3624,-0.3569,-0.3624,-0.3624,-0.3624,-0.3624,-0.3681,-0.3849,-0.3906,-0.3961,-0.4127,-0.4184,-0.4515,-0.5187,-0.5299,-0.5352,-0.5513,-0.5563,-0.5782,-0.6105,-0.6332,-0.6436,-0.6542,-0.6436,-0.6386,-0.6384,-0.6381,-0.648,-0.6738,-0.7015,-0.7176,-0.7391,-0.7655,-0.7765,-0.7667,-0.814,-0.8399,-0.8352,-0.8738,-0.8956,-0.8906,-0.891,-0.9008,-0.926,-0.9263,-0.9364,-0.9566,-0.9618,-0.9618,-0.9618,-0.9618,-0.9669,-0.9825,-1.0028,-1.0391,-1.0951,-1.1746,-1.2604,-1.3474,-1.4191,-1.48,-1.5327,-1.5415,-1.5415,-1.5424,-1.5567,-1.5815,-1.5893,-1.6241,-1.6309,-1.5915,-1.5907,-1.5994,-1.6088,-1.6269,-1.6355,-1.6392,-1.6436,-1.6483,-1.6555,-1.6915,-1.738,-1.7364,-1.776,-1.7988,-1.8546,-1.8514,-1.8676,-1.895,-1.9108,-1.9108,-1.9108,-1.9108,-1.9108,-1.9101,-1.9176,-1.925,-1.9369,-1.956,-1.9632,-1.9697,-1.9733,-1.9733,-1.9696,-1.9666,-1.9688,-1.9726,-1.9577,-1.9355,-0.285,-0.2681,-0.2851,-0.2737,-0.2457,-0.2569,-0.2683,-0.2681,-0.2682,-0.2794,-0.2906,-0.2907,-0.3074,-0.3238,-0.3238,-0.3401,-0.3569,-0.3624,-0.3958,-0.4572,-0.4684,-0.4684,-0.4684,-0.4906,-0.5073,-0.5234,-0.5572,-0.5791,-0.5839,-0.5843,-0.5791,-0.5734,-0.5734,-0.5784,-0.5991,-0.6263,-0.648,-0.6591,-0.6907,-0.6899,-0.673,-0.7275,-0.7709,-0.7711,-0.8099,-0.8312,-0.8424,-0.8477,-0.8685,-0.9106,-0.9263,-0.9409,-0.9614,-0.9618,-0.9618,-0.9618,-0.9618,-0.9618,-0.9618,-0.9821,-1.0135,-1.0763,-1.1601,-1.2617,-1.3502,-1.4371,-1.4961,-1.5322,-1.5415,-1.5415,-1.5409,-1.5517,-1.5506,-1.5362,-1.5831,-1.6065,-1.5831,-1.5875,-1.5913,-1.5957,-1.6132,-1.6219,-1.6256,-1.6386,-1.6478,-1.6566,-1.6744,-1.7192,-1.7086,-1.7437,-1.7907,-1.8312,-1.8546,-1.8745,-1.9033,-1.9108,-1.9108,-1.9108,-1.9108,-1.9108,-1.9108,-1.9176,-1.9258,-1.942,-1.9611,-1.9632,-1.9697,-1.9726,-1.9762,-1.9702,-1.9463,-1.9364,-1.9221,-1.8706,-1.8458,-0.1459,-0.1122,-0.1515,-0.129,-0.0673,-0.1009,-0.1233,-0.1122,-0.1122,-0.1402,-0.1684,-0.1795,-0.2017,-0.2458,-0.2402,-0.268,-0.3292,-0.3178,-0.318,-0.3349,-0.3404,-0.3459,-0.3795,-0.4239,-0.446,-0.457,-0.5067,-0.5399,-0.5342,-0.5515,-0.5679,-0.5508,-0.5513,-0.5515,-0.546,-0.5515,-0.5622,-0.562,-0.6055,-0.6034,-0.5506,-0.6455,-0.7077,-0.723,-0.7292,-0.7557,-0.7928,-0.8087,-0.8464,-0.9106,-0.9409,-0.9562,-0.9614,-0.9618,-0.9618,-0.9566,-0.9618,-0.9566,-0.9673,-0.9877,-1.034,-1.0875,-1.186,-1.2972,-1.3588,-1.4245,-1.4839,-1.5249,-1.5317,-1.5337,-1.5307,-1.5451,-1.5324,-1.5008,-1.534,-1.5631,-1.5799,-1.5792,-1.5836,-1.5836,-1.5913,-1.5994,-1.6032,-1.6256,-1.6405,-1.6454,-1.6534,-1.6954,-1.735,-1.7475,-1.7821,-1.8061,-1.8219,-1.8429,-1.8553,-1.863,-1.863,-1.863,-1.8707,-1.8867,-1.9026,-1.9176,-1.9295,-1.9457,-1.953,-1.9595,-1.9527,-1.9493,-1.9351,-1.9141,-1.8946,-1.885,-1.8598,-1.816,-1.7918,-0.0729,-0.0617,-0.0729,-0.0617,-0.0393,-0.0561,-0.0561,-0.0617,-0.0561,-0.0673,-0.0785,-0.0785,-0.0896,-0.1007,-0.1064,-0.1119,-0.1343,-0.1342,-0.1455,-0.1735,-0.1736,-0.2515,-0.3404,-0.3737,-0.3847,-0.3904,-0.4125,-0.4181,-0.4294,-0.4682,-0.4903,-0.4948,-0.5181,-0.5297,-0.5356,-0.546,-0.546,-0.5352,-0.5622,-0.5673,-0.55,-0.5982,-0.6428,-0.6532,-0.7235,-0.7658,-0.7928,-0.8412,-0.8844,-0.9155,-0.9364,-0.9517,-0.9562,-0.9614,-0.9562,-0.9458,-0.9458,-0.9462,-0.9462,-0.9618,-0.9825,-1.0106,-1.1441,-1.2171,-1.2489,-1.3626,-1.4373,-1.4839,-1.4946,-1.4936,-1.4841,-1.4916,-1.4794,-1.4562,-1.4902,-1.5377,-1.5656,-1.5792,-1.5792,-1.5836,-1.5913,-1.5951,-1.6038,-1.6144,-1.6312,-1.6355,-1.643,-1.659,-1.7022,-1.7148,-1.7297,-1.7386,-1.755,-1.7794,-1.7955,-1.8068,-1.8068,-1.8068,-1.8187,-1.8461,-1.8784,-1.9139,-1.925,-1.9413,-1.936,-1.938,-1.9081,-1.8912,-1.8725,-1.856,-1.8272,-1.8105,-1.8042,-1.7772,-1.765,-0.028,-0.0168,-0.0336,-0.0168,0.0112,-0.0056,-0.0168,-0.0168,-0.0112,-0.0224,-0.0336,-0.0393,-0.0393,-0.0393,-0.0393,-0.0393,-0.0393,-0.0393,-0.0561,-0.0841,-0.1066,-0.1792,-0.2684,-0.3071,-0.3238,-0.3238,-0.3461,-0.3626,-0.3738,-0.4016,-0.4124,-0.4233,-0.446,-0.4686,-0.4965,-0.5071,-0.5238,-0.5297,-0.5405,-0.5407,-0.5354,-0.562,-0.578,-0.5887,-0.6537,-0.6964,-0.7557,-0.8421,-0.9012,-0.9159,-0.9309,-0.9462,-0.9562,-0.9558,-0.9458,-0.9409,-0.9364,-0.9316,-0.9361,-0.9361,-0.9658,-1.0229,-1.1337,-1.1992,-1.2584,-1.3513,-1.4233,-1.4413,-1.4462,-1.4452,-1.4398,-1.4301,-1.4292,-1.4319,-1.4562,-1.4966,-1.5424,-1.5647,-1.5792,-1.5836,-1.5875,-1.5907,-1.5919,-1.6069,-1.6169,-1.6206,-1.6324,-1.6472,-1.671,-1.6716,-1.685,-1.7102,-1.731,-1.7598,-1.7713,-1.7787,-1.7828,-1.7787,-1.8028,-1.8219,-1.8577,-1.899,-1.895,-1.9009,-1.9067,-1.8945,-1.8532,-1.8257,-1.8234,-1.7994,-1.7637,-1.7365,-1.7335,-1.7184,-1.7092,-0.0056,0.0224,-0.0112,0.0168,0.0729,0.0449,0.028,0.028,0.028,0.0112,-0.0112,-0.0224,-0.0112,-0.028,-0.0112,-0.0224,-0.0224,-0.0112,-0.0336,-0.0561,-0.0897,-0.1458,-0.1964,-0.2407,-0.2572,-0.2683,-0.3182,-0.3294,-0.3294,-0.3405,-0.3515,-0.3624,-0.3681,-0.4016,-0.4572,-0.4627,-0.4906,-0.5244,-0.5354,-0.5354,-0.5301,-0.5354,-0.5407,-0.5458,-0.5837,-0.6431,-0.7295,-0.8215,-0.891,-0.9159,-0.9309,-0.9413,-0.951,-0.9465,-0.9361,-0.9361,-0.9263,-0.9211,-0.9211,-0.9316,-0.9718,-1.0474,-1.1179,-1.2066,-1.2608,-1.3147,-1.3599,-1.3854,-1.3927,-1.3971,-1.3961,-1.3711,-1.3796,-1.4084,-1.4274,-1.4628,-1.5045,-1.5513,-1.5792,-1.5792,-1.5792,-1.5792,-1.5842,-1.5931,-1.6063,-1.6019,-1.6132,-1.6232,-1.649,-1.6631,-1.6844,-1.7179,-1.7345,-1.7509,-1.755,-1.7591,-1.7591,-1.7625,-1.7988,-1.8219,-1.8461,-1.8684,-1.8554,-1.8542,-1.8679,-1.832,-1.7666,-1.753,-1.7573,-1.7336,-1.6886,-1.6751,-1.6645,-1.6398,-1.6256,0.0673,0.0729,0.0617,0.0729,0.0897,0.0785,0.0729,0.0729,0.0729,0.0617,0.0617,0.0617,0.0561,0.0617,0.0561,0.0617,0.0561,0.0505,0.028,-0.0449,-0.0897,-0.1347,-0.174,-0.1963,-0.2019,-0.2074,-0.2129,-0.2242,-0.2297,-0.274,-0.2904,-0.2959,-0.3681,-0.4351,-0.446,-0.4796,-0.5134,-0.5301,-0.5301,-0.5301,-0.5301,-0.5301,-0.5301,-0.5354,-0.6164,-0.6966,-0.7664,-0.8424,-0.8854,-0.9005,-0.9054,-0.9211,-0.9361,-0.9312,-0.926,-0.9211,-0.911,-0.9057,-0.9061,-0.911,-0.9208,-0.9681,-1.0355,-1.0692,-1.1277,-1.1928,-1.2558,-1.3063,-1.3384,-1.3488,-1.3599,-1.3591,-1.3641,-1.3879,-1.4403,-1.4869,-1.5142,-1.5519,-1.5792,-1.5792,-1.5792,-1.5792,-1.5792,-1.5842,-1.5881,-1.5875,-1.5938,-1.5996,-1.6225,-1.6509,-1.6723,-1.6976,-1.7012,-1.7096,-1.7137,-1.7221,-1.7427,-1.7632,-1.7988,-1.8344,-1.8546,-1.8487,-1.841,-1.8368,-1.8345,-1.778,-1.6934,-1.679,-1.6799,-1.6458,-1.6211,-1.6203,-1.6091,-1.5757,-1.5704,0.0897,0.0897,0.0897,0.0897,0.0897,0.0897,0.0897,0.0897,0.0897,0.0897,0.0897,0.0897,0.0897,0.0897,0.0897,0.0897,0.0897,0.0897,0.0505,-0.0112,-0.0561,-0.1009,-0.1459,-0.1684,-0.1797,-0.1797,-0.1796,-0.1797,-0.1908,-0.2075,-0.2297,-0.2351,-0.3238,-0.3681,-0.4125,-0.4629,-0.502,-0.5244,-0.5301,-0.5301,-0.5301,-0.5301,-0.5301,-0.5517,-0.6436,-0.7238,-0.7503,-0.8374,-0.8752,-0.8906,-0.891,-0.9008,-0.9208,-0.9211,-0.9106,-0.9113,-0.8959,-0.891,-0.891,-0.8959,-0.9159,-0.9465,-1.002,-1.0588,-1.1108,-1.161,-1.2095,-1.258,-1.2807,-1.2907,-1.3093,-1.3209,-1.3311,-1.371,-1.4264,-1.4823,-1.5102,-1.5513,-1.5792,-1.5792,-1.5792,-1.5792,-1.5792,-1.5792,-1.5792,-1.5836,-1.5832,-1.594,-1.6026,-1.6262,-1.6399,-1.6528,-1.6522,-1.6558,-1.6637,-1.6844,-1.7269,-1.7632,-1.8075,-1.8468,-1.8829,-1.8619,-1.8361,-1.8121,-1.7782,-1.6961,-1.6257,-1.6141,-1.6106,-1.5943,-1.5802,-1.5749,-1.5697,-1.5668,-1.5704,0.1177,0.1177,0.1065,0.1066,0.1009,0.0953,0.0897,0.0897,0.0897,0.0897,0.0897,0.0897,0.0897,0.0897,0.0897,0.0897,0.0897,0.0897,0.0617,0.0112,-0.0168,-0.0561,-0.1009,-0.1403,-0.1628,-0.1684,-0.1797,-0.1797,-0.1797,-0.1797,-0.1908,-0.1964,-0.2461,-0.307,-0.3514,-0.4182,-0.4741,-0.5073,-0.5242,-0.5301,-0.5301,-0.5301,-0.5301,-0.5515,-0.627,-0.6972,-0.7292,-0.8049,-0.8639,-0.8752,-0.8808,-0.8906,-0.9061,-0.9061,-0.9012,-0.9012,-0.8906,-0.8804,-0.886,-0.8906,-0.9155,-0.9666,-1.0182,-1.0749,-1.1209,-1.1665,-1.204,-1.2243,-1.2384,-1.2532,-1.2774,-1.3109,-1.3339,-1.3705,-1.4118,-1.4582,-1.4954,-1.5463,-1.5697,-1.5792,-1.5792,-1.5792,-1.5792,-1.5792,-1.5792,-1.583,-1.5826,-1.5852,-1.5938,-1.605,-1.6188,-1.6275,-1.6306,-1.6399,-1.6479,-1.6808,-1.7192,-1.7475,-1.7995,-1.8397,-1.8653,-1.7945,-1.7469,-1.7376,-1.6939,-1.6242,-1.5806,-1.5727,-1.5639,-1.55,-1.5522,-1.5551,-1.558,-1.561,-1.5639,0.2403,0.2347,0.1845,0.1623,0.1568,0.1121,0.0953,0.0897,0.1009,0.0897,0.0953,0.0897,0.0953,0.0897,0.0897,0.0897,0.0897,0.0897,0.0673,0.028,0.0112,-0.0168,-0.0561,-0.0953,-0.1234,-0.1347,-0.1572,-0.174,-0.1797,-0.1797,-0.1797,-0.1908,-0.2406,-0.2793,-0.3182,-0.3849,-0.4463,-0.4682,-0.5018,-0.5189,-0.5244,-0.5301,-0.5301,-0.535,-0.6105,-0.6593,-0.7077,-0.7667,-0.8259,-0.8755,-0.8808,-0.8804,-0.8854,-0.8857,-0.8906,-0.8956,-0.8854,-0.8808,-0.8808,-0.8804,-0.8854,-0.9061,-0.9621,-1.0123,-1.0635,-1.1204,-1.1769,-1.2071,-1.2278,-1.2569,-1.3233,-1.3276,-1.37,-1.4077,-1.4403,-1.472,-1.4749,-1.513,-1.5564,-1.5659,-1.5748,-1.5792,-1.5792,-1.5792,-1.5792,-1.5792,-1.5818,-1.58,-1.5863,-1.5963,-1.6044,-1.6088,-1.6132,-1.6269,-1.6405,-1.682,-1.7192,-1.7352,-1.7713,-1.8002,-1.7921,-1.6933,-1.6448,-1.6765,-1.6561,-1.5973,-1.5657,-1.5447,-1.5359,-1.5306,-1.5366,-1.5433,-1.5455,-1.5448,-1.5352,0.2682,0.2682,0.2402,0.2236,0.2235,0.1958,0.1845,0.1845,0.1846,0.1846,0.1734,0.1511,0.1344,0.1288,0.1009,0.0897,0.0897,0.0897,0.0785,0.0561,0.0336,0.0112,-0.0112,-0.0505,-0.0673,-0.0841,-0.1178,-0.1572,-0.1797,-0.1797,-0.1797,-0.1908,-0.2407,-0.2682,-0.2849,-0.357,-0.3961,-0.4181,-0.4574,-0.4908,-0.4963,-0.5132,-0.5301,-0.546,-0.5832,-0.632,-0.6645,-0.7184,-0.7777,-0.8209,-0.8315,-0.8533,-0.8699,-0.8804,-0.8801,-0.8906,-0.8857,-0.8808,-0.8808,-0.8808,-0.8804,-0.8906,-0.951,-1.0064,-1.0521,-1.1196,-1.1773,-1.2022,-1.2224,-1.2421,-1.2759,-1.3035,-1.3185,-1.3425,-1.3983,-1.4346,-1.4427,-1.504,-1.5328,-1.5525,-1.5659,-1.5703,-1.5792,-1.5792,-1.5792,-1.5792,-1.5792,-1.5792,-1.5792,-1.5875,-1.5957,-1.6001,-1.6088,-1.6225,-1.6405,-1.6729,-1.7109,-1.731,-1.7516,-1.7801,-1.7802,-1.7102,-1.6727,-1.6761,-1.6327,-1.563,-1.5507,-1.5314,-1.5216,-1.5179,-1.5306,-1.5366,-1.5292,-1.5255,-1.5165,0.307,0.307,0.2903,0.2903,0.2847,0.2735,0.2682,0.2682,0.2626,0.2625,0.2626,0.2179,0.1957,0.1845,0.14,0.1065,0.0897,0.0897,0.0841,0.0785,0.0561,0.0336,0.0224,-0.0056,-0.028,-0.0336,-0.0729,-0.1178,-0.1572,-0.174,-0.1797,-0.1908,-0.2295,-0.2516,-0.2628,-0.3071,-0.3347,-0.357,-0.4016,-0.4349,-0.4572,-0.502,-0.5301,-0.5301,-0.5782,-0.6048,-0.6317,-0.6642,-0.7184,-0.761,-0.7874,-0.8143,-0.853,-0.8752,-0.8808,-0.8808,-0.8808,-0.8808,-0.8808,-0.8808,-0.8857,-0.9061,-0.9862,-1.0316,-1.0779,-1.1451,-1.2076,-1.2121,-1.217,-1.2363,-1.2608,-1.2608,-1.2754,-1.2997,-1.3552,-1.3972,-1.416,-1.4536,-1.5017,-1.5249,-1.5474,-1.5564,-1.5564,-1.5689,-1.565,-1.5647,-1.5647,-1.5742,-1.5742,-1.5792,-1.5875,-1.5963,-1.6057,-1.6188,-1.6355,-1.6595,-1.697,-1.7221,-1.7434,-1.7679,-1.775,-1.7626,-1.7225,-1.6591,-1.5852,-1.5275,-1.5215,-1.5185,-1.5034,-1.5027,-1.5209,-1.5239,-1.5118,-1.5118,-1.5118,0.4293,0.4237,0.3738,0.3514,0.3404,0.2959,0.2736,0.2736,0.2792,0.2682,0.2847,0.2625,0.2568,0.2402,0.1956,0.14,0.1065,0.0953,0.0953,0.0897,0.0785,0.0729,0.0729,0.0336,0.0168,0.0056,-0.028,-0.0729,-0.1122,-0.1515,-0.1741,-0.1796,-0.1852,-0.1963,-0.2074,-0.2517,-0.2791,-0.2904,-0.3405,-0.4016,-0.4515,-0.502,-0.5246,-0.5354,-0.546,-0.5673,-0.6046,-0.6317,-0.6694,-0.7246,-0.7661,-0.7925,-0.8087,-0.853,-0.8752,-0.8808,-0.8808,-0.8808,-0.8808,-0.8808,-0.8959,-0.9312,-1.0012,-1.058,-1.12,-1.161,-1.2076,-1.2076,-1.2126,-1.2363,-1.2696,-1.2977,-1.317,-1.342,-1.3758,-1.3947,-1.4046,-1.4408,-1.484,-1.4886,-1.5108,-1.5153,-1.5153,-1.5329,-1.5455,-1.5498,-1.5501,-1.5597,-1.5647,-1.5697,-1.5792,-1.5881,-1.5963,-1.6057,-1.6144,-1.6423,-1.6667,-1.7047,-1.7262,-1.7434,-1.7491,-1.7388,-1.6802,-1.6123,-1.5481,-1.4991,-1.4906,-1.4829,-1.4774,-1.4835,-1.4982,-1.4966,-1.4856,-1.4918,-1.4942,0.4462,0.4462,0.4182,0.4128,0.4073,0.3792,0.3738,0.3737,0.3738,0.3737,0.3626,0.3349,0.3014,0.2736,0.2402,0.2013,0.1511,0.14,0.1177,0.0953,0.0953,0.0897,0.0841,0.0729,0.0617,0.0449,0.0168,-0.0112,-0.0561,-0.1009,-0.1403,-0.1459,-0.1684,-0.1852,-0.1797,-0.2075,-0.2185,-0.2463,-0.3073,-0.3849,-0.4462,-0.502,-0.5301,-0.5301,-0.5301,-0.546,-0.5675,-0.6102,-0.648,-0.7082,-0.7608,-0.8093,-0.8365,-0.8643,-0.8808,-0.8808,-0.8808,-0.8808,-0.8808,-0.8808,-0.8956,-0.9312,-0.9969,-1.0783,-1.151,-1.1927,-1.2076,-1.2076,-1.2076,-1.2318,-1.2706,-1.2852,-1.3084,-1.342,-1.3858,-1.3957,-1.4057,-1.4425,-1.4702,-1.4702,-1.4702,-1.4789,-1.488,-1.5034,-1.5194,-1.5216,-1.5238,-1.5283,-1.5418,-1.5507,-1.5647,-1.5836,-1.5881,-1.5919,-1.5963,-1.6082,-1.6287,-1.6625,-1.6886,-1.7005,-1.7124,-1.6913,-1.658,-1.6157,-1.566,-1.5198,-1.4755,-1.4602,-1.4627,-1.4672,-1.4752,-1.4672,-1.4624,-1.4543,-1.4599,0.4627,0.4462,0.4462,0.4462,0.4462,0.4462,0.4462,0.4462,0.4462,0.4462,0.4406,0.4016,0.3516,0.3015,0.2903,0.2569,0.2069,0.2013,0.179,0.1456,0.1177,0.1177,0.1121,0.1065,0.0841,0.0897,0.0561,0.0393,0.0112,-0.0449,-0.1009,-0.1122,-0.1628,-0.1797,-0.1797,-0.1852,-0.1964,-0.2296,-0.3296,-0.4072,-0.4515,-0.502,-0.5244,-0.5301,-0.5301,-0.5301,-0.5354,-0.5675,-0.6216,-0.6807,-0.7343,-0.783,-0.8315,-0.8583,-0.8692,-0.8695,-0.8695,-0.8745,-0.8748,-0.8801,-0.8956,-0.9413,-1.0127,-1.1292,-1.1819,-1.2076,-1.2076,-1.2076,-1.2224,-1.2328,-1.2529,-1.2666,-1.2987,-1.3271,-1.361,-1.3768,-1.3962,-1.4233,-1.4466,-1.4564,-1.4564,-1.4523,-1.4656,-1.4783,-1.488,-1.4971,-1.5017,-1.5017,-1.5153,-1.5283,-1.5463,-1.5697,-1.5792,-1.5875,-1.5994,-1.6032,-1.6157,-1.6275,-1.6539,-1.6801,-1.7047,-1.7081,-1.6949,-1.6448,-1.5899,-1.5384,-1.4919,-1.4721,-1.4511,-1.4356,-1.4278,-1.4413,-1.4395,-1.4326,-1.4314,0.4952,0.4462,0.4517,0.4517,0.4462,0.4462,0.4462,0.4462,0.4462,0.4462,0.4462,0.4405,0.4016,0.3681,0.3514,0.318,0.2624,0.2625,0.2514,0.2291,0.2014,0.1735,0.1568,0.1233,0.0953,0.0897,0.0729,0.0785,0.0617,-0.0056,-0.0617,-0.1122,-0.1572,-0.174,-0.1797,-0.1797,-0.2074,-0.2573,-0.3626,-0.4239,-0.4574,-0.4965,-0.5301,-0.5301,-0.5301,-0.5301,-0.5301,-0.546,-0.578,-0.6374,-0.6915,-0.7453,-0.794,-0.8309,-0.8418,-0.8527,-0.8633,-0.8633,-0.8636,-0.8794,-0.9312,-1.0226,-1.0986,-1.1551,-1.1859,-1.2022,-1.2076,-1.2076,-1.2229,-1.2278,-1.2417,-1.2598,-1.3021,-1.3213,-1.3462,-1.3658,-1.3805,-1.3894,-1.4129,-1.4326,-1.4378,-1.428,-1.443,-1.4605,-1.4645,-1.4737,-1.4783,-1.4789,-1.5017,-1.5153,-1.5334,-1.5519,-1.5659,-1.5824,-1.6151,-1.6194,-1.6113,-1.6262,-1.6465,-1.6831,-1.7199,-1.7205,-1.7105,-1.677,-1.6271,-1.566,-1.5066,-1.465,-1.4266,-1.3921,-1.3802,-1.4,-1.4119,-1.4106,-1.4173,0.5498,0.5007,0.5007,0.4789,0.4462,0.4462,0.4462,0.4462,0.4462,0.4462,0.4462,0.4462,0.4349,0.4184,0.4128,0.3849,0.3293,0.3235,0.3069,0.2736,0.2459,0.218,0.1846,0.1567,0.1288,0.1009,0.0897,0.0897,0.0785,0.0224,-0.0224,-0.0729,-0.1407,-0.174,-0.1797,-0.1852,-0.2184,-0.2738,-0.3515,-0.4072,-0.4574,-0.5022,-0.5301,-0.5301,-0.5301,-0.5301,-0.5354,-0.5677,-0.5941,-0.6263,-0.675,-0.7238,-0.7616,-0.7931,-0.8146,-0.8365,-0.8471,-0.8521,-0.8524,-0.8633,-0.8995,-0.9514,-1.0277,-1.0939,-1.1493,-1.1656,-1.1823,-1.1977,-1.2234,-1.2278,-1.2062,-1.2686,-1.3266,-1.3261,-1.3309,-1.3505,-1.3652,-1.3695,-1.3742,-1.3889,-1.3941,-1.3894,-1.4134,-1.4425,-1.4466,-1.4512,-1.4512,-1.4605,-1.4789,-1.4977,-1.5153,-1.5289,-1.5385,-1.5519,-1.5806,-1.5938,-1.6032,-1.6176,-1.6361,-1.6678,-1.697,-1.7229,-1.7124,-1.6865,-1.6592,-1.6022,-1.5332,-1.4579,-1.4154,-1.3973,-1.3768,-1.3608,-1.3731,-1.3919,-1.4173,0.6098,0.5605,0.5553,0.5171,0.4515,0.4462,0.4462,0.4462,0.4462,0.4462,0.4462,0.4462,0.4462,0.4462,0.4462,0.4296,0.3961,0.3849,0.3624,0.3347,0.307,0.2736,0.2401,0.2068,0.179,0.1289,0.1121,0.1177,0.0897,0.0393,0.0057,-0.0398,-0.1081,-0.1535,-0.1852,-0.2018,-0.2295,-0.2738,-0.3293,-0.3906,-0.4463,-0.4851,-0.5189,-0.5244,-0.5244,-0.5299,-0.5407,-0.5729,-0.6154,-0.6529,-0.6907,-0.7399,-0.7616,-0.783,-0.7934,-0.8156,-0.8371,-0.8421,-0.8421,-0.8784,-0.904,-0.9562,-1.0131,-1.0635,-1.0986,-1.1405,-1.1573,-1.1623,-1.1977,-1.2121,-1.176,-1.23,-1.2638,-1.2589,-1.2866,-1.3107,-1.3357,-1.3457,-1.3404,-1.3404,-1.3552,-1.3805,-1.38,-1.4093,-1.4285,-1.4326,-1.4466,-1.4512,-1.461,-1.4748,-1.484,-1.4977,-1.5114,-1.5244,-1.5373,-1.5463,-1.5591,-1.565,-1.584,-1.617,-1.6514,-1.6829,-1.7128,-1.704,-1.6741,-1.6263,-1.5873,-1.5465,-1.484,-1.4212,-1.3927,-1.3659,-1.394,-1.4188,-1.4488,0.6701,0.6209,0.6209,0.5555,0.4627,0.4519,0.4519,0.4517,0.4462,0.4462,0.4462,0.4462,0.4462,0.4462,0.4462,0.4406,0.4349,0.4349,0.4294,0.4127,0.3738,0.357,0.3235,0.2846,0.2292,0.1902,0.1623,0.1344,0.0897,0.0561,0.0285,-0.0058,-0.0757,-0.1446,-0.1804,-0.235,-0.2682,-0.2793,-0.3293,-0.3793,-0.4406,-0.4627,-0.4853,-0.5132,-0.5242,-0.5242,-0.535,-0.562,-0.6048,-0.6529,-0.6912,-0.7402,-0.7886,-0.7943,-0.7946,-0.7955,-0.8168,-0.8221,-0.8278,-0.9197,-0.9451,-0.9506,-0.9869,-1.0588,-1.1061,-1.1221,-1.1276,-1.1272,-1.1628,-1.1619,-1.1569,-1.1669,-1.2008,-1.2246,-1.257,-1.2672,-1.2876,-1.2677,-1.253,-1.272,-1.3367,-1.3873,-1.3673,-1.3716,-1.4004,-1.4197,-1.4332,-1.4425,-1.4425,-1.4518,-1.4662,-1.4702,-1.484,-1.4971,-1.5062,-1.5108,-1.5142,-1.5203,-1.5398,-1.581,-1.617,-1.6539,-1.6814,-1.7054,-1.6831,-1.6372,-1.6494,-1.6582,-1.5561,-1.4519,-1.4078,-1.3901,-1.4175,-1.4582,-1.5017,0.7297,0.681,0.681,0.6317,0.5607,0.5171,0.4844,0.4519,0.4462,0.4462,0.4462,0.4462,0.4462,0.4462,0.4462,0.4462,0.4462,0.4462,0.4462,0.4462,0.4237,0.3958,0.3624,0.3292,0.2737,0.2069,0.1734,0.1511,0.0897,0.0675,0.0515,0.0117,-0.0533,-0.1348,-0.1731,-0.2105,-0.224,-0.2625,-0.2957,-0.3404,-0.4349,-0.4462,-0.4629,-0.5073,-0.513,-0.513,-0.5183,-0.5399,-0.5775,-0.6263,-0.6596,-0.6918,-0.7456,-0.7619,-0.7681,-0.7848,-0.8065,-0.8224,-0.8271,-0.8679,-0.8784,-0.8939,-0.9298,-0.9972,-1.0083,-1.0435,-1.0651,-1.1074,-1.1377,-1.1423,-1.1427,-1.2098,-1.2428,-1.2428,-1.257,-1.229,-1.2201,-1.1656,-1.136,-1.1841,-1.2433,-1.3372,-1.3621,-1.352,-1.3763,-1.391,-1.4051,-1.4098,-1.4098,-1.4332,-1.4471,-1.4471,-1.4564,-1.4697,-1.4789,-1.4834,-1.5017,-1.5175,-1.5303,-1.5516,-1.5885,-1.6256,-1.641,-1.6587,-1.6572,-1.6532,-1.6501,-1.6323,-1.5581,-1.4822,-1.4536,-1.4375,-1.4536,-1.5166,-1.5866,0.7684,0.741,0.7357,0.7028,0.6482,0.5878,0.5279,0.4789,0.4572,0.4462,0.4462,0.4462,0.4462,0.4462,0.4462,0.4462,0.4462,0.4462,0.4462,0.4462,0.4462,0.4239,0.4016,0.3626,0.3015,0.2292,0.179,0.1455,0.0899,0.0909,0.0645,0.0181,-0.0361,-0.09,-0.1419,-0.179,-0.1962,-0.2294,-0.2463,-0.2795,-0.3516,-0.3847,-0.4068,-0.4515,-0.4796,-0.4798,-0.5013,-0.523,-0.5397,-0.5782,-0.6164,-0.6431,-0.7023,-0.7408,-0.7521,-0.7848,-0.8011,-0.8065,-0.8162,-0.8215,-0.8268,-0.8112,-0.858,-0.9253,-0.9777,-1.0293,-1.0502,-1.0816,-1.112,-1.1175,-1.1272,-1.2035,-1.2084,-1.2035,-1.2089,-1.181,-1.176,-1.1217,-1.1314,-1.1697,-1.2084,-1.2924,-1.3615,-1.3515,-1.352,-1.3621,-1.3721,-1.3768,-1.3863,-1.4145,-1.4378,-1.4378,-1.4378,-1.4512,-1.4558,-1.461,-1.4834,-1.5096,-1.5246,-1.5298,-1.5676,-1.604,-1.6077,-1.6262,-1.6604,-1.6725,-1.6328,-1.5919,-1.5593,-1.5421,-1.5325,-1.5175,-1.5046,-1.5543,-1.627,0.797,0.7964,0.7904,0.7574,0.7079,0.648,0.588,0.5334,0.4789,0.4625,0.4625,0.468,0.468,0.457,0.457,0.4517,0.4462,0.4462,0.4462,0.4462,0.4462,0.4408,0.4241,0.3906,0.3404,0.2737,0.218,0.1735,0.1013,0.0931,0.0669,0.0377,0.0187,-0.0432,-0.1026,-0.1462,-0.1757,-0.1912,-0.2019,-0.2407,-0.2904,-0.296,-0.3512,-0.4013,-0.4293,-0.4515,-0.4789,-0.5171,-0.5447,-0.5939,-0.6537,-0.6915,-0.7297,-0.7631,-0.7794,-0.7904,-0.7904,-0.7901,-0.7952,-0.8008,-0.8058,-0.8162,-0.8991,-0.9829,-1.0146,-1.0146,-1.0304,-1.0462,-1.0722,-1.0671,-1.0769,-1.0913,-1.1011,-1.1158,-1.141,-1.1414,-1.1565,-1.1565,-1.181,-1.2049,-1.2335,-1.2924,-1.3472,-1.3525,-1.3223,-1.352,-1.3663,-1.3752,-1.3847,-1.3999,-1.4233,-1.4321,-1.4368,-1.4373,-1.4419,-1.4471,-1.4697,-1.5011,-1.497,-1.5062,-1.5447,-1.588,-1.6046,-1.6336,-1.6899,-1.6921,-1.6424,-1.6192,-1.6098,-1.5979,-1.5942,-1.5768,-1.5588,-1.5726,-1.6318,0.888,0.8809,0.8189,0.7794,0.7574,0.7082,0.648,0.5937,0.5773,0.5719,0.5716,0.5716,0.5391,0.5115,0.5062,0.4844,0.4625,0.4462,0.4462,0.4517,0.4625,0.4517,0.4405,0.4293,0.3847,0.3293,0.2681,0.207,0.1589,0.1238,0.0988,0.0767,0.0511,-0.0,-0.0552,-0.1068,-0.1444,-0.1696,-0.1746,-0.2128,-0.2571,-0.2794,-0.3349,-0.3793,-0.4291,-0.4513,-0.4737,-0.4901,-0.5285,-0.6102,-0.632,-0.6699,-0.7681,-0.7848,-0.7904,-0.7904,-0.7904,-0.7904,-0.7904,-0.7904,-0.8008,-0.8318,-0.8998,-0.926,-0.9524,-0.9836,-1.0047,-1.0312,-1.0569,-1.0671,-1.0922,-1.1019,-1.1112,-1.136,-1.156,-1.1565,-1.1665,-1.1665,-1.1859,-1.1954,-1.2241,-1.2677,-1.3271,-1.3175,-1.2924,-1.3319,-1.3557,-1.3647,-1.3789,-1.3941,-1.4093,-1.4228,-1.4274,-1.428,-1.4373,-1.4419,-1.4651,-1.4863,-1.4942,-1.5159,-1.5648,-1.6009,-1.6077,-1.6318,-1.6693,-1.6669,-1.6417,-1.6308,-1.6316,-1.6491,-1.6488,-1.6303,-1.6194,-1.6265,-1.6344,0.9653,0.9257,0.8716,0.8264,0.7857,0.7571,0.7192,0.681,0.6428,0.6209,0.6209,0.6154,0.5991,0.566,0.5389,0.5119,0.4844,0.4846,0.4846,0.4899,0.5009,0.5007,0.4897,0.4565,0.4068,0.3569,0.307,0.2459,0.2046,0.1592,0.1297,0.0982,0.0717,0.0384,-0.0063,-0.0549,-0.1065,-0.1442,-0.17,-0.2078,-0.2464,-0.2799,-0.3186,-0.3745,-0.4298,-0.446,-0.4686,-0.4739,-0.5338,-0.6048,-0.61,-0.681,-0.7628,-0.7741,-0.7904,-0.7904,-0.7904,-0.7904,-0.7904,-0.7904,-0.8162,-0.8527,-0.884,-0.9305,-0.9673,-1.0039,-1.0205,-1.0419,-1.0667,-1.0918,-1.1217,-1.1464,-1.171,-1.195,-1.1904,-1.1864,-1.1814,-1.1719,-1.1714,-1.171,-1.2049,-1.2482,-1.2677,-1.2579,-1.2725,-1.3218,-1.3415,-1.3409,-1.3552,-1.3805,-1.3952,-1.4098,-1.4145,-1.4145,-1.4233,-1.4368,-1.4599,-1.4983,-1.5504,-1.5742,-1.6069,-1.6343,-1.6582,-1.6509,-1.6355,-1.6405,-1.6497,-1.6565,-1.6634,-1.6772,-1.6863,-1.6725,-1.659,-1.6584,-1.6693,1.0324,0.958,0.9425,0.8934,0.8161,0.8158,0.8089,0.7892,0.7017,0.6423,0.6426,0.6369,0.6426,0.6261,0.5878,0.5609,0.5445,0.5391,0.5389,0.5391,0.5719,0.5716,0.5332,0.4889,0.4725,0.3898,0.324,0.2857,0.2496,0.2003,0.1435,0.1133,0.0981,0.0705,0.0379,-0.0,-0.0418,-0.076,-0.1262,-0.1701,-0.2145,-0.2419,-0.269,-0.3482,-0.3806,-0.4015,-0.4513,-0.4897,-0.5332,-0.5771,-0.6317,-0.7025,-0.741,-0.7634,-0.7848,-0.7904,-0.7904,-0.7904,-0.7904,-0.7904,-0.8112,-0.8368,-0.8626,-0.9197,-0.9669,-1.0186,-1.0399,-1.0863,-1.1213,-1.1167,-1.1368,-1.1418,-1.161,-1.166,-1.156,-1.1714,-1.1814,-1.1909,-1.2201,-1.225,-1.2393,-1.2822,-1.2972,-1.2919,-1.2657,-1.3178,-1.3415,-1.3314,-1.3415,-1.371,-1.381,-1.3962,-1.401,-1.4051,-1.4145,-1.428,-1.4547,-1.4983,-1.5584,-1.6118,-1.6231,-1.665,-1.7164,-1.6954,-1.6656,-1.6699,-1.6791,-1.6863,-1.6892,-1.6928,-1.7025,-1.7002,-1.6989,-1.7012,-1.6892,1.1647,1.1368,1.0672,1.0099,0.9659,0.9645,0.9457,0.9155,0.8504,0.7877,0.7566,0.7461,0.7295,0.6966,0.6799,0.6475,0.6095,0.6093,0.5984,0.5987,0.6261,0.6317,0.6043,0.5767,0.5601,0.5269,0.451,0.3326,0.2603,0.2096,0.1612,0.1102,0.1032,0.0961,0.075,0.0425,0.0179,-0.0059,-0.0527,-0.1104,-0.1569,-0.2392,-0.3041,-0.3358,-0.3598,-0.4161,-0.465,-0.5016,-0.5502,-0.6043,-0.6699,-0.7246,-0.7735,-0.7845,-0.7901,-0.7904,-0.7904,-0.7904,-0.7904,-0.7901,-0.8055,-0.8318,-0.8633,-0.9099,-0.9618,-1.0226,-1.0787,-1.1301,-1.156,-1.1469,-1.1469,-1.1469,-1.1565,-1.1464,-1.1414,-1.166,-1.1859,-1.2152,-1.2589,-1.2735,-1.2827,-1.2924,-1.3074,-1.3034,-1.2859,-1.3022,-1.3389,-1.3515,-1.3515,-1.3663,-1.3716,-1.3815,-1.3863,-1.391,-1.4004,-1.4186,-1.4408,-1.4726,-1.5216,-1.5786,-1.6343,-1.6644,-1.6892,-1.7115,-1.708,-1.6911,-1.6918,-1.7177,-1.7212,-1.7192,-1.7275,-1.7337,-1.7467,-1.7495,-1.7247,1.2494,1.2022,1.1107,1.0583,1.0402,1.0254,1.0084,0.9815,0.9358,0.8991,0.8633,0.8418,0.8253,0.8081,0.7969,0.7489,0.7001,0.6948,0.6794,0.6694,0.675,0.6804,0.6696,0.6588,0.6263,0.5987,0.5281,0.4182,0.3037,0.2719,0.2488,0.1582,0.1463,0.1331,0.1108,0.0906,0.0772,0.0588,0.0238,-0.024,-0.0842,-0.1833,-0.2935,-0.326,-0.377,-0.4282,-0.4738,-0.5056,-0.5454,-0.5911,-0.6315,-0.6918,-0.73,-0.7464,-0.7687,-0.7851,-0.7904,-0.7904,-0.7904,-0.7955,-0.8055,-0.8424,-0.8738,-0.926,-1.034,-1.0901,-1.0753,-1.1217,-1.1418,-1.1377,-1.181,-1.1904,-1.2344,-1.2491,-1.2486,-1.2633,-1.2143,-1.1801,-1.195,-1.1954,-1.195,-1.1801,-1.195,-1.2147,-1.2195,-1.3137,-1.3481,-1.3472,-1.352,-1.3615,-1.3668,-1.3721,-1.3721,-1.3768,-1.3915,-1.4046,-1.4222,-1.4542,-1.4954,-1.5445,-1.5982,-1.6281,-1.6539,-1.6674,-1.6765,-1.682,-1.6911,-1.7086,-1.7378,-1.7358,-1.7529,-1.7672,-1.7801,-1.7801,-1.7549,1.3071,1.2208,1.1399,1.1069,1.0982,1.0671,1.05,1.0348,0.9911,0.9773,0.9769,0.9249,0.9298,0.9287,0.9065,0.8583,0.8162,0.796,0.7655,0.756,0.7678,0.7461,0.73,0.7192,0.6866,0.6428,0.5828,0.5181,0.4433,0.3987,0.3285,0.2337,0.2053,0.1948,0.1609,0.1284,0.1086,0.1151,0.0918,0.0496,-0.0248,-0.1174,-0.2214,-0.3013,-0.3623,-0.3928,-0.444,-0.4948,-0.5216,-0.5575,-0.5875,-0.648,-0.681,-0.6972,-0.7303,-0.7521,-0.7684,-0.7738,-0.7845,-0.7904,-0.8265,-0.8682,-0.9001,-0.9621,-1.0647,-1.0909,-1.071,-1.0972,-1.1175,-1.1569,-1.1999,-1.2295,-1.2735,-1.3094,-1.3137,-1.2972,-1.2138,-1.1501,-1.151,-1.1414,-1.1318,-1.1116,-1.1217,-1.1418,-1.2049,-1.2998,-1.3382,-1.337,-1.3425,-1.352,-1.3615,-1.3668,-1.3668,-1.3721,-1.3868,-1.3957,-1.4129,-1.4628,-1.504,-1.535,-1.5617,-1.5964,-1.6139,-1.6051,-1.6145,-1.6374,-1.6601,-1.6778,-1.7067,-1.7269,-1.7413,-1.7461,-1.7618,-1.7659,-1.77,1.3721,1.3207,1.3007,1.2827,1.253,1.2166,1.1785,1.1366,1.0625,1.0502,1.0675,1.0352,0.9984,0.9618,0.9506,0.9287,0.9124,0.8866,0.8662,0.8514,0.8156,0.7895,0.7738,0.7628,0.7413,0.7028,0.6586,0.6171,0.5441,0.4829,0.4185,0.3424,0.2378,0.2295,0.2518,0.2191,0.1882,0.191,0.1453,0.0962,0.0451,-0.0319,-0.1003,-0.1747,-0.2425,-0.2785,-0.3312,-0.4152,-0.4522,-0.494,-0.5546,-0.6043,-0.6372,-0.6537,-0.6864,-0.7357,-0.7521,-0.7631,-0.7794,-0.7904,-0.8268,-0.8368,-0.8629,-0.9044,-0.9762,-1.0123,-1.0237,-1.0816,-1.1167,-1.1751,-1.2138,-1.1999,-1.23,-1.248,-1.2543,-1.2062,-1.1355,-1.1456,-1.161,-1.1615,-1.1565,-1.1514,-1.1514,-1.1782,-1.2131,-1.2797,-1.2905,-1.3012,-1.3458,-1.3572,-1.3568,-1.3615,-1.3615,-1.3952,-1.4197,-1.3957,-1.4134,-1.4674,-1.5124,-1.5355,-1.5579,-1.575,-1.5838,-1.5706,-1.5794,-1.5976,-1.6201,-1.6337,-1.6546,-1.6752,-1.6989,-1.7128,-1.7323,-1.7441,-1.7441]},{"header":{"parameterUnit":"m.s-1","parameterCategory":1,"la1":31.0,"la2":29.5877,"lo1":-88.7671,"lo2":-86.6584,"dy":0.0162,"dx":0.0185,"nx":115,"ny":88,"refTime":"2024-07-29T06:00:00:Z","depth":0,"parameterNumber":3,"parameterNumberName":"V-component_of_WINDS"},"data":[0.0,0.0,0.0,0.0,0.0,0.0,0.0,0.0,0.0,0.0,0.0,0.0,0.0,0.0,0.0,0.0,0.0,0.0,0.0,0.0,0.0,0.0,0.0,0.0,0.0,0.0,0.0,0.0,0.0,0.0,0.0,0.0,0.0,0.0,0.0,0.0,0.0,0.0,0.0,0.0,0.0,0.0,0.0,0.0,0.0,0.0,0.0,0.0,0.0,0.0,0.0,0.0,0.0,0.0,0.0,0.0,0.0,0.0,0.0,0.0,0.0,0.0,0.0,0.0,0.0,0.0,0.0,0.0,0.0,0.0,0.0,0.0,0.0,0.0,0.0,0.0,0.0,0.0,0.0,0.0,0.0,0.0,0.0,0.0,0.0,0.0,0.0,0.0,0.0,0.0,0.0,0.0,0.0,0.0,0.0,0.0,0.0,0.0,0.0,0.0,0.0,0.0,0.0,0.0,0.0,0.0,0.0,0.0,0.0,0.0,0.0,0.0,0.0,0.0,0.0,0.0,0.0,0.0,0.0,0.0,0.0,0.0,0.0,0.0,0.0,0.0,0.0,0.0,0.0,0.0,0.0,0.0,0.0,0.0,0.0,0.0,0.0,0.0,0.0,0.0,0.0,0.0,0.0,0.0,0.0,0.0,0.0,0.0,0.0,0.0,0.0,0.0,0.0,0.0,0.0,0.0,0.0,0.0,0.0,0.0,0.0,0.0,0.0,0.0,0.0,0.0,0.0,0.0,0.0,0.0,0.0,0.0,0.0,0.0,0.0,0.0,0.0,0.0,0.0,0.0,0.0,0.0,0.0,0.0,0.0,0.0,0.0,0.0,0.0,0.0,0.0,0.0,0.0,0.0,0.0,0.0,0.0,0.0,0.0,0.0,0.0,0.0,0.0,0.0,0.0,0.0,0.0,0.0,0.0,0.0,0.0,0.0,0.0,0.0,0.0,0.0,0.0,0.0,0.0,0.0,0.0,0.0,0.0,0.0,0.0,0.0,0.0,0.0,0.0,0.0,0.0,0.0,0.0,0.0,0.0,0.0,0.0,0.0,0.0,0.0,0.0,0.0,0.0,0.0,0.0,0.0,0.0,0.0,0.0,0.0,0.0,0.0,0.0,0.0,0.0,0.0,0.0,0.0,0.0,0.0,0.0,0.0,0.0,0.0,0.0,0.0,0.0,0.0,0.0,0.0,0.0,0.0,0.0,0.0,0.0,0.0,0.0,0.0,0.0,0.0,0.0,0.0,0.0,0.0,0.0,0.0,0.0,0.0,0.0,0.0,0.0,0.0,0.0,0.0,0.0,0.0,0.0,0.0,0.0,0.0,0.0,0.0,0.0,0.0,0.0,0.0,0.0,0.0,0.0,0.0,0.0,0.0,0.0,0.0,0.0,0.0,0.0,0.0,0.0,0.0,0.0,0.0,0.0,0.0,0.0,0.0,0.0,0.0,0.0,0.0,0.0,0.0,0.0,0.0,0.0,0.0,0.0,0.0,0.0,0.0,0.0,0.0,0.0,0.0,0.0,0.0,0.0,0.0,0.0,0.0,0.0,0.0,0.0,0.0,0.0,0.0,0.0,0.0,0.0,0.0,0.0,0.0,0.0,0.0,0.0,0.0,0.0,0.0,0.0,0.0,0.0,0.0,0.0,0.0,0.0,0.0,0.0,0.0,0.0,0.0,0.0,0.0,0.0,0.0,0.0,0.0,0.0,0.0,0.0,0.0,0.0,0.0,0.0,0.0,0.0,0.0,0.0,0.0,0.0,0.0,0.0,0.0,0.0,0.0,0.0,0.0,0.0,0.0,0.0,0.0,0.0,0.0,0.0,0.0,0.0,0.0,0.0,0.0,0.0,0.0,0.0,0.0,0.0,0.0,0.0,0.0,0.0,0.0,0.0,0.0,0.0,0.0,0.0,0.0,0.0,0.0,0.0,0.0,0.0,0.0,0.0,0.0,0.0,0.0,0.0,0.0,0.0,0.0,0.0,0.0,0.0,0.0,0.0,0.0,0.0,0.0,0.0,0.0,0.0,0.0,0.0,0.0,0.0,0.0,0.0,0.0,0.0,0.0,0.0,0.0,0.0,0.0,0.0,0.0,0.0,0.0,0.0,0.0,0.0,0.0,0.0,0.0,0.0,0.0,0.0,0.0,0.0,0.0,0.0,0.0,0.0,0.0,0.0,0.0,0.0,0.0,0.0,0.0,0.0,0.0,0.0,0.0,0.0,0.0,0.0,0.0,0.0,0.0,0.0,0.0,0.0,0.0,0.0,0.0,0.0,0.0,0.0,0.0,0.0,0.0,0.0,0.0,0.0,0.0,0.0,0.0,0.0,0.0,0.0,0.0,0.0,0.0,0.0,0.0,0.0,0.0,0.0,0.0,0.0,0.0,0.0,0.0,0.0,0.0,0.0,0.0,0.0,0.0,0.0,0.0,0.0,0.0,0.0,0.0,0.0,0.0,0.0,0.0,0.0,0.0,0.0,0.0,0.0,0.0,0.0,0.0,0.0,0.0,0.0,0.0,0.0,0.0,0.0,0.0,0.0,0.0,0.0,0.0,0.0,0.0,0.0,0.0,0.0,0.0,0.0,0.0,0.0,0.0,0.0,0.0,0.0,0.0,0.0,0.0,0.0,0.0,0.0,0.0,0.0,0.0,0.0,0.0,0.0,0.0,0.0,0.0,0.0,0.0,0.0,0.0,0.0,0.0,0.0,0.0,0.0,0.0,0.0,0.0,0.0,0.0,0.0,0.0,0.0,0.0,0.0,0.0,0.0,0.0,0.0,0.0,0.0,0.0,0.0,0.0,0.0,0.0,0.0,0.0,0.0,0.0,0.0,0.0,0.0,0.0,0.0,0.0,0.0,0.0,0.0,0.0,0.0,0.0,0.0,0.0,0.0,0.0,0.0,0.0,0.0,0.0,0.0,0.0,0.0,0.0,0.0,0.0,0.0,0.0,0.0,0.0,0.0,0.0,0.0,0.0,0.0,0.0,0.0,0.0,0.0,0.0,0.0,0.0,0.0,0.0,0.0,0.0,0.0,0.0,0.0,0.0,0.0,0.0,0.0,0.0,0.0,0.0,0.0,0.0,0.0,0.0,0.0,0.0,0.0,0.0,0.0,0.0,0.0,0.0,0.0,0.0,0.0,0.0,0.0,0.0,0.0,0.0,0.0,0.0,0.0,0.0,0.0,0.0,0.0,0.0,0.0,0.0,0.0,0.0,0.0,0.0,0.0,0.0,0.0,0.0,0.0,0.0,0.0,0.0,0.0,0.0,0.0,0.0,0.0,0.0,0.0,0.0,0.0,0.0,0.0,0.0,0.0,0.0,0.0,0.0,0.0,0.0,0.0,0.0,0.0,0.0,0.0,0.0,0.0,0.0,0.0,0.0,0.0,0.0,0.0,0.0,0.0,0.0,0.0,0.0,0.0,0.0,0.0,0.0,0.0,0.0,0.0,0.0,0.0,0.0,0.0,0.0,0.0,0.0,0.0,0.0,0.0,0.0,0.0,0.0,0.0,0.0,0.0,0.0,0.0,0.0,0.0,0.0,0.0,0.0,0.0,0.0,0.0,0.0,0.0,0.0,0.0,0.0,0.0,0.0,0.0,0.0,0.0,0.0,0.0,0.0,0.0,0.0,0.0,0.0,0.0,0.0,0.0,0.0,0.0,0.0,0.0,0.0,0.0,0.0,0.0,0.0,0.0,0.0,0.0,0.0,0.0,0.0,0.0,0.0,0.0,0.0,0.0,0.0,0.0,0.0,0.0,0.0,0.0,0.0,0.0,0.0,0.0,0.0,0.0,0.0,0.0,0.0,0.0,0.0,0.0,0.0,0.0,0.0,0.0,0.0,0.0,0.0,0.0,0.0,0.0,0.0,0.0,0.0,0.0,0.0,0.0,0.0,0.0,0.0,0.0,0.0,0.0,0.0,0.0,0.0,0.0,0.0,0.0,0.0,0.0,0.0,0.0,0.0,0.0,0.0,0.0,0.0,0.0,0.0,0.0,0.0,0.0,0.0,0.0,0.0,0.0,0.0,0.0,0.0,0.0,0.0,0.0,0.0,0.0,0.0,0.0,0.0,0.0,0.0,0.0,0.0,0.0,0.0,0.0,0.0,0.0,0.0,0.0,0.0,0.0,0.0,0.0,0.0,0.0,0.0,0.0,0.0,0.0,0.0,0.0,0.0,0.0,0.0,0.0,0.0,0.0,0.0,0.0,0.0,0.0,0.0,0.0,0.0,0.0,0.0,0.0,0.0,0.0,0.0,0.0,0.0,-1.8887,0.0,0.0,0.0,0.0,0.0,0.0,0.0,0.0,0.0,0.0,0.0,0.0,0.0,0.0,0.0,0.0,0.0,0.0,0.0,0.0,0.0,0.0,0.0,0.0,0.0,0.0,0.0,0.0,0.0,0.0,0.0,0.0,0.0,0.0,0.0,0.0,0.0,0.0,0.0,0.0,0.0,0.0,0.0,0.0,0.0,0.0,0.0,0.0,0.0,0.0,0.0,0.0,0.0,0.0,0.0,0.0,0.0,0.0,0.0,0.0,0.0,0.0,0.0,0.0,0.0,0.0,0.0,0.0,0.0,0.0,0.0,0.0,0.0,0.0,0.0,0.0,0.0,0.0,0.0,0.0,0.0,0.0,0.0,0.0,0.0,0.0,0.0,0.0,0.0,0.0,0.0,0.0,0.0,0.0,0.0,0.0,0.0,0.0,0.0,0.0,0.0,0.0,0.0,0.0,0.0,0.0,0.0,0.0,0.0,0.0,-2.0819,-1.9399,-1.9739,-1.9502,-1.8631,0.0,0.0,0.0,0.0,0.0,0.0,0.0,0.0,0.0,0.0,0.0,0.0,0.0,0.0,0.0,0.0,0.0,0.0,0.0,0.0,0.0,0.0,0.0,0.0,0.0,0.0,0.0,0.0,0.0,0.0,0.0,0.0,0.0,0.0,0.0,0.0,0.0,0.0,0.0,0.0,0.0,0.0,0.0,0.0,0.0,0.0,0.0,0.0,0.0,0.0,0.0,0.0,0.0,0.0,0.0,0.0,0.0,0.0,0.0,0.0,0.0,0.0,0.0,0.0,0.0,0.0,0.0,0.0,0.0,0.0,0.0,0.0,0.0,0.0,0.0,0.0,0.0,0.0,0.0,0.0,0.0,0.0,0.0,0.0,0.0,0.0,0.0,0.0,0.0,0.0,0.0,0.0,0.0,0.0,0.0,0.0,0.0,0.0,0.0,0.0,0.0,0.0,0.0,0.0,0.0,0.0,0.0,0.0,0.0,0.0,0.0,0.0,-1.9094,-1.9009,-1.845,0.0,0.0,0.0,0.0,0.0,0.0,0.0,0.0,0.0,0.0,0.0,0.0,0.0,0.0,0.0,0.0,0.0,0.0,0.0,0.0,0.0,0.0,0.0,0.0,0.0,0.0,0.0,0.0,0.0,0.0,0.0,0.0,0.0,0.0,0.0,0.0,0.0,0.0,0.0,0.0,0.0,0.0,0.0,0.0,0.0,0.0,0.0,0.0,0.0,0.0,0.0,0.0,0.0,0.0,0.0,0.0,0.0,0.0,0.0,0.0,0.0,0.0,0.0,0.0,0.0,0.0,0.0,0.0,0.0,0.0,0.0,0.0,0.0,0.0,0.0,0.0,0.0,0.0,0.0,0.0,0.0,0.0,0.0,0.0,0.0,0.0,0.0,0.0,0.0,0.0,0.0,0.0,0.0,0.0,0.0,0.0,0.0,0.0,0.0,0.0,0.0,0.0,0.0,0.0,0.0,0.0,0.0,0.0,0.0,0.0,-1.8527,-1.8369,-1.9125,0.0,-1.847,0.0,0.0,0.0,0.0,0.0,0.0,0.0,0.0,0.0,0.0,0.0,0.0,0.0,0.0,0.0,0.0,0.0,0.0,0.0,0.0,0.0,0.0,0.0,0.0,0.0,0.0,0.0,0.0,0.0,0.0,0.0,0.0,0.0,0.0,0.0,0.0,0.0,0.0,0.0,0.0,0.0,0.0,0.0,0.0,0.0,0.0,0.0,0.0,0.0,0.0,0.0,0.0,0.0,0.0,0.0,0.0,0.0,0.0,0.0,0.0,0.0,0.0,0.0,0.0,0.0,0.0,0.0,0.0,0.0,0.0,0.0,0.0,0.0,0.0,0.0,0.0,0.0,0.0,0.0,0.0,0.0,0.0,0.0,0.0,0.0,0.0,0.0,0.0,0.0,0.0,0.0,0.0,0.0,0.0,0.0,0.0,0.0,0.0,0.0,0.0,0.0,0.0,0.0,0.0,0.0,0.0,0.0,0.0,0.0,0.0,-1.7995,-1.7666,-1.7989,-1.7804,0.0,0.0,0.0,0.0,0.0,0.0,0.0,0.0,0.0,0.0,0.0,0.0,0.0,0.0,0.0,0.0,0.0,0.0,0.0,0.0,0.0,0.0,0.0,0.0,0.0,0.0,0.0,0.0,0.0,0.0,0.0,0.0,0.0,0.0,0.0,0.0,0.0,0.0,0.0,0.0,0.0,0.0,0.0,0.0,0.0,0.0,0.0,0.0,0.0,0.0,0.0,0.0,0.0,0.0,0.0,0.0,0.0,0.0,0.0,0.0,0.0,0.0,0.0,0.0,0.0,0.0,0.0,0.0,0.0,0.0,0.0,0.0,0.0,0.0,0.0,0.0,0.0,0.0,0.0,0.0,0.0,0.0,0.0,0.0,0.0,0.0,0.0,0.0,0.0,0.0,0.0,0.0,0.0,0.0,0.0,0.0,0.0,0.0,0.0,0.0,0.0,0.0,0.0,0.0,0.0,0.0,0.0,0.0,0.0,0.0,-1.7456,-1.7616,-1.7505,-1.7526,-1.7117,-1.617,0.0,0.0,0.0,0.0,0.0,0.0,0.0,0.0,0.0,0.0,0.0,0.0,0.0,0.0,0.0,0.0,0.0,0.0,0.0,0.0,0.0,0.0,0.0,0.0,0.0,0.0,0.0,0.0,0.0,0.0,0.0,0.0,0.0,0.0,0.0,0.0,0.0,0.0,0.0,0.0,0.0,0.0,0.0,0.0,0.0,0.0,0.0,0.0,0.0,0.0,0.0,0.0,0.0,0.0,0.0,0.0,0.0,0.0,0.0,0.0,0.0,0.0,0.0,0.0,0.0,0.0,0.0,0.0,0.0,0.0,0.0,0.0,0.0,0.0,0.0,0.0,0.0,0.0,0.0,0.0,0.0,0.0,0.0,0.0,0.0,0.0,0.0,0.0,0.0,0.0,0.0,0.0,0.0,0.0,0.0,0.0,0.0,0.0,0.0,0.0,0.0,0.0,0.0,0.0,0.0,0.0,0.0,0.0,-1.8015,-1.7296,-1.7304,-1.8184,-1.8298,-1.7744,0.0,0.0,0.0,0.0,0.0,0.0,0.0,0.0,0.0,0.0,0.0,0.0,0.0,0.0,0.0,0.0,0.0,0.0,0.0,0.0,0.0,0.0,0.0,0.0,0.0,0.0,0.0,0.0,0.0,0.0,0.0,0.0,0.0,0.0,0.0,0.0,0.0,0.0,0.0,0.0,0.0,0.0,0.0,0.0,0.0,0.0,0.0,0.0,0.0,0.0,0.0,0.0,0.0,0.0,0.0,0.0,0.0,0.0,0.0,0.0,0.0,0.0,0.0,0.0,0.0,0.0,0.0,0.0,0.0,0.0,0.0,0.0,0.0,0.0,0.0,0.0,0.0,0.0,0.0,0.0,0.0,0.0,0.0,0.0,0.0,0.0,0.0,0.0,0.0,0.0,0.0,0.0,0.0,0.0,0.0,0.0,0.0,0.0,0.0,0.0,0.0,0.0,0.0,0.0,0.0,0.0,0.0,0.0,0.0,-1.6711,-1.6637,-1.7188,-1.8331,-1.708,-1.6308,0.0,0.0,0.0,0.0,0.0,0.0,0.0,0.0,0.0,0.0,0.0,0.0,0.0,0.0,0.0,0.0,0.0,0.0,0.0,0.0,0.0,0.0,0.0,0.0,0.0,0.0,0.0,0.0,0.0,0.0,0.0,0.0,0.0,0.0,0.0,0.0,0.0,0.0,0.0,0.0,0.0,0.0,0.0,0.0,0.0,0.0,0.0,0.0,0.0,0.0,0.0,0.0,0.0,0.0,0.0,0.0,0.0,0.0,0.0,0.0,0.0,0.0,0.0,0.0,0.0,0.0,0.0,0.0,0.0,0.0,0.0,0.0,0.0,0.0,0.0,0.0,0.0,0.0,0.0,0.0,0.0,0.0,0.0,0.0,0.0,0.0,0.0,0.0,0.0,0.0,0.0,0.0,0.0,0.0,0.0,0.0,0.0,0.0,0.0,0.0,0.0,0.0,0.0,0.0,0.0,0.0,0.0,0.0,0.0,-1.6285,0.0,-1.7226,-1.7932,-1.6652,-1.578,0.0,0.0,0.0,0.0,0.0,0.0,0.0,0.0,0.0,0.0,0.0,0.0,0.0,0.0,0.0,0.0,0.0,0.0,0.0,0.0,0.0,0.0,0.0,0.0,0.0,0.0,0.0,0.0,0.0,0.0,0.0,0.0,0.0,0.0,0.0,0.0,0.0,0.0,0.0,0.0,0.0,0.0,0.0,0.0,0.0,0.0,0.0,0.0,0.0,0.0,0.0,0.0,0.0,0.0,0.0,0.0,0.0,0.0,0.0,0.0,0.0,0.0,0.0,0.0,0.0,0.0,0.0,0.0,0.0,0.0,0.0,0.0,0.0,0.0,0.0,0.0,0.0,0.0,0.0,0.0,0.0,0.0,0.0,0.0,0.0,0.0,0.0,0.0,0.0,0.0,0.0,0.0,0.0,0.0,0.0,0.0,0.0,0.0,0.0,0.0,0.0,0.0,0.0,0.0,0.0,0.0,0.0,0.0,-1.6254,-1.6944,-1.7348,-1.7369,-1.7031,-1.7169,-1.6323,0.0,0.0,0.0,0.0,0.0,0.0,0.0,0.0,0.0,0.0,0.0,0.0,0.0,0.0,0.0,0.0,0.0,0.0,0.0,0.0,0.0,0.0,0.0,0.0,0.0,0.0,0.0,0.0,0.0,0.0,0.0,0.0,0.0,0.0,0.0,0.0,0.0,0.0,0.0,0.0,0.0,0.0,0.0,0.0,0.0,0.0,0.0,0.0,0.0,0.0,0.0,0.0,0.0,0.0,0.0,0.0,0.0,0.0,0.0,0.0,0.0,0.0,0.0,0.0,0.0,0.0,0.0,0.0,0.0,0.0,0.0,0.0,0.0,0.0,0.0,0.0,0.0,0.0,0.0,0.0,0.0,0.0,0.0,0.0,0.0,0.0,0.0,0.0,0.0,0.0,0.0,0.0,0.0,0.0,0.0,0.0,0.0,0.0,0.0,0.0,0.0,0.0,0.0,0.0,0.0,0.0,0.0,0.0,0.0,-1.639,-1.6781,-1.6916,-1.6795,-1.6164,-1.5562,0.0,0.0,0.0,0.0,0.0,0.0,0.0,0.0,0.0,0.0,0.0,0.0,0.0,0.0,0.0,0.0,0.0,0.0,0.0,0.0,0.0,0.0,0.0,0.0,0.0,0.0,0.0,0.0,0.0,0.0,0.0,0.0,0.0,0.0,0.0,0.0,0.0,0.0,0.0,0.0,0.0,0.0,0.0,0.0,0.0,0.0,0.0,0.0,0.0,0.0,0.0,0.0,0.0,0.0,0.0,0.0,0.0,0.0,0.0,0.0,0.0,0.0,0.0,0.0,0.0,0.0,0.0,0.0,0.0,0.0,0.0,0.0,0.0,0.0,0.0,0.0,0.0,0.0,0.0,0.0,0.0,0.0,0.0,0.0,0.0,0.0,0.0,0.0,0.0,0.0,0.0,0.0,0.0,0.0,0.0,0.0,0.0,0.0,0.0,0.0,0.0,0.0,0.0,0.0,0.0,0.0,0.0,0.0,0.0,-1.6195,-1.6726,-1.6916,-1.6691,-1.5923,-1.5446,-1.5404,0.0,0.0,0.0,0.0,0.0,0.0,0.0,0.0,0.0,0.0,0.0,0.0,0.0,0.0,0.0,0.0,0.0,0.0,0.0,0.0,0.0,0.0,0.0,0.0,0.0,0.0,0.0,0.0,0.0,0.0,0.0,0.0,0.0,0.0,0.0,0.0,0.0,0.0,0.0,0.0,0.0,0.0,0.0,0.0,0.0,0.0,0.0,0.0,0.0,0.0,0.0,0.0,0.0,0.0,0.0,0.0,0.0,0.0,0.0,0.0,0.0,0.0,0.0,0.0,0.0,0.0,0.0,0.0,0.0,0.0,0.0,0.0,0.0,0.0,0.0,0.0,0.0,0.0,0.0,0.0,0.0,0.0,0.0,0.0,0.0,0.0,0.0,0.0,0.0,0.0,0.0,0.0,0.0,0.0,0.0,0.0,0.0,0.0,0.0,0.0,0.0,0.0,0.0,0.0,0.0,0.0,0.0,0.0,-1.6218,-1.7037,-1.7124,-1.6628,-1.6275,-1.5918,0.0,0.0,0.0,0.0,0.0,0.0,0.0,0.0,0.0,0.0,0.0,0.0,0.0,0.0,0.0,0.0,0.0,0.0,0.0,0.0,0.0,0.0,0.0,0.0,0.0,0.0,0.0,0.0,0.0,0.0,0.0,0.0,0.0,0.0,0.0,0.0,0.0,0.0,0.0,0.0,0.0,0.0,0.0,0.0,0.0,0.0,0.0,0.0,0.0,0.0,0.0,0.0,0.0,0.0,0.0,0.0,0.0,0.0,0.0,0.0,0.0,0.0,0.0,0.0,0.0,0.0,0.0,0.0,0.0,0.0,0.0,0.0,0.0,0.0,0.0,0.0,0.0,0.0,0.0,0.0,0.0,0.0,0.0,0.0,0.0,0.0,0.0,0.0,0.0,0.0,0.0,0.0,0.0,0.0,0.0,0.0,0.0,0.0,0.0,0.0,0.0,0.0,0.0,0.0,0.0,0.0,0.0,0.0,0.0,-1.5572,-1.55,-1.5498,-1.5606,-1.6201,-1.6217,0.0,0.0,0.0,0.0,0.0,0.0,0.0,0.0,0.0,0.0,0.0,0.0,0.0,0.0,0.0,0.0,0.0,0.0,0.0,0.0,0.0,0.0,0.0,0.0,0.0,0.0,0.0,0.0,0.0,0.0,0.0,0.0,0.0,0.0,0.0,0.0,0.0,0.0,0.0,0.0,0.0,0.0,0.0,0.0,0.0,0.0,0.0,0.0,0.0,0.0,0.0,0.0,0.0,0.0,0.0,0.0,0.0,0.0,0.0,0.0,0.0,0.0,0.0,0.0,0.0,0.0,0.0,0.0,0.0,0.0,0.0,0.0,0.0,0.0,0.0,0.0,0.0,0.0,0.0,0.0,0.0,0.0,0.0,0.0,0.0,0.0,0.0,0.0,0.0,0.0,0.0,0.0,0.0,0.0,0.0,0.0,0.0,0.0,0.0,0.0,0.0,0.0,0.0,0.0,0.0,0.0,0.0,0.0,-1.5102,-1.4935,-1.455,-1.4444,-1.4553,-1.5284,-1.5698,0.0,0.0,0.0,0.0,0.0,0.0,0.0,0.0,0.0,0.0,0.0,0.0,0.0,0.0,0.0,0.0,0.0,0.0,0.0,0.0,0.0,0.0,0.0,0.0,0.0,0.0,0.0,0.0,0.0,0.0,0.0,0.0,0.0,0.0,0.0,0.0,0.0,0.0,0.0,0.0,0.0,0.0,0.0,0.0,0.0,0.0,0.0,0.0,0.0,0.0,0.0,0.0,0.0,0.0,0.0,0.0,0.0,0.0,0.0,0.0,0.0,0.0,0.0,0.0,0.0,0.0,0.0,0.0,0.0,0.0,0.0,0.0,0.0,0.0,0.0,0.0,0.0,0.0,0.0,0.0,0.0,0.0,0.0,0.0,0.0,0.0,0.0,0.0,0.0,0.0,0.0,0.0,0.0,0.0,0.0,0.0,0.0,0.0,0.0,0.0,0.0,0.0,0.0,0.0,0.0,0.0,0.0,0.0,-1.4582,-1.442,-1.3995,-1.3769,-1.3749,-1.4139,-1.496,0.0,0.0,0.0,0.0,0.0,0.0,0.0,0.0,0.0,0.0,0.0,0.0,0.0,0.0,0.0,0.0,0.0,0.0,0.0,0.0,0.0,0.0,0.0,0.0,0.0,0.0,0.0,0.0,0.0,0.0,0.0,0.0,0.0,0.0,0.0,0.0,0.0,0.0,0.0,0.0,0.0,0.0,0.0,0.0,0.0,0.0,0.0,0.0,0.0,0.0,0.0,0.0,0.0,0.0,0.0,0.0,0.0,0.0,0.0,0.0,0.0,0.0,0.0,0.0,0.0,0.0,0.0,0.0,0.0,0.0,0.0,0.0,0.0,0.0,0.0,0.0,0.0,0.0,0.0,0.0,0.0,0.0,0.0,0.0,0.0,0.0,0.0,0.0,0.0,0.0,0.0,0.0,0.0,0.0,0.0,0.0,0.0,0.0,0.0,0.0,0.0,0.0,0.0,0.0,0.0,0.0,0.0,0.0,-1.4444,-1.4391,-1.349,-1.3304,-1.3828,-1.4681,-1.5506,0.0,0.0,0.0,0.0,0.0,0.0,0.0,0.0,0.0,0.0,0.0,0.0,0.0,0.0,0.0,0.0,0.0,0.0,0.0,0.0,0.0,0.0,0.0,0.0,0.0,0.0,0.0,0.0,0.0,0.0,0.0,0.0,0.0,0.0,0.0,0.0,0.0,0.0,0.0,0.0,0.0,0.0,0.0,0.0,0.0,0.0,0.0,0.0,-1.4566,0.0,0.0,0.0,0.0,0.0,0.0,0.0,0.0,0.0,0.0,0.0,0.0,0.0,0.0,0.0,0.0,0.0,0.0,0.0,0.0,0.0,0.0,0.0,0.0,0.0,0.0,0.0,0.0,0.0,0.0,0.0,0.0,0.0,0.0,0.0,0.0,0.0,0.0,0.0,0.0,0.0,0.0,0.0,0.0,0.0,0.0,0.0,0.0,0.0,0.0,0.0,0.0,0.0,0.0,0.0,0.0,0.0,0.0,0.0,-1.4254,-1.3701,-1.3329,-1.3412,-1.3941,-1.4617,-1.5283,0.0,0.0,0.0,0.0,0.0,0.0,0.0,0.0,0.0,0.0,0.0,0.0,0.0,0.0,0.0,0.0,0.0,0.0,0.0,0.0,0.0,0.0,0.0,0.0,0.0,0.0,0.0,0.0,0.0,0.0,0.0,0.0,0.0,0.0,0.0,0.0,0.0,0.0,0.0,0.0,0.0,0.0,0.0,0.0,0.0,0.0,0.0,0.0,0.0,0.0,0.0,0.0,0.0,0.0,0.0,0.0,0.0,0.0,0.0,0.0,0.0,0.0,0.0,0.0,0.0,0.0,0.0,0.0,0.0,0.0,0.0,0.0,0.0,0.0,0.0,0.0,0.0,0.0,0.0,0.0,0.0,0.0,0.0,0.0,0.0,0.0,0.0,0.0,0.0,0.0,0.0,0.0,0.0,0.0,0.0,0.0,0.0,0.0,0.0,0.0,0.0,0.0,0.0,0.0,0.0,0.0,0.0,-1.3913,-1.3969,-1.2986,-1.331,-1.3721,-1.4159,-1.4543,-1.5,-1.5481,0.0,0.0,0.0,0.0,0.0,0.0,0.0,0.0,0.0,0.0,0.0,0.0,0.0,0.0,0.0,0.0,0.0,0.0,0.0,0.0,0.0,0.0,0.0,0.0,0.0,0.0,0.0,0.0,0.0,0.0,0.0,0.0,0.0,0.0,0.0,0.0,0.0,0.0,-1.3002,-1.3478,0.0,0.0,0.0,0.0,0.0,0.0,0.0,0.0,-1.6475,0.0,0.0,0.0,0.0,0.0,0.0,0.0,0.0,0.0,0.0,0.0,0.0,0.0,0.0,0.0,0.0,0.0,0.0,0.0,0.0,0.0,0.0,0.0,0.0,0.0,0.0,0.0,0.0,0.0,0.0,0.0,0.0,0.0,0.0,0.0,0.0,0.0,0.0,0.0,0.0,0.0,0.0,0.0,0.0,0.0,0.0,0.0,0.0,0.0,0.0,0.0,0.0,0.0,0.0,0.0,0.0,-1.3078,-1.3619,-1.3643,-1.3084,-1.3385,-1.3998,-1.4897,-1.532,-1.5816,-1.6403,0.0,0.0,0.0,0.0,0.0,0.0,0.0,0.0,0.0,0.0,0.0,0.0,0.0,0.0,0.0,0.0,0.0,0.0,0.0,0.0,0.0,0.0,0.0,0.0,0.0,0.0,0.0,0.0,0.0,0.0,0.0,0.0,0.0,0.0,0.0,0.0,0.0,0.0,0.0,-1.3653,-1.4263,0.0,0.0,0.0,0.0,0.0,0.0,0.0,0.0,-1.6814,0.0,0.0,0.0,0.0,0.0,0.0,0.0,0.0,0.0,0.0,0.0,0.0,0.0,0.0,0.0,0.0,0.0,0.0,0.0,0.0,0.0,0.0,0.0,0.0,0.0,0.0,0.0,0.0,0.0,0.0,0.0,0.0,0.0,0.0,0.0,0.0,0.0,0.0,0.0,0.0,0.0,0.0,0.0,0.0,0.0,0.0,0.0,0.0,0.0,0.0,0.0,0.0,0.0,0.0,0.0,-1.3434,-1.3976,-1.415,-1.3914,-1.3718,-1.4222,-1.5506,-1.5341,-1.5683,0.0,0.0,0.0,0.0,0.0,0.0,0.0,0.0,0.0,0.0,0.0,0.0,0.0,0.0,0.0,0.0,0.0,0.0,0.0,0.0,0.0,0.0,0.0,0.0,0.0,0.0,0.0,0.0,0.0,0.0,0.0,0.0,0.0,0.0,0.0,0.0,0.0,0.0,0.0,0.0,-1.3819,-1.4146,-1.5139,0.0,0.0,0.0,0.0,0.0,0.0,-1.6443,-1.6656,0.0,0.0,0.0,0.0,0.0,0.0,0.0,0.0,0.0,0.0,0.0,0.0,0.0,0.0,0.0,0.0,0.0,0.0,0.0,0.0,0.0,0.0,0.0,0.0,0.0,0.0,0.0,0.0,0.0,0.0,0.0,0.0,0.0,0.0,0.0,0.0,0.0,0.0,0.0,0.0,0.0,0.0,0.0,0.0,0.0,0.0,0.0,0.0,0.0,0.0,0.0,0.0,0.0,0.0,0.0,-1.3636,-1.4303,-1.4684,-1.4769,-1.431,-1.4789,-1.6175,-1.5841,-1.6,0.0,0.0,0.0,0.0,0.0,0.0,0.0,0.0,0.0,0.0,0.0,0.0,0.0,0.0,0.0,0.0,0.0,0.0,0.0,0.0,0.0,0.0,0.0,0.0,0.0,0.0,0.0,0.0,0.0,0.0,0.0,0.0,0.0,0.0,0.0,0.0,0.0,0.0,0.0,0.0,0.0,-1.4246,-1.5222,-1.505,0.0,0.0,0.0,0.0,-1.648,-1.6467,0.0,0.0,0.0,0.0,0.0,0.0,0.0,0.0,0.0,0.0,0.0,0.0,0.0,0.0,0.0,0.0,0.0,0.0,0.0,0.0,0.0,0.0,0.0,0.0,0.0,0.0,0.0,0.0,0.0,0.0,0.0,0.0,0.0,0.0,0.0,0.0,0.0,0.0,0.0,0.0,0.0,0.0,0.0,0.0,0.0,0.0,0.0,0.0,0.0,0.0,0.0,0.0,0.0,0.0,0.0,0.0,-1.363,-1.4155,-1.4664,-1.5108,-1.5448,-1.6129,-1.7125,-1.7873,-1.7982,0.0,0.0,0.0,0.0,0.0,0.0,0.0,0.0,0.0,0.0,0.0,0.0,0.0,0.0,0.0,0.0,0.0,0.0,0.0,0.0,0.0,0.0,0.0,0.0,0.0,0.0,0.0,0.0,0.0,0.0,0.0,0.0,0.0,0.0,0.0,0.0,0.0,0.0,0.0,0.0,0.0,-1.4823,-1.4575,-1.4509,-1.4712,0.0,0.0,-1.5031,-1.6038,-1.6119,0.0,0.0,0.0,0.0,0.0,0.0,0.0,0.0,0.0,0.0,0.0,0.0,0.0,0.0,0.0,0.0,0.0,0.0,0.0,0.0,0.0,0.0,0.0,0.0,0.0,0.0,0.0,0.0,0.0,0.0,0.0,0.0,0.0,0.0,0.0,0.0,0.0,0.0,0.0,0.0,0.0,0.0,0.0,0.0,0.0,0.0,0.0,0.0,0.0,0.0,0.0,0.0,0.0,0.0,0.0,-1.4241,-1.4725,-1.5112,-1.5713,-1.6435,-1.6111,-1.6319,-1.7229,-1.6811,-1.6725,0.0,0.0,0.0,0.0,0.0,0.0,0.0,0.0,0.0,0.0,0.0,0.0,0.0,0.0,0.0,0.0,0.0,0.0,0.0,0.0,0.0,0.0,0.0,0.0,0.0,0.0,0.0,0.0,0.0,0.0,0.0,0.0,0.0,0.0,0.0,0.0,0.0,0.0,0.0,0.0,0.0,0.0,-1.5226,-1.4665,0.0,0.0,0.0,-1.4251,-1.5316,0.0,0.0,0.0,0.0,0.0,0.0,0.0,0.0,0.0,0.0,0.0,0.0,0.0,0.0,0.0,0.0,0.0,0.0,0.0,0.0,0.0,0.0,0.0,0.0,0.0,0.0,0.0,0.0,0.0,0.0,0.0,0.0,0.0,0.0,0.0,0.0,0.0,0.0,0.0,0.0,0.0,0.0,0.0,0.0,0.0,0.0,0.0,0.0,0.0,0.0,0.0,0.0,0.0,0.0,0.0,0.0,0.0,-1.5573,-1.6048,-1.6707,-1.7504,-1.6671,-1.661,-1.7381,-1.6141,0.0,0.0,0.0,0.0,0.0,0.0,0.0,0.0,0.0,0.0,0.0,0.0,0.0,0.0,0.0,0.0,0.0,0.0,0.0,0.0,0.0,0.0,0.0,0.0,0.0,0.0,0.0,-1.2485,0.0,0.0,0.0,0.0,0.0,0.0,0.0,0.0,0.0,0.0,0.0,0.0,0.0,0.0,-1.5487,-1.6009,-1.508,-1.4597,0.0,0.0,-1.3969,-1.5006,-1.4977,-1.5069,0.0,0.0,0.0,0.0,0.0,0.0,0.0,0.0,0.0,0.0,0.0,0.0,0.0,0.0,0.0,0.0,0.0,0.0,0.0,0.0,0.0,0.0,0.0,0.0,0.0,0.0,0.0,0.0,0.0,0.0,0.0,0.0,0.0,0.0,0.0,0.0,0.0,0.0,0.0,0.0,0.0,0.0,0.0,0.0,0.0,0.0,0.0,0.0,0.0,0.0,0.0,0.0,0.0,0.0,-1.5456,-1.5526,-1.6578,-1.7312,-1.774,-1.7281,-1.7337,-1.8007,-1.722,-1.6804,0.0,0.0,0.0,0.0,0.0,0.0,0.0,0.0,0.0,0.0,0.0,0.0,0.0,0.0,0.0,0.0,0.0,0.0,0.0,0.0,0.0,0.0,0.0,0.0,0.0,0.0,0.0,0.0,0.0,0.0,0.0,0.0,0.0,0.0,0.0,0.0,0.0,0.0,0.0,0.0,0.0,-1.5998,-1.6514,-1.5658,-1.5327,0.0,-1.5185,-1.4555,-1.5408,-1.4835,-1.4593,-1.5536,0.0,0.0,0.0,0.0,0.0,0.0,0.0,0.0,0.0,0.0,0.0,0.0,0.0,0.0,0.0,0.0,0.0,0.0,0.0,0.0,0.0,0.0,0.0,0.0,0.0,0.0,0.0,0.0,0.0,0.0,0.0,0.0,0.0,0.0,0.0,0.0,0.0,0.0,0.0,0.0,0.0,0.0,0.0,0.0,0.0,0.0,0.0,0.0,0.0,0.0,0.0,0.0,0.0,-1.5731,-1.6249,-1.7099,-1.776,-1.8201,-1.7703,-1.7423,-1.7417,-1.6553,-1.5956,0.0,0.0,0.0,0.0,0.0,0.0,0.0,0.0,0.0,0.0,0.0,0.0,0.0,0.0,0.0,0.0,0.0,0.0,0.0,0.0,0.0,0.0,0.0,0.0,0.0,0.0,0.0,0.0,-1.3842,-1.3875,-1.3684,0.0,0.0,0.0,0.0,0.0,0.0,0.0,0.0,0.0,0.0,-1.6093,-1.651,-1.5609,0.0,0.0,-1.5093,-1.4654,-1.4682,-1.5051,-1.527,-1.522,-1.6086,0.0,0.0,0.0,0.0,0.0,0.0,0.0,0.0,0.0,0.0,0.0,0.0,0.0,0.0,0.0,0.0,0.0,0.0,0.0,0.0,0.0,0.0,0.0,0.0,0.0,0.0,0.0,0.0,0.0,0.0,0.0,0.0,0.0,0.0,0.0,0.0,0.0,0.0,0.0,0.0,0.0,0.0,0.0,0.0,0.0,0.0,0.0,0.0,0.0,0.0,0.0,0.0,-1.622,-1.6964,-1.7664,-1.8175,-1.8478,-1.7798,-1.7341,-1.7137,-1.6008,-1.5224,0.0,0.0,0.0,0.0,0.0,0.0,0.0,0.0,0.0,0.0,0.0,0.0,0.0,0.0,0.0,0.0,0.0,0.0,0.0,0.0,0.0,0.0,0.0,0.0,0.0,0.0,0.0,0.0,-1.4067,-1.3991,-1.4159,0.0,0.0,0.0,0.0,0.0,0.0,0.0,0.0,0.0,0.0,-1.5937,-1.6705,-1.5918,-1.5269,-1.551,-1.5354,-1.504,-1.4623,-1.5326,-1.5782,-1.5453,0.0,0.0,0.0,0.0,0.0,0.0,0.0,0.0,0.0,0.0,0.0,0.0,0.0,0.0,0.0,0.0,0.0,0.0,0.0,0.0,0.0,0.0,0.0,0.0,0.0,0.0,0.0,-1.8038,0.0,0.0,-1.7074,0.0,0.0,0.0,0.0,0.0,0.0,0.0,0.0,0.0,0.0,0.0,0.0,0.0,0.0,0.0,0.0,0.0,0.0,0.0,0.0,0.0,0.0,-1.6936,-1.7562,-1.8187,-1.8485,-1.8482,-1.7533,-1.7221,-1.7507,-1.58,-1.5008,-1.5347,0.0,0.0,0.0,0.0,0.0,0.0,0.0,0.0,0.0,0.0,0.0,0.0,0.0,0.0,0.0,0.0,0.0,0.0,0.0,0.0,0.0,0.0,0.0,0.0,0.0,0.0,-1.4839,-1.4222,-1.4071,0.0,0.0,0.0,0.0,0.0,0.0,0.0,0.0,0.0,-1.7266,-1.6115,-1.568,-1.7146,-1.6661,-1.6243,-1.6399,-1.6175,-1.5878,-1.5625,-1.5686,-1.5885,0.0,0.0,0.0,0.0,0.0,0.0,0.0,0.0,0.0,0.0,0.0,0.0,0.0,0.0,0.0,0.0,0.0,0.0,0.0,0.0,0.0,0.0,0.0,0.0,0.0,0.0,0.0,-1.956,-1.9503,0.0,0.0,0.0,0.0,0.0,0.0,0.0,0.0,0.0,0.0,0.0,-1.8591,-1.9584,0.0,0.0,0.0,0.0,0.0,0.0,0.0,0.0,0.0,0.0,0.0,0.0,-1.6994,-1.7609,-1.838,-1.8777,-1.8743,-1.7782,-1.7419,-1.7707,-1.6293,-1.5312,-1.4821,0.0,0.0,0.0,0.0,0.0,0.0,0.0,0.0,0.0,0.0,0.0,0.0,0.0,0.0,0.0,0.0,0.0,0.0,0.0,0.0,0.0,0.0,0.0,0.0,0.0,-1.5766,0.0,0.0,0.0,0.0,0.0,0.0,0.0,0.0,0.0,0.0,-1.6161,-1.6619,-1.7289,-1.6649,-1.6431,-1.7289,-1.7341,-1.7082,0.0,0.0,0.0,0.0,0.0,0.0,0.0,0.0,0.0,0.0,0.0,0.0,0.0,0.0,-1.9032,-1.8017,-1.7846,-1.7689,-1.7213,0.0,0.0,0.0,0.0,0.0,0.0,0.0,0.0,0.0,0.0,0.0,0.0,0.0,0.0,-2.1034,-2.0961,-2.024,0.0,0.0,0.0,0.0,0.0,0.0,0.0,0.0,-1.9518,-1.9669,-1.9641,-2.0515,-2.0802,0.0,-2.116,-2.031,0.0,0.0,0.0,0.0,0.0,0.0,0.0,0.0,-1.7441,-1.8068,-1.8705,-1.9072,-1.903,-1.8067,-1.7617,-1.7764,-1.6483,-1.5668,-1.5384,-1.5821,-1.61,0.0,0.0,0.0,0.0,0.0,0.0,0.0,0.0,0.0,0.0,0.0,0.0,0.0,0.0,0.0,0.0,0.0,0.0,0.0,0.0,0.0,0.0,0.0,-1.6205,0.0,0.0,0.0,0.0,0.0,0.0,0.0,0.0,0.0,-1.65,-1.6688,-1.7046,-1.7559,-1.7115,-1.6941,-1.7439,0.0,0.0,0.0,0.0,0.0,0.0,0.0,-1.7117,-1.7327,-1.7952,-1.8553,-1.8927,-1.9309,-1.9478,-1.929,0.0,0.0,-1.8412,-1.8394,-1.8394,-1.8097,-1.842,-1.8452,-1.7392,-1.7445,-1.726,0.0,0.0,0.0,0.0,0.0,0.0,0.0,0.0,-2.2766,-2.2458,0.0,-2.1697,0.0,0.0,0.0,0.0,-2.0103,-1.9979,0.0,0.0,-2.0745,-2.0512,-2.0533,-2.0628,-2.0326,-1.9898,-2.1362,-2.1602,-2.0608,-1.9197,0.0,0.0,0.0,0.0,0.0,0.0,-1.8317,-1.8893,-1.925,-1.942,-1.9376,-1.8399,-1.7842,-1.7768,-1.6398,-1.6045,-1.6913,-1.7311,-1.7604,-1.778,-1.7845,0.0,0.0,0.0,0.0,0.0,0.0,0.0,0.0,0.0,0.0,0.0,0.0,0.0,0.0,0.0,0.0,0.0,0.0,0.0,0.0,-1.6697,0.0,0.0,0.0,0.0,0.0,0.0,0.0,0.0,0.0,-1.8347,-1.7444,-1.7418,-1.7586,-1.7912,0.0,0.0,0.0,0.0,-1.6789,-1.6261,-1.5934,-1.5769,-1.5772,-1.6238,-1.6787,-1.7272,0.0,0.0,-1.8952,-1.8952,-1.8795,-1.8311,-1.826,-1.8543,-1.9503,-1.9565,-1.9648,-1.9654,-1.9578,-1.9517,-1.9008,-1.8248,-1.7824,-2.2198,0.0,0.0,0.0,0.0,-2.2897,-2.3385,-2.408,-2.3945,-2.39,-2.3843,-2.3163,0.0,0.0,0.0,0.0,0.0,0.0,-2.1623,-2.1841,-2.1237,-2.0933,-2.0957,-2.1326,-2.1448,-2.1299,-2.2211,-2.2578,-2.232,-2.103,-1.9774,-1.8609,0.0,0.0,0.0,0.0,-1.8665,-1.9258,-1.9522,-1.9696,-1.9688,-1.9125,-1.8484,-1.7663,-1.6963,-1.6556,-1.6524,-1.779,-1.8297,-1.7822,-1.8794,0.0,0.0,0.0,0.0,0.0,0.0,0.0,0.0,0.0,0.0,0.0,0.0,0.0,0.0,0.0,0.0,0.0,0.0,0.0,-1.76,-1.787,-1.7943,0.0,0.0,0.0,0.0,0.0,0.0,0.0,0.0,0.0,-1.7375,-1.7716,-1.7622,0.0,0.0,-1.7211,-1.6993,-1.7276,-1.7228,-1.6345,-1.6576,0.0,-1.6406,-1.6422,-1.677,-1.7798,-1.8186,-1.8436,-1.8442,-1.8449,-1.8398,-1.8235,-1.8198,-1.8311,-1.8574,-1.8656,-1.8668,-1.8656,-1.8656,-1.8455,-1.7894,-1.7639,-1.7492,-2.2319,-2.2244,-2.2543,-2.2887,-2.3167,-2.3578,-2.4144,-2.4804,-2.4915,-2.4936,-2.4912,-2.4507,-2.3916,-2.3211,-2.2868,0.0,0.0,0.0,-2.2136,-2.2179,-2.1464,-2.1071,-2.0998,-2.1229,-2.1324,-2.1294,-2.1822,-2.2175,-2.2394,-2.1751,-2.0858,-1.9715,0.0,0.0,-1.8571,-1.8852,-1.9187,-1.9559,-1.9861,-1.998,-2.0015,-1.9659,-1.903,-1.8092,-1.8017,-1.7905,-1.764,-1.9042,-1.9595,-1.9181,-1.9993,-2.0264,0.0,0.0,0.0,0.0,0.0,0.0,0.0,0.0,0.0,0.0,0.0,-1.7578,-1.6889,0.0,0.0,0.0,-1.7378,-1.8097,-1.8671,-1.8815,0.0,0.0,0.0,0.0,0.0,0.0,0.0,-1.8387,-1.7991,-1.7581,-1.7345,-1.7814,-1.7731,-1.6563,-1.7062,-1.7429,-1.715,0.0,-1.7321,-1.6489,-1.6546,-1.6603,-1.6338,-1.6208,-1.6527,-1.7688,-1.8078,-1.8198,-1.8204,-1.8373,-1.8449,-1.8267,-1.8198,-1.8198,-1.8198,-1.8198,-1.8286,-1.8486,-1.8524,-1.8318,-1.775,-1.7807,-1.7805,-2.2305,-2.2337,-2.2394,-2.2848,-2.3588,-2.4221,-2.4871,-2.5475,-2.5475,-2.5483,-2.5483,-2.5483,-2.5094,-2.4432,-2.364,0.0,-2.3205,-2.2439,-2.2186,-2.2328,-2.1456,-2.0958,-2.0769,-2.0561,-2.0433,-2.0312,-2.0597,-2.0953,-2.1324,-2.1523,-2.1401,-2.082,-1.9938,-1.945,-1.945,-1.9696,-1.9831,-1.9831,-2.015,-2.0312,-2.0331,-1.9986,-1.9489,-1.8874,-1.935,-1.9596,-1.9639,-2.0649,-2.1221,-2.1221,-2.1236,-2.1271,-2.1153,0.0,0.0,0.0,0.0,0.0,0.0,0.0,0.0,0.0,0.0,0.0,0.0,0.0,0.0,0.0,-1.8994,0.0,-1.9765,-1.9604,0.0,0.0,0.0,-1.7499,-1.798,-1.7988,-1.788,-1.7556,0.0,0.0,-1.7364,-1.771,-1.7871,-1.7309,-1.7548,-1.7762,-1.7686,-1.7381,-1.7069,-1.6588,-1.6179,-1.5887,-1.5891,-1.5929,-1.6294,-1.7286,-1.7802,-1.811,-1.821,-1.8568,-1.8694,-1.8286,-1.8198,-1.8166,-1.8154,-1.8097,-1.8292,-1.8737,-1.8783,-1.8635,-1.8103,-1.8256,-1.8142,-2.1663,-2.1907,-2.2423,-2.3055,-2.3744,-2.41,-2.4356,-2.453,-2.4522,-2.4522,-2.4522,-2.4522,-2.4423,-2.4241,-2.3851,-2.366,-2.362,-2.2551,-2.2119,-2.2104,-2.111,-2.062,-2.0561,-2.0433,-2.0346,-2.0312,-2.0361,-2.0742,-2.1247,-2.088,-2.0852,-2.1144,-2.0452,-1.9975,-1.9732,-2.003,-2.0185,-2.0185,-2.0262,-2.0433,-2.0646,-2.0115,-1.9933,-2.0221,-1.9803,-1.9684,-1.9899,-2.0728,-2.1221,-2.1229,-2.1735,-2.1786,-2.1202,-2.012,0.0,0.0,0.0,0.0,0.0,0.0,0.0,0.0,0.0,-1.8736,-1.7315,0.0,-1.8579,0.0,-1.969,-2.0468,-2.0483,-2.0121,0.0,0.0,-1.8983,-1.8573,-1.9141,-1.8895,-1.8448,-1.7887,-1.783,-1.7626,-1.6929,-1.6873,-1.6879,-1.6828,-1.72,-1.7207,-1.6456,-1.6632,-1.6697,-1.6264,-1.634,-1.6361,-1.6057,-1.6163,-1.6604,-1.7339,-1.7573,-1.7721,-1.8129,-1.8298,-1.8348,-1.8235,-1.8198,-1.8041,-1.7677,-1.7576,-1.7626,-1.7746,-1.7771,-1.7731,-1.7573,-1.7334,-1.7148,-2.1691,-2.1873,-2.237,-2.28,-2.3235,-2.3911,-2.4211,-2.4211,-2.4211,-2.4211,-2.4211,-2.4211,-2.4211,-2.4211,-2.4049,-2.3926,-2.3827,-2.2949,-2.2524,-2.2403,-2.1399,-2.0844,-2.0738,-2.0486,-2.0373,-2.0304,-2.0304,-2.0566,-2.1031,-2.0715,-2.0782,-2.1272,-2.0927,-2.0663,-2.0457,-2.0342,-2.0304,-2.0304,-2.0433,-2.0703,-2.0991,-2.0819,-2.0839,-2.1164,-2.0944,-2.0856,-2.1015,-2.1448,-2.1684,-2.1693,-2.2082,-2.2116,-2.1693,-2.0949,-2.0357,0.0,0.0,0.0,0.0,0.0,0.0,0.0,0.0,0.0,0.0,0.0,-1.9908,-1.9643,-2.055,-2.1029,-2.0744,-2.0333,-2.0153,-2.0327,-1.9127,-1.8525,-1.9134,-1.8568,-1.7978,-1.7549,-1.7424,-1.7234,-1.6842,-1.6718,-1.6694,-1.6794,-1.7036,-1.698,-1.6417,-1.6559,-1.6626,-1.6442,-1.662,-1.6712,-1.6442,-1.6558,-1.6788,-1.7136,-1.7422,-1.7663,-1.7915,-1.8181,-1.8333,-1.8298,-1.8286,-1.8163,-1.7867,-1.7752,-1.7746,-1.7721,-1.7551,-1.7394,-1.7375,-1.7319,-1.7287,-2.2036,-2.2064,-2.2313,-2.2422,-2.2507,-2.356,-2.4014,-2.4014,-2.4005,-2.4014,-2.4014,-2.4005,-2.4014,-2.4005,-2.3982,-2.3911,-2.374,-2.3154,-2.2848,-2.2686,-2.1804,-2.1276,-2.1039,-2.0745,-2.0553,-2.0426,-2.0426,-2.0595,-2.0852,-2.0852,-2.0999,-2.1276,-2.1308,-2.1308,-2.1276,-2.0704,-2.0426,-2.0433,-2.0736,-2.1047,-2.137,-2.1661,-2.1827,-2.1886,-2.2152,-2.2319,-2.2319,-2.2319,-2.2319,-2.2319,-2.2319,-2.2319,-2.2293,-2.1608,-2.1221,0.0,-2.045,0.0,0.0,0.0,0.0,0.0,0.0,0.0,0.0,-2.0973,-2.134,-2.0745,-2.1306,-2.1425,-2.0774,-2.0386,-2.0313,-2.0654,-1.9114,-1.816,-1.8596,-1.7851,-1.7205,-1.7038,-1.6996,-1.6967,-1.6931,-1.6908,-1.6903,-1.6899,-1.692,-1.6931,-1.6901,-1.681,-1.6803,-1.6931,-1.6918,-1.6876,-1.6882,-1.6882,-1.692,-1.7078,-1.7414,-1.7702,-1.7824,-1.8207,-1.8474,-1.842,-1.842,-1.8348,-1.8176,-1.8113,-1.8081,-1.793,-1.7553,-1.7313,-1.7369,-1.7576,-1.7639,-2.2121,-2.2349,-2.2377,-2.2487,-2.2658,-2.2896,-2.2963,-2.298,-2.2971,-2.298,-2.3007,-2.2971,-2.2963,-2.2971,-2.2813,-2.2716,-2.2596,-2.2119,-2.1834,-2.1759,-2.1458,-2.1308,-2.1229,-2.1182,-2.1142,-2.1111,-2.1119,-2.115,-2.1214,-2.1214,-2.1245,-2.1308,-2.1308,-2.1308,-2.1308,0.0,0.0,0.0,-2.1142,-2.1378,-2.1691,-2.1768,-2.1924,-2.2217,-2.2274,0.0,-2.2319,-2.2319,-2.2319,-2.2319,-2.2319,0.0,0.0,0.0,0.0,0.0,0.0,0.0,0.0,0.0,0.0,0.0,-2.2417,-2.1761,-1.9648,-2.0299,-2.0843,-2.0737,-2.1313,-2.1433,-2.0744,-2.0631,-2.0407,-1.9938,-1.9269,-1.8788,-1.8558,-1.8016,-1.755,-1.7199,-1.7086,-1.7002,-1.7002,-1.6918,-1.6937,-1.6976,-1.6944,-1.696,-1.7128,-1.7002,-1.6954,-1.7009,-1.7002,-1.696,-1.6954,-1.6967,-1.7115,-1.7564,-1.7663,-1.7869,-1.8182,-1.8341,-1.8482,-1.8463,-1.8474,-1.8276,-1.7881,-1.7798,-1.7626,-1.7087,-1.6922,-1.6935,-1.732,-1.708,-1.6773,-2.2426,-2.2525,-2.2533,-2.2614,0.0,-2.2712,-2.2712,-2.2712,-2.2712,-2.2712,-2.2712,-2.2712,-2.2712,-2.2694,-2.2587,-2.2506,-2.2379,-2.2178,-2.2036,-2.1869,-2.1683,-2.1593,-2.154,-2.1362,-2.1308,-2.1308,-2.1308,-2.1378,-2.154,-2.1554,-2.1631,-2.1789,-2.1789,-2.1789,-2.1789,-2.1781,-2.1721,-2.1532,-2.1554,-2.1721,-2.202,-2.2049,-2.2131,-2.2274,-2.2319,0.0,0.0,0.0,0.0,0.0,0.0,0.0,0.0,0.0,0.0,-2.1735,-2.138,-2.1329,-2.1693,-2.1674,-2.1796,-2.2189,-2.2628,-2.2377,-2.1159,-2.1492,-2.1569,-2.1238,-2.1508,-2.156,-2.1231,-2.0917,-2.0707,-2.0662,-2.0038,-1.9489,-1.928,-1.8717,-1.8064,-1.7563,-1.7288,-1.708,-1.7073,-1.708,-1.7044,-1.7099,-1.7099,-1.7073,-1.7164,-1.708,-1.7002,-1.7073,-1.7122,-1.7086,-1.7115,-1.708,-1.7151,-1.7486,-1.7508,-1.7581,-1.7796,-1.7841,-1.7848,-1.7766,-1.7779,-1.765,-1.7394,-1.7305,-1.7178,-1.6801,-1.6761,-1.6782,-1.6948,-1.6716,-1.6528,-2.2712,-2.2712,-2.2747,-2.2747,-2.2782,-2.2799,-2.2807,-2.2816,-2.2738,0.0,0.0,-2.2712,-2.2712,-2.2694,-2.2677,-2.2605,-2.2497,-2.2533,-2.246,-2.2302,-2.2061,-2.1945,-2.1886,-2.1623,-2.1485,-2.1462,-2.1493,-2.1631,-2.1886,-2.1886,-2.2028,-2.2282,-2.2319,-2.2319,-2.2319,-2.2319,-2.2143,-2.1894,-2.1894,-2.202,-2.2291,-2.2319,-2.2319,-2.2319,-2.2347,-2.2366,-2.2366,-2.2405,-2.2441,-2.2394,-2.2366,-2.2366,-2.2319,-2.2319,-2.2319,-2.2319,-2.2319,-2.2319,-2.2319,-2.2319,-2.2341,-2.2391,-2.2665,-2.2801,-2.275,-2.2632,-2.2277,-2.1592,-2.1523,-2.1567,-2.1672,-2.1223,-2.1096,-2.1627,-2.0816,-2.0162,-2.003,-1.9317,-1.844,-1.7896,-1.7434,-1.7205,-1.7205,-1.7205,-1.7205,-1.7199,-1.7205,-1.7205,-1.7205,-1.7122,-1.708,-1.715,-1.7205,-1.7205,-1.7205,-1.7199,-1.7205,-1.7244,-1.7231,-1.7205,-1.7205,-1.7205,-1.7157,-1.7128,-1.7051,-1.7035,-1.6979,-1.7005,-1.6918,-1.6797,-1.6833,-1.6876,-1.665,-1.6565,-1.6565,-2.2712,-2.2703,-2.2927,-2.3045,-2.3061,-2.3242,-2.33,-2.3271,-2.2884,-2.2712,-2.2712,-2.2712,-2.2712,-2.2694,-2.2641,-2.2596,-2.2479,-2.2468,-2.2377,-2.2319,-2.2245,-2.2245,-2.2237,-2.218,-2.2152,-2.2152,-2.2143,-2.218,-2.2225,-2.2209,-2.2254,-2.231,-2.2319,-2.2319,-2.2319,-2.2319,-2.2282,-2.2217,-2.2209,-2.2245,-2.2319,-2.2319,-2.2319,-2.231,-2.2542,-2.2632,-2.2641,-2.2859,-2.2884,-2.2659,-2.2641,-2.2533,-2.231,-2.2319,-2.2319,-2.2319,-2.2319,-2.2319,-2.2319,-2.2319,-2.2581,-2.3177,-2.3546,-2.3168,-2.1843,-2.1703,-2.1472,-2.0986,-2.0977,-2.1096,-2.1597,-2.162,-2.1605,-2.168,-2.1041,-2.047,-2.0199,-1.9252,-1.8425,-1.7935,-1.7447,-1.7199,-1.7247,-1.7205,-1.7205,-1.7205,-1.7205,-1.7205,-1.7205,-1.7192,-1.715,-1.7199,-1.7205,-1.7205,-1.7205,-1.7205,-1.7205,-1.7205,-1.7205,-1.7205,-1.7205,-1.7205,-1.7199,-1.7164,-1.717,-1.7164,-1.7157,-1.7157,-1.7073,-1.696,-1.6954,-1.6954,-1.684,-1.6784,-1.6797,-2.3074,-2.3098,-2.3194,-2.3274,-2.3274,-2.3355,-2.3401,-2.3369,-2.3177,-2.3074,-2.3074,-2.3074,-2.3074,-2.3074,-2.304,-2.3,-2.2925,-2.291,-2.2833,-2.2721,-2.273,-2.2747,-2.2738,-2.2738,-2.2633,-2.2533,-2.2668,-2.2677,-2.2525,-2.2668,-2.2738,-2.2738,-2.2738,-2.273,-2.2738,-2.2738,-2.2747,-2.2738,-2.2451,-2.2358,-2.2515,-2.2506,-2.2587,-2.2712,-2.2867,-2.291,-2.291,-2.3026,-2.3051,-2.291,-2.279,-2.2641,-2.2525,-2.2515,-2.2506,-2.2515,-2.2506,-2.2515,-2.2515,-2.2386,-2.2462,-2.2792,-2.3311,-2.3253,-2.2312,-2.2536,-2.2649,-2.234,-2.2093,-2.2192,-2.2776,-2.251,-2.2412,-2.2704,-2.1859,-2.1175,-2.0922,-2.004,-1.9162,-1.8577,-1.7922,-1.7523,-1.7523,-1.7365,-1.7205,-1.7205,-1.7205,-1.7205,-1.7205,-1.7205,-1.7205,-1.7205,-1.7205,-1.7205,-1.7205,-1.7205,-1.7205,-1.7205,-1.7205,-1.7205,-1.7205,-1.7205,-1.7205,-1.7205,-1.7205,-1.7205,-1.7205,-1.7205,-1.7157,-1.7031,-1.6996,-1.696,-1.6833,-1.6833,-1.6882,-2.3401,-2.3401,-2.3477,-2.3531,-2.3566,-2.3597,-2.3579,-2.3597,-2.3566,-2.3566,-2.3566,-2.3468,-2.3401,-2.3401,-2.3392,-2.3346,-2.3291,-2.3289,-2.3218,-2.3102,-2.3113,-2.3091,-2.31,-2.31,-2.2985,-2.2825,-2.301,-2.2985,-2.2816,-2.3001,-2.31,-2.31,-2.31,-2.31,-2.31,-2.31,-2.31,-2.3075,-2.2686,-2.2579,-2.2773,-2.2799,-2.2902,-2.3075,-2.3164,-2.3188,-2.3197,-2.3259,-2.3251,-2.3197,-2.2994,-2.2859,-2.2782,-2.2738,-2.2738,-2.2773,-2.2738,-2.2712,-2.2685,-2.2441,-2.2319,-2.2336,-2.2987,-2.3363,-2.3329,-2.3756,-2.3921,-2.3631,-2.3249,-2.3323,-2.3625,-2.3337,-2.3137,-2.3338,-2.239,-2.1605,-2.1393,-2.0509,-1.9706,-1.9105,-1.8358,-1.7787,-1.7707,-1.7434,-1.7247,-1.7205,-1.7205,-1.7205,-1.7205,-1.7205,-1.7205,-1.7205,-1.7205,-1.7205,-1.7205,-1.7205,-1.7205,-1.7205,-1.7205,-1.7205,-1.7205,-1.7205,-1.7205,-1.7205,-1.7205,-1.7205,-1.7205,-1.7205,-1.7157,-1.7031,-1.7044,-1.7002,-1.6882,-1.6924,-1.6967,-2.3423,-2.3446,-2.3683,-2.3896,-2.4113,-2.4113,-2.4104,-2.4113,-2.4113,-2.4132,-2.4075,-2.361,-2.3423,-2.3392,-2.3378,-2.3355,-2.3305,-2.3253,-2.3206,-2.3141,-2.3102,-2.3105,-2.3124,-2.3124,-2.3067,-2.3084,-2.31,-2.3124,-2.3075,-2.3091,-2.3124,-2.31,-2.31,-2.3124,-2.3124,-2.3124,-2.31,-2.31,-2.306,-2.3017,-2.3051,-2.3075,-2.3075,-2.31,-2.3341,-2.3464,-2.3481,-2.3698,-2.3707,-2.3495,-2.3426,-2.331,-2.3084,-2.2859,-2.2799,-2.3026,-2.2842,-2.2712,-2.2694,-2.2451,-2.2319,-2.2361,-2.2953,-2.3655,-2.4228,-2.4639,-2.4514,-2.3951,-2.3654,-2.3722,-2.3903,-2.3791,-2.3443,-2.2975,-2.2184,-2.147,-2.0863,-1.9847,-1.9159,-1.913,-1.8429,-1.7787,-1.7828,-1.7475,-1.7247,-1.7205,-1.7205,-1.7205,-1.7205,-1.7205,-1.7205,-1.7205,-1.7205,-1.7205,-1.7205,-1.7205,-1.7205,-1.7205,-1.7205,-1.7205,-1.7205,-1.7205,-1.7205,-1.7205,-1.7205,-1.7205,-1.7205,-1.7205,-1.7164,-1.7038,-1.7044,-1.717,-1.717,-1.7128,-1.708,-2.4165,-2.4174,-2.4292,-2.44,-2.4479,-2.4506,-2.4506,-2.4506,-2.4506,-2.4497,-2.4479,-2.4256,-2.407,-2.3867,-2.3855,-2.3816,-2.3816,-2.3756,-2.3714,-2.3692,-2.364,-2.3597,-2.3571,-2.358,-2.3491,-2.338,-2.3454,-2.3436,-2.3371,-2.345,-2.3513,-2.3504,-2.3513,-2.3504,-2.3535,-2.3535,-2.3495,-2.3504,-2.3518,-2.3518,-2.3495,-2.3408,-2.3399,-2.358,-2.368,-2.3723,-2.375,-2.3855,-2.3825,-2.3676,-2.3562,-2.3449,-2.3348,-2.3247,-2.323,-2.3292,-2.3075,-2.2867,-2.272,-2.246,-2.2319,-2.2319,-2.2589,-2.3224,-2.4357,-2.4637,-2.4763,-2.5049,-2.4652,-2.4397,-2.4413,-2.4227,-2.3709,-2.2959,-2.2229,-2.1496,-2.0843,-1.9983,-1.9457,-1.9428,-1.8929,-1.8468,-1.8147,-1.7591,-1.724,-1.7205,-1.7205,-1.7247,-1.7205,-1.7205,-1.7205,-1.7205,-1.7205,-1.7205,-1.7205,-1.7205,-1.7205,-1.7205,-1.7205,-1.7205,-1.7205,-1.7205,-1.7205,-1.7205,-1.7205,-1.7157,-1.7073,-1.708,-1.7038,-1.6954,-1.6876,-1.6918,-1.6918,-1.696,-1.696,-2.4682,-2.4682,-2.4682,-2.4682,-2.4682,-2.4682,-2.4682,-2.4682,-2.4682,-2.4682,-2.4682,-2.4682,-2.4573,-2.4358,-2.4349,-2.4339,-2.4321,-2.4294,-2.4266,-2.4238,-2.4182,-2.4106,-2.4018,-2.3998,-2.3876,-2.3664,-2.3741,-2.3741,-2.362,-2.3741,-2.3816,-2.3795,-2.3825,-2.3816,-2.3804,-2.3804,-2.3804,-2.3804,-2.3804,-2.3804,-2.3774,-2.3664,-2.3676,-2.3855,-2.3896,-2.3908,-2.3867,-2.3908,-2.3896,-2.3795,-2.3646,-2.3576,-2.3576,-2.3549,-2.3504,-2.3481,-2.3315,-2.3084,-2.2833,-2.2552,-2.2386,-2.2319,-2.2319,-2.2928,-2.4129,-2.4515,-2.5048,-2.5995,-2.5615,-2.5152,-2.4799,-2.4549,-2.3923,-2.2909,-2.2205,-2.1545,-2.0654,-2.0061,-1.9733,-1.9697,-1.928,-1.895,-1.8514,-1.7948,-1.7577,-1.7444,-1.7398,-1.7282,-1.7247,-1.7205,-1.7205,-1.7205,-1.7205,-1.7205,-1.7205,-1.7205,-1.7205,-1.7205,-1.7205,-1.7205,-1.7205,-1.7205,-1.7205,-1.7205,-1.7157,-1.7115,-1.7038,-1.6996,-1.6954,-1.6882,-1.6803,-1.6712,-1.6797,-1.6833,-1.6882,-2.4682,-2.4698,-2.4689,-2.4713,-2.4698,-2.4713,-2.4698,-2.4729,-2.4713,-2.4698,-2.4723,-2.4713,-2.4698,-2.4692,-2.4667,-2.4676,-2.466,-2.4635,-2.461,-2.4559,-2.455,-2.4469,-2.4284,-2.4275,-2.4144,-2.3908,-2.3928,-2.3878,-2.3816,-2.3867,-2.3858,-2.3825,-2.3899,-2.3887,-2.3846,-2.3825,-2.3795,-2.3795,-2.3804,-2.3795,-2.3804,-2.3804,-2.3804,-2.3825,-2.3926,-2.3928,-2.3837,-2.3946,-2.3937,-2.3804,-2.3804,-2.3783,-2.3762,-2.3607,-2.3526,-2.3526,-2.3486,-2.3348,-2.31,-2.2842,-2.2579,-2.2358,-2.2347,-2.2919,-2.432,-2.4515,-2.5135,-2.6522,-2.6237,-2.5726,-2.5082,-2.4879,-2.4076,-2.2578,-2.2132,-2.1447,-2.0182,-1.9967,-1.9812,-1.9733,-1.9398,-1.8988,-1.8584,-1.8475,-1.8143,-1.7855,-1.7726,-1.7591,-1.7282,-1.7205,-1.7205,-1.7205,-1.7205,-1.7205,-1.7205,-1.7205,-1.7205,-1.7205,-1.7205,-1.7205,-1.7205,-1.7205,-1.7205,-1.7164,-1.7128,-1.7044,-1.7009,-1.6967,-1.6876,-1.684,-1.6748,-1.6705,-1.6705,-1.684,-1.6888,-2.5015,-2.5015,-2.5015,-2.5015,-2.5025,-2.5025,-2.5015,-2.5025,-2.5034,-2.5025,-2.5025,-2.5025,-2.5025,-2.5015,-2.5025,-2.4889,-2.4698,-2.4682,-2.4682,-2.4667,-2.4657,-2.461,-2.4493,-2.4493,-2.4425,-2.4302,-2.4293,-2.4266,-2.4183,-2.422,-2.4238,-2.4238,-2.4229,-2.4164,-2.4069,-2.4019,-2.395,-2.3887,-2.3867,-2.3887,-2.3917,-2.3896,-2.3896,-2.3917,-2.3967,-2.3996,-2.3987,-2.4054,-2.3987,-2.3876,-2.3876,-2.3837,-2.3795,-2.3741,-2.3698,-2.3685,-2.3585,-2.3449,-2.3348,-2.31,-2.285,-2.2579,-2.256,-2.3082,-2.4198,-2.4557,-2.5124,-2.6286,-2.659,-2.621,-2.577,-2.5435,-2.4533,-2.3017,-2.2547,-2.1798,-2.0513,-1.999,-1.9884,-1.9769,-1.9398,-1.9019,-1.8898,-1.8662,-1.8323,-1.7892,-1.7814,-1.7632,-1.7323,-1.7205,-1.724,-1.7205,-1.7205,-1.7205,-1.7205,-1.7205,-1.7205,-1.7205,-1.7205,-1.7205,-1.7205,-1.7205,-1.7205,-1.7086,-1.7009,-1.6924,-1.6882,-1.6748,-1.6699,-1.6663,-1.662,-1.6614,-1.665,-1.6748,-1.6705,-2.5272,-2.5272,-2.5272,-2.5253,-2.5272,-2.5262,-2.5253,-2.5262,-2.5272,-2.5262,-2.5272,-2.5262,-2.5261,-2.5238,-2.5236,-2.5103,-2.4884,-2.488,-2.4847,-2.4856,-2.487,-2.4818,-2.4716,-2.47,-2.462,-2.4536,-2.4512,-2.4469,-2.4433,-2.4424,-2.4469,-2.4495,-2.4459,-2.4389,-2.432,-2.4247,-2.4183,-2.4107,-2.4039,-2.4027,-2.4047,-2.3978,-2.3955,-2.4005,-2.4016,-2.4045,-2.4074,-2.4084,-2.4045,-2.3917,-2.3887,-2.3876,-2.3795,-2.3804,-2.3804,-2.3783,-2.3685,-2.3553,-2.3463,-2.3262,-2.2994,-2.2729,-2.264,-2.3119,-2.4303,-2.4515,-2.522,-2.6277,-2.67,-2.6581,-2.6315,-2.5952,-2.4928,-2.3283,-2.2551,-2.1763,-2.0404,-2.0088,-1.9983,-1.9841,-1.9589,-1.9362,-1.928,-1.9094,-1.8745,-1.8259,-1.8236,-1.8035,-1.7548,-1.7549,-1.7475,-1.7288,-1.7365,-1.7317,-1.7282,-1.7205,-1.7205,-1.7205,-1.7205,-1.7205,-1.7205,-1.7164,-1.7128,-1.7044,-1.6924,-1.6797,-1.6705,-1.6571,-1.6528,-1.6528,-1.6528,-1.6571,-1.6571,-1.6565,-1.6614,-2.5397,-2.5379,-2.5387,-2.539,-2.5381,-2.5381,-2.5389,-2.539,-2.5381,-2.5372,-2.5374,-2.5398,-2.5359,-2.5313,-2.5303,-2.5252,-2.5174,-2.5163,-2.5149,-2.5156,-2.5166,-2.5066,-2.4892,-2.4892,-2.4818,-2.4664,-2.4552,-2.4519,-2.4536,-2.4561,-2.4561,-2.4545,-2.4556,-2.4538,-2.4496,-2.4465,-2.4484,-2.4431,-2.4293,-2.4201,-2.4192,-2.4087,-2.4018,-2.4036,-2.4075,-2.4074,-2.4025,-2.4065,-2.4054,-2.3908,-2.3917,-2.3876,-2.3816,-2.3804,-2.3804,-2.3804,-2.3795,-2.3707,-2.3517,-2.3292,-2.3075,-2.2825,-2.2549,-2.3119,-2.4279,-2.4599,-2.5186,-2.637,-2.67,-2.6657,-2.6615,-2.6197,-2.5144,-2.3235,-2.2219,-2.1345,-2.0501,-2.0185,-2.008,-1.9983,-1.9805,-1.9805,-1.9762,-1.961,-1.9353,-1.9031,-1.8949,-1.8683,-1.799,-1.8102,-1.7995,-1.755,-1.7482,-1.7557,-1.7358,-1.7205,-1.7205,-1.7205,-1.7205,-1.7205,-1.7199,-1.7157,-1.708,-1.7002,-1.6791,-1.6663,-1.662,-1.6528,-1.6528,-1.6528,-1.6528,-1.6522,-1.6528,-1.6528,-1.6528,-2.5387,-2.5387,-2.5387,-2.5387,-2.5387,-2.5387,-2.5387,-2.5395,-2.5387,-2.5387,-2.5387,-2.5387,-2.5389,-2.5374,-2.5375,-2.5366,-2.534,-2.534,-2.5284,-2.5214,-2.5201,-2.518,-2.5125,-2.5094,-2.5044,-2.4947,-2.4931,-2.4884,-2.4847,-2.4884,-2.4917,-2.4908,-2.4898,-2.4832,-2.4713,-2.4666,-2.462,-2.4556,-2.4465,-2.4441,-2.4502,-2.4329,-2.422,-2.4257,-2.4172,-2.4113,-2.4142,-2.4151,-2.4094,-2.3967,-2.3976,-2.3926,-2.3825,-2.3804,-2.3804,-2.3804,-2.3804,-2.3783,-2.3719,-2.3624,-2.3477,-2.3351,-2.3431,-2.3957,-2.4687,-2.5082,-2.5634,-2.6547,-2.67,-2.67,-2.6581,-2.5907,-2.4824,-2.3452,-2.277,-2.1741,-2.0555,-2.0177,-2.0108,-2.0045,-1.9912,-1.9841,-1.9797,-1.9762,-1.9557,-1.9213,-1.9119,-1.8884,-1.8458,-1.8391,-1.8305,-1.7754,-1.7801,-1.7645,-1.7365,-1.7205,-1.7205,-1.7205,-1.7205,-1.7205,-1.7199,-1.7115,-1.7031,-1.6911,-1.6705,-1.662,-1.6528,-1.6485,-1.6485,-1.6454,-1.6429,-1.6447,-1.6479,-1.6427,-1.6313,-2.5505,-2.5504,-2.5515,-2.5508,-2.5517,-2.5515,-2.5523,-2.5504,-2.5514,-2.5511,-2.5509,-2.5518,-2.5499,-2.5449,-2.5449,-2.5408,-2.5395,-2.5387,-2.5347,-2.5283,-2.5273,-2.5273,-2.5273,-2.524,-2.5217,-2.5164,-2.5132,-2.5082,-2.5041,-2.506,-2.5082,-2.5085,-2.5085,-2.5054,-2.4955,-2.4888,-2.4832,-2.4813,-2.4697,-2.4669,-2.4685,-2.456,-2.4448,-2.4458,-2.4383,-2.4312,-2.4294,-2.4275,-2.4191,-2.4036,-2.3976,-2.3887,-2.3795,-2.3804,-2.3804,-2.3804,-2.3804,-2.3804,-2.3804,-2.371,-2.3589,-2.3481,-2.3786,-2.4237,-2.4739,-2.5272,-2.5913,-2.6539,-2.67,-2.67,-2.6556,-2.5698,-2.4695,-2.3769,-2.2927,-2.1909,-2.0632,-2.0227,-2.0185,-2.015,-2.001,-1.994,-1.9897,-1.979,-1.9637,-1.9396,-1.9346,-1.9094,-1.8728,-1.8617,-1.8302,-1.7995,-1.7754,-1.7557,-1.7288,-1.7205,-1.7205,-1.7205,-1.7205,-1.7205,-1.7205,-1.7115,-1.7038,-1.6882,-1.6675,-1.662,-1.6528,-1.6479,-1.6436,-1.6386,-1.6259,-1.6105,-1.5986,-1.5976,-1.5905,-2.5701,-2.5698,-2.5697,-2.568,-2.5684,-2.5673,-2.5664,-2.5698,-2.5688,-2.5675,-2.5687,-2.567,-2.5624,-2.5526,-2.5532,-2.5494,-2.5432,-2.5427,-2.5437,-2.5435,-2.5427,-2.542,-2.5392,-2.5331,-2.5293,-2.5274,-2.5189,-2.513,-2.5132,-2.5134,-2.5098,-2.5106,-2.5125,-2.5134,-2.5146,-2.5134,-2.5101,-2.5091,-2.498,-2.4894,-2.4836,-2.4738,-2.4679,-2.4604,-2.4617,-2.4526,-2.4399,-2.4346,-2.4238,-2.4036,-2.3887,-2.3816,-2.3795,-2.3804,-2.3804,-2.3825,-2.3804,-2.3825,-2.3792,-2.3698,-2.3499,-2.3321,-2.3658,-2.4016,-2.4513,-2.5051,-2.5702,-2.6412,-2.653,-2.6564,-2.6379,-2.5715,-2.4763,-2.3901,-2.2636,-2.1416,-2.0497,-2.0304,-2.027,-2.027,-2.0185,-2.0108,-2.0065,-1.9897,-1.9812,-1.9784,-1.9705,-1.9332,-1.9017,-1.8822,-1.8454,-1.8219,-1.8061,-1.7875,-1.776,-1.7679,-1.7679,-1.7679,-1.7598,-1.7441,-1.7282,-1.7115,-1.6996,-1.684,-1.668,-1.6588,-1.6458,-1.6285,-1.6166,-1.599,-1.5827,-1.5608,-1.5468,-1.5442,-1.5439,-2.5693,-2.5696,-2.5693,-2.5696,-2.57,-2.5697,-2.5697,-2.5696,-2.5697,-2.5694,-2.5701,-2.5701,-2.5668,-2.5634,-2.5652,-2.564,-2.5619,-2.5609,-2.5623,-2.5615,-2.5625,-2.5531,-2.5427,-2.5381,-2.5364,-2.5365,-2.533,-2.5321,-2.5322,-2.5263,-2.5221,-2.5163,-2.5185,-2.5191,-2.5199,-2.5146,-2.5146,-2.518,-2.5101,-2.5069,-2.5068,-2.4917,-2.4856,-2.4809,-2.4623,-2.4474,-2.4399,-2.4257,-2.4134,-2.4007,-2.3926,-2.3855,-2.3816,-2.3795,-2.3816,-2.3858,-2.3858,-2.3867,-2.3867,-2.3804,-2.3719,-2.3665,-2.3853,-2.4147,-2.4248,-2.4582,-2.5147,-2.5702,-2.5888,-2.5871,-2.5836,-2.5578,-2.4743,-2.3305,-2.1989,-2.0972,-2.0496,-2.0304,-2.0304,-2.027,-2.0185,-2.0143,-2.0073,-2.0025,-1.9965,-1.9929,-1.9843,-1.9683,-1.9324,-1.9212,-1.8959,-1.8891,-1.8738,-1.8507,-1.8351,-1.8226,-1.8226,-1.8226,-1.8108,-1.7828,-1.7516,-1.7157,-1.7031,-1.6876,-1.6608,-1.6479,-1.6153,-1.5869,-1.5712,-1.5574,-1.5264,-1.4991,-1.5006,-1.4979,-1.4942,-2.5702,-2.5693,-2.5701,-2.5693,-2.5693,-2.5693,-2.5693,-2.5693,-2.5693,-2.5692,-2.5701,-2.57,-2.57,-2.57,-2.57,-2.57,-2.57,-2.57,-2.5697,-2.5699,-2.5691,-2.5631,-2.5533,-2.547,-2.5449,-2.5449,-2.543,-2.5397,-2.539,-2.5358,-2.5321,-2.5293,-2.5293,-2.5282,-2.5249,-2.5208,-2.5184,-2.5191,-2.5158,-2.5168,-2.5189,-2.5091,-2.5035,-2.5,-2.4828,-2.4691,-2.4526,-2.4284,-2.4103,-2.4016,-2.3937,-2.3867,-2.3816,-2.3807,-2.3858,-2.3887,-2.3926,-2.3955,-2.3917,-2.3917,-2.3756,-2.3665,-2.3903,-2.4051,-2.4045,-2.4253,-2.4777,-2.509,-2.5175,-2.5158,-2.5065,-2.4896,-2.3905,-2.2477,-2.1488,-2.0885,-2.0561,-2.0392,-2.0304,-2.027,-2.0227,-2.0177,-2.0193,-2.0111,-2.0056,-2.0013,-1.9891,-1.9718,-1.9479,-1.9486,-1.9384,-1.9161,-1.8974,-1.8707,-1.8584,-1.85,-1.8461,-1.85,-1.8266,-1.8061,-1.7707,-1.7249,-1.6988,-1.6818,-1.6574,-1.6252,-1.5758,-1.5388,-1.5233,-1.5032,-1.4668,-1.4506,-1.4481,-1.4419,-1.4406,-2.5693,-2.5692,-2.5693,-2.5693,-2.5693,-2.5699,-2.5702,-2.5702,-2.5702,-2.5693,-2.5693,-2.5692,-2.5693,-2.5702,-2.5693,-2.5692,-2.5692,-2.5693,-2.5701,-2.5697,-2.5697,-2.5681,-2.5667,-2.558,-2.5545,-2.5523,-2.5456,-2.5452,-2.5452,-2.5437,-2.5412,-2.5387,-2.5389,-2.5358,-2.5283,-2.5273,-2.524,-2.5212,-2.5189,-2.5189,-2.521,-2.5189,-2.5168,-2.5137,-2.5032,-2.4865,-2.4626,-2.4375,-2.4151,-2.4016,-2.3937,-2.3896,-2.3837,-2.3876,-2.3917,-2.3917,-2.3976,-2.3996,-2.3996,-2.3955,-2.3753,-2.3526,-2.3837,-2.3938,-2.3712,-2.3964,-2.4283,-2.4487,-2.4491,-2.4443,-2.4303,-2.3748,-2.2847,-2.1792,-2.1363,-2.1087,-2.0803,-2.0494,-2.0304,-2.0304,-2.0304,-2.0304,-2.0277,-2.0208,-2.0103,-2.0138,-2.001,-1.9866,-1.9652,-1.9559,-1.9376,-1.9079,-1.8929,-1.8777,-1.8738,-1.87,-1.87,-1.8655,-1.8305,-1.8061,-1.7828,-1.7423,-1.7002,-1.6696,-1.6454,-1.5855,-1.5088,-1.4841,-1.4745,-1.4419,-1.4044,-1.3931,-1.3905,-1.3821,-1.3762,-2.5694,-2.5693,-2.5696,-2.5693,-2.5697,-2.5701,-2.5693,-2.5693,-2.5693,-2.5696,-2.5696,-2.5696,-2.5697,-2.5696,-2.5697,-2.5696,-2.5697,-2.5698,-2.5702,-2.5699,-2.5697,-2.5697,-2.5693,-2.5657,-2.5653,-2.5639,-2.5625,-2.5625,-2.561,-2.5537,-2.5489,-2.5473,-2.5389,-2.5322,-2.5293,-2.5262,-2.5235,-2.521,-2.521,-2.521,-2.521,-2.521,-2.521,-2.5189,-2.4953,-2.47,-2.4493,-2.4294,-2.4161,-2.4084,-2.4056,-2.3996,-2.3917,-2.3946,-2.3967,-2.3996,-2.4045,-2.4065,-2.4074,-2.4045,-2.3987,-2.381,-2.3674,-2.3599,-2.3379,-2.3285,-2.3495,-2.3688,-2.3777,-2.3718,-2.3553,-2.2731,-2.2152,-2.168,-2.1253,-2.0942,-2.0745,-2.0501,-2.0304,-2.0304,-2.0304,-2.0304,-2.0304,-2.0277,-2.0235,-2.0227,-2.0127,-2.0019,-1.9859,-1.9675,-1.9493,-1.9273,-1.9229,-1.9154,-1.9117,-1.9042,-1.8853,-1.8662,-1.8305,-1.7948,-1.7754,-1.739,-1.687,-1.6539,-1.6301,-1.5524,-1.4591,-1.434,-1.4284,-1.3871,-1.3542,-1.3536,-1.3502,-1.3339,-1.3295,-2.5697,-2.5697,-2.5697,-2.5697,-2.5697,-2.5697,-2.5697,-2.5697,-2.5697,-2.5697,-2.5697,-2.5697,-2.5697,-2.5697,-2.5697,-2.5697,-2.5697,-2.5697,-2.5698,-2.5693,-2.5697,-2.5693,-2.5701,-2.5697,-2.5699,-2.5699,-2.5689,-2.5699,-2.5681,-2.5649,-2.561,-2.5586,-2.5449,-2.5389,-2.533,-2.5283,-2.5238,-2.5212,-2.521,-2.521,-2.521,-2.521,-2.521,-2.5144,-2.4884,-2.4632,-2.4543,-2.4321,-2.4209,-2.4142,-2.4151,-2.4094,-2.3987,-2.3996,-2.4036,-2.4054,-2.4122,-2.4151,-2.4151,-2.4122,-2.4016,-2.3876,-2.3606,-2.3368,-2.3157,-2.291,-2.2867,-2.305,-2.3104,-2.3048,-2.2909,-2.2537,-2.2045,-2.173,-2.1347,-2.0974,-2.0786,-2.0494,-2.0304,-2.0304,-2.0304,-2.0304,-2.0304,-2.0304,-2.0304,-2.027,-2.0174,-2.0039,-2.0058,-1.9904,-1.9805,-1.9697,-1.969,-1.9646,-1.9566,-1.9376,-1.9011,-1.8662,-1.8233,-1.7834,-1.7482,-1.7061,-1.6605,-1.6244,-1.5802,-1.5006,-1.4195,-1.4031,-1.3877,-1.3677,-1.3496,-1.3333,-1.3288,-1.3323,-1.3295,-2.5666,-2.5666,-2.5681,-2.5701,-2.5693,-2.5695,-2.5697,-2.5697,-2.5697,-2.5697,-2.5697,-2.5697,-2.5697,-2.5697,-2.5697,-2.5697,-2.5697,-2.5697,-2.5696,-2.5693,-2.5693,-2.5697,-2.5693,-2.5694,-2.57,-2.5697,-2.5699,-2.5699,-2.5699,-2.5699,-2.5681,-2.5667,-2.5556,-2.546,-2.5403,-2.5331,-2.5272,-2.5217,-2.5203,-2.521,-2.521,-2.521,-2.521,-2.5134,-2.4916,-2.4719,-2.4617,-2.441,-2.4228,-2.4209,-2.4199,-2.4142,-2.4074,-2.4074,-2.4103,-2.4103,-2.4142,-2.419,-2.418,-2.4142,-2.4007,-2.3774,-2.3558,-2.3315,-2.3109,-2.2893,-2.2764,-2.2667,-2.269,-2.2609,-2.2349,-2.2143,-2.1982,-2.1721,-2.1432,-2.1119,-2.0869,-2.052,-2.0365,-2.0304,-2.0304,-2.0304,-2.0304,-2.0304,-2.0304,-2.0262,-2.0166,-2.0108,-2.0127,-2.0088,-1.999,-1.9919,-1.9869,-1.9805,-1.9726,-1.942,-1.9094,-1.8822,-1.8312,-1.7922,-1.747,-1.6955,-1.6505,-1.5714,-1.5119,-1.4433,-1.3984,-1.3792,-1.3655,-1.3533,-1.3493,-1.3459,-1.3425,-1.3391,-1.3357,-2.5541,-2.5537,-2.5588,-2.5622,-2.5636,-2.5679,-2.5685,-2.5697,-2.5683,-2.5697,-2.5695,-2.5697,-2.5685,-2.5697,-2.5697,-2.5697,-2.5697,-2.5697,-2.5694,-2.5702,-2.5693,-2.5693,-2.5697,-2.5695,-2.5693,-2.5697,-2.5694,-2.5693,-2.5699,-2.5699,-2.5699,-2.5671,-2.5571,-2.5502,-2.5456,-2.5374,-2.5313,-2.5263,-2.5228,-2.5224,-2.5212,-2.521,-2.521,-2.517,-2.4947,-2.4823,-2.4679,-2.4502,-2.433,-2.4218,-2.4199,-2.419,-2.4161,-2.417,-2.4142,-2.4113,-2.4161,-2.4199,-2.4199,-2.419,-2.4161,-2.4074,-2.3813,-2.3562,-2.3335,-2.31,-2.285,-2.2703,-2.2614,-2.2443,-2.2023,-2.1986,-2.1713,-2.1471,-2.1253,-2.1023,-2.0967,-2.073,-2.0467,-2.0407,-2.0339,-2.0304,-2.0304,-2.0304,-2.0304,-2.0304,-2.0247,-2.0224,-2.0212,-2.0158,-2.008,-2.0045,-2.001,-1.9912,-1.9812,-1.9435,-1.9094,-1.8936,-1.8584,-1.8319,-1.7765,-1.7082,-1.6448,-1.5771,-1.5043,-1.4382,-1.3974,-1.3667,-1.3648,-1.3722,-1.3655,-1.3594,-1.3554,-1.3547,-1.3642,-2.5514,-2.5514,-2.5532,-2.5557,-2.5547,-2.5589,-2.5588,-2.5588,-2.5598,-2.5598,-2.5605,-2.5619,-2.5639,-2.5651,-2.5683,-2.5697,-2.5697,-2.5697,-2.5701,-2.5697,-2.5701,-2.5693,-2.5693,-2.5698,-2.5694,-2.5699,-2.5696,-2.5694,-2.5699,-2.5699,-2.5699,-2.5671,-2.558,-2.5514,-2.5496,-2.5405,-2.5366,-2.5321,-2.5293,-2.525,-2.5239,-2.5225,-2.521,-2.5146,-2.5013,-2.4884,-2.4799,-2.4648,-2.4478,-2.4357,-2.4321,-2.4266,-2.4228,-2.419,-2.4181,-2.4142,-2.417,-2.4199,-2.4199,-2.4199,-2.419,-2.4142,-2.3837,-2.3566,-2.3355,-2.3082,-2.2859,-2.2729,-2.2632,-2.2525,-2.2324,-2.213,-2.2052,-2.1907,-2.1532,-2.1268,-2.1189,-2.0795,-2.062,-2.0509,-2.0407,-2.0373,-2.0304,-2.0304,-2.0304,-2.0304,-2.0304,-2.0304,-2.0304,-2.0227,-2.015,-2.0115,-2.0045,-1.9947,-1.9812,-1.9501,-1.9169,-1.8974,-1.8784,-1.8514,-1.8036,-1.7327,-1.6654,-1.5975,-1.5225,-1.4512,-1.4024,-1.3728,-1.3822,-1.3848,-1.3722,-1.3655,-1.3709,-1.3735,-1.3835,-2.546,-2.546,-2.548,-2.548,-2.5486,-2.5488,-2.5514,-2.5514,-2.5519,-2.551,-2.5519,-2.5552,-2.5579,-2.5588,-2.5636,-2.5671,-2.5697,-2.5697,-2.5699,-2.5701,-2.5697,-2.5701,-2.5692,-2.5693,-2.5702,-2.5701,-2.5693,-2.5696,-2.5694,-2.5693,-2.5699,-2.5681,-2.5591,-2.555,-2.5539,-2.547,-2.5425,-2.5405,-2.5358,-2.5313,-2.5283,-2.5238,-2.521,-2.521,-2.5044,-2.4951,-2.4874,-2.479,-2.4648,-2.451,-2.4416,-2.4338,-2.4257,-2.4209,-2.4199,-2.4199,-2.4199,-2.4199,-2.4199,-2.4199,-2.417,-2.4074,-2.3662,-2.3446,-2.3248,-2.2968,-2.2712,-2.2677,-2.265,-2.2535,-2.2398,-2.2398,-2.2315,-2.2175,-2.1794,-2.1515,-2.1393,-2.115,-2.086,-2.0703,-2.0535,-2.0467,-2.0467,-2.0446,-2.0488,-2.0392,-2.0392,-2.0331,-2.0331,-2.0304,-2.0227,-2.0158,-2.0096,-1.999,-1.9841,-1.9603,-1.9266,-1.9042,-1.886,-1.863,-1.8142,-1.7549,-1.6927,-1.6375,-1.551,-1.4815,-1.4313,-1.3914,-1.402,-1.4013,-1.3815,-1.3782,-1.3914,-1.3914,-1.3914,-2.5312,-2.5322,-2.539,-2.5403,-2.5427,-2.5473,-2.5498,-2.5498,-2.5492,-2.5514,-2.5486,-2.551,-2.5506,-2.5532,-2.557,-2.5636,-2.5671,-2.5695,-2.5695,-2.5697,-2.5701,-2.5693,-2.5693,-2.5701,-2.5693,-2.5693,-2.5702,-2.5693,-2.5698,-2.5697,-2.5703,-2.5689,-2.5675,-2.5657,-2.5639,-2.556,-2.5482,-2.5489,-2.5437,-2.5358,-2.5284,-2.5238,-2.5222,-2.5189,-2.5146,-2.5069,-2.4942,-2.4874,-2.4766,-2.466,-2.4484,-2.4389,-2.4346,-2.4257,-2.4209,-2.4199,-2.4199,-2.4199,-2.4199,-2.4199,-2.4122,-2.3946,-2.3588,-2.335,-2.3091,-2.291,-2.2712,-2.2712,-2.2685,-2.2535,-2.2326,-2.2141,-2.2027,-2.1899,-2.17,-2.1579,-2.1526,-2.1261,-2.0998,-2.0966,-2.0794,-2.0761,-2.0761,-2.0717,-2.0696,-2.0566,-2.0478,-2.0418,-2.0392,-2.0365,-2.0304,-2.0235,-2.0158,-2.0096,-2.0025,-1.9747,-1.9515,-1.9184,-1.9004,-1.886,-1.8513,-1.8085,-1.7551,-1.6916,-1.6031,-1.5322,-1.4842,-1.4573,-1.4392,-1.4202,-1.4032,-1.4078,-1.4222,-1.4157,-1.4118,-2.5303,-2.5303,-2.5331,-2.535,-2.5359,-2.5372,-2.539,-2.5381,-2.539,-2.5381,-2.5397,-2.5435,-2.5467,-2.5498,-2.5532,-2.5575,-2.5619,-2.5645,-2.5676,-2.5695,-2.5695,-2.5697,-2.5699,-2.5693,-2.5696,-2.5699,-2.5693,-2.5693,-2.5697,-2.5693,-2.5694,-2.5701,-2.5697,-2.5685,-2.5699,-2.5649,-2.562,-2.5575,-2.5489,-2.5374,-2.5303,-2.5238,-2.521,-2.521,-2.521,-2.5146,-2.5079,-2.4938,-2.4832,-2.4698,-2.45,-2.4365,-2.4293,-2.4238,-2.4199,-2.4199,-2.4199,-2.4199,-2.4199,-2.4199,-2.4113,-2.3946,-2.3628,-2.3257,-2.296,-2.279,-2.2712,-2.2712,-2.2712,-2.257,-2.2343,-2.226,-2.2101,-2.1899,-2.1648,-2.1595,-2.1542,-2.1285,-2.1095,-2.1095,-2.1095,-2.1023,-2.0958,-2.0884,-2.0816,-2.0752,-2.0687,-2.0654,-2.0553,-2.0486,-2.0392,-2.027,-2.0235,-2.0193,-2.0158,-2.0038,-1.9846,-1.9551,-1.9339,-1.9221,-1.9102,-1.8701,-1.8093,-1.7633,-1.7015,-1.6298,-1.5549,-1.4924,-1.45,-1.4356,-1.4246,-1.4356,-1.4433,-1.4543,-1.4472,-2.5273,-2.5303,-2.5303,-2.5303,-2.5303,-2.5303,-2.5303,-2.5303,-2.5303,-2.5303,-2.5313,-2.5358,-2.5422,-2.5476,-2.548,-2.5515,-2.5571,-2.5575,-2.5601,-2.5642,-2.5676,-2.5666,-2.5669,-2.5681,-2.5699,-2.5697,-2.5697,-2.57,-2.5693,-2.5699,-2.5693,-2.5698,-2.5691,-2.5699,-2.5699,-2.5685,-2.5677,-2.56,-2.5461,-2.5349,-2.5284,-2.5238,-2.5212,-2.521,-2.521,-2.521,-2.5189,-2.5079,-2.493,-2.4755,-2.4591,-2.4461,-2.4321,-2.4238,-2.4209,-2.4219,-2.4219,-2.419,-2.42,-2.4181,-2.4113,-2.3896,-2.3571,-2.3025,-2.2825,-2.2712,-2.2712,-2.2712,-2.2632,-2.2587,-2.2487,-2.2388,-2.2158,-2.1978,-2.1781,-2.1716,-2.1603,-2.1402,-2.1246,-2.1191,-2.1191,-2.123,-2.1127,-2.1015,-2.0958,-2.0893,-2.086,-2.086,-2.0761,-2.0654,-2.052,-2.0365,-2.0304,-2.0227,-2.0108,-2.0065,-1.9952,-1.9831,-1.9624,-1.9413,-1.9184,-1.897,-1.8497,-1.8108,-1.7735,-1.6937,-1.5998,-1.5244,-1.4574,-1.4672,-1.4721,-1.4603,-1.4648,-1.477,-1.4822,-2.5182,-2.5303,-2.5293,-2.5293,-2.5303,-2.5303,-2.5303,-2.5303,-2.5303,-2.5303,-2.5303,-2.5303,-2.5358,-2.5389,-2.5403,-2.5437,-2.55,-2.551,-2.5521,-2.5542,-2.5585,-2.5615,-2.5636,-2.5664,-2.5685,-2.5697,-2.5693,-2.5701,-2.5696,-2.5693,-2.5696,-2.5698,-2.5694,-2.5693,-2.5699,-2.5699,-2.5639,-2.5554,-2.5397,-2.5331,-2.5293,-2.5249,-2.521,-2.521,-2.521,-2.521,-2.521,-2.5146,-2.5035,-2.487,-2.4725,-2.4568,-2.4436,-2.4302,-2.4275,-2.4247,-2.421,-2.421,-2.4219,-2.4162,-2.3946,-2.3518,-2.3162,-2.2917,-2.2782,-2.2729,-2.2712,-2.2712,-2.2641,-2.2614,-2.2516,-2.2381,-2.2104,-2.199,-2.1861,-2.1751,-2.167,-2.1601,-2.1448,-2.134,-2.1317,-2.1371,-2.1294,-2.1151,-2.1111,-2.1047,-2.1015,-2.1023,-2.086,-2.0761,-2.0628,-2.0501,-2.0407,-2.0254,-1.9945,-1.9909,-1.9987,-1.9816,-1.9622,-1.9361,-1.9101,-1.8858,-1.8831,-1.8462,-1.7992,-1.724,-1.6514,-1.5848,-1.5365,-1.5258,-1.5195,-1.5013,-1.5075,-1.526,-1.5198,-2.5058,-2.5171,-2.5171,-2.5223,-2.5303,-2.5303,-2.5303,-2.5303,-2.5303,-2.5303,-2.5303,-2.5303,-2.5313,-2.534,-2.535,-2.5374,-2.5442,-2.543,-2.545,-2.5498,-2.5536,-2.5561,-2.5598,-2.5626,-2.5641,-2.5683,-2.5697,-2.5697,-2.5701,-2.5692,-2.5692,-2.5693,-2.5772,-2.5693,-2.5699,-2.5675,-2.561,-2.5517,-2.5412,-2.5349,-2.5293,-2.5248,-2.521,-2.521,-2.521,-2.521,-2.5189,-2.5088,-2.4987,-2.4888,-2.476,-2.4632,-2.4528,-2.4408,-2.4347,-2.4293,-2.4257,-2.4229,-2.4238,-2.421,-2.4057,-2.3846,-2.3495,-2.3194,-2.2925,-2.2875,-2.2833,-2.2764,-2.2649,-2.2614,-2.2686,-2.2309,-2.1969,-2.1961,-2.1932,-2.1823,-2.1743,-2.1705,-2.1675,-2.1593,-2.157,-2.1601,-2.1456,-2.1285,-2.1246,-2.1214,-2.1214,-2.1151,-2.1023,-2.0901,-2.0761,-2.0662,-2.0603,-2.0501,-2.0231,-2.0127,-2.0065,-1.9887,-1.9671,-1.9442,-1.9266,-1.9219,-1.9102,-1.8731,-1.8346,-1.7716,-1.7103,-1.6478,-1.5928,-1.5383,-1.5291,-1.5381,-1.552,-1.5732,-1.5741,-2.4919,-2.5024,-2.5046,-2.5138,-2.5284,-2.5303,-2.5303,-2.5303,-2.5303,-2.5303,-2.5303,-2.5303,-2.5303,-2.5303,-2.5303,-2.5332,-2.5366,-2.5374,-2.5387,-2.5425,-2.546,-2.5498,-2.5522,-2.5561,-2.5601,-2.5661,-2.5679,-2.5676,-2.5697,-2.57,-2.5918,-2.6071,-2.6052,-2.6029,-2.5685,-2.5643,-2.5591,-2.5517,-2.5442,-2.5375,-2.5313,-2.5251,-2.5224,-2.5212,-2.5212,-2.5201,-2.5168,-2.5066,-2.4915,-2.4799,-2.4697,-2.4584,-2.4528,-2.4461,-2.4417,-2.4375,-2.4312,-2.4284,-2.4284,-2.4135,-2.4019,-2.3816,-2.358,-2.3335,-2.3162,-2.3001,-2.2961,-2.2936,-2.2764,-2.2677,-2.2833,-2.2536,-2.2337,-2.2364,-2.2172,-2.2031,-2.1903,-2.1853,-2.1874,-2.1874,-2.1794,-2.167,-2.1661,-2.1495,-2.1379,-2.134,-2.1246,-2.1214,-2.1159,-2.1063,-2.0998,-2.0901,-2.0802,-2.0695,-2.0587,-2.052,-2.041,-2.0303,-2.0093,-1.9791,-1.9594,-1.9531,-1.936,-1.9008,-1.8593,-1.8222,-1.7706,-1.7101,-1.6124,-1.5108,-1.5266,-1.5506,-1.5896,-1.6107,-1.6376,-2.4794,-2.4902,-2.4902,-2.5056,-2.5273,-2.5303,-2.5303,-2.5293,-2.5303,-2.5303,-2.5303,-2.5303,-2.5303,-2.5303,-2.5303,-2.5313,-2.5313,-2.5313,-2.5322,-2.534,-2.539,-2.5405,-2.543,-2.5476,-2.5552,-2.5593,-2.5622,-2.5648,-2.5697,-2.5697,-2.6092,-2.6631,-2.6688,-2.6494,-2.5796,-2.5576,-2.5514,-2.5502,-2.5442,-2.5382,-2.5313,-2.5273,-2.5261,-2.5225,-2.5203,-2.5203,-2.517,-2.5091,-2.4951,-2.4799,-2.4716,-2.4594,-2.4453,-2.4445,-2.4454,-2.4482,-2.4412,-2.4394,-2.4385,-2.3959,-2.384,-2.3828,-2.368,-2.3368,-2.319,-2.3135,-2.3119,-2.3111,-2.2944,-2.2927,-2.2952,-2.2902,-2.2703,-2.2554,-2.233,-2.2284,-2.2189,-2.2292,-2.2375,-2.2256,-2.192,-2.1672,-2.1776,-2.1738,-2.1565,-2.145,-2.1348,-2.1285,-2.1285,-2.1222,-2.1135,-2.1095,-2.0998,-2.0893,-2.0827,-2.0794,-2.0745,-2.064,-2.0434,-2.0055,-1.9791,-1.9624,-1.9428,-1.9191,-1.9024,-1.8751,-1.8238,-1.7705,-1.6761,-1.5915,-1.5498,-1.5644,-1.6093,-1.6554,-1.6899,-2.4635,-2.4764,-2.4764,-2.4874,-2.5034,-2.5138,-2.5213,-2.5303,-2.5303,-2.5303,-2.5303,-2.5303,-2.5303,-2.5303,-2.5303,-2.5303,-2.5303,-2.5303,-2.5303,-2.5303,-2.5322,-2.5347,-2.5387,-2.5432,-2.5508,-2.558,-2.5605,-2.5629,-2.5697,-2.5782,-2.6245,-2.6797,-2.7153,-2.6841,-2.6408,-2.6018,-2.5605,-2.551,-2.5464,-2.5427,-2.5313,-2.5303,-2.5283,-2.5217,-2.5216,-2.5216,-2.5195,-2.513,-2.5016,-2.4888,-2.4832,-2.4734,-2.4578,-2.4538,-2.4549,-2.4517,-2.4457,-2.4403,-2.4367,-2.4173,-2.4135,-2.4067,-2.391,-2.3637,-2.3611,-2.3436,-2.3371,-2.3217,-2.307,-2.3036,-2.3045,-2.2634,-2.2421,-2.2421,-2.233,-2.2519,-2.2589,-2.2875,-2.3035,-2.2747,-2.2429,-2.1928,-2.1797,-2.1848,-2.1708,-2.1625,-2.1534,-2.1503,-2.1503,-2.1348,-2.1254,-2.1254,-2.1191,-2.1087,-2.1023,-2.099,-2.086,-2.0697,-2.0493,-2.0221,-1.997,-1.972,-1.9643,-1.9507,-1.9404,-1.9271,-1.8651,-1.805,-1.7534,-1.6902,-1.6503,-1.6177,-1.6503,-1.7067,-1.7621,-2.4558,-2.4622,-2.4638,-2.4713,-2.4842,-2.4962,-2.5105,-2.5223,-2.5283,-2.5303,-2.5303,-2.5303,-2.5303,-2.5303,-2.5303,-2.5303,-2.5303,-2.5303,-2.5303,-2.5303,-2.5303,-2.5331,-2.5358,-2.5397,-2.5476,-2.5552,-2.5601,-2.5623,-2.5736,-2.6019,-2.6867,-2.7675,-2.7576,-2.7505,-2.7072,-2.6434,-2.5648,-2.5581,-2.5575,-2.5521,-2.5422,-2.5364,-2.533,-2.5284,-2.5262,-2.5271,-2.52,-2.5145,-2.512,-2.5044,-2.4953,-2.4865,-2.4695,-2.4613,-2.4599,-2.4517,-2.4474,-2.4457,-2.4393,-2.4375,-2.4358,-2.442,-2.4229,-2.3948,-2.375,-2.3531,-2.3449,-2.3327,-2.3184,-2.3168,-2.3111,-2.2634,-2.2608,-2.2634,-2.2616,-2.2807,-2.2833,-2.3126,-2.3068,-2.2833,-2.2608,-2.2161,-2.1789,-2.184,-2.1848,-2.1797,-2.1746,-2.1716,-2.1656,-2.1472,-2.1317,-2.1317,-2.1317,-2.1214,-2.1183,-2.1159,-2.099,-2.0778,-2.0511,-2.0301,-1.9974,-1.972,-1.9765,-1.9728,-1.9441,-1.9156,-1.8867,-1.8394,-1.8017,-1.774,-1.7474,-1.7228,-1.7082,-1.7568,-1.8229,-2.4529,-2.451,-2.4509,-2.4582,-2.4689,-2.4832,-2.4971,-2.5094,-2.5223,-2.5264,-2.5264,-2.5253,-2.5253,-2.5274,-2.5274,-2.5293,-2.5303,-2.5303,-2.5303,-2.5303,-2.5303,-2.5322,-2.5341,-2.5375,-2.5427,-2.5508,-2.5561,-2.5615,-2.5781,-2.6654,-2.7853,-2.8816,-2.8574,-2.8268,-2.7647,-2.6786,-2.5937,-2.573,-2.5653,-2.558,-2.5489,-2.5483,-2.5393,-2.5338,-2.5312,-2.5284,-2.5223,-2.5138,-2.5089,-2.4977,-2.4828,-2.4725,-2.4635,-2.4575,-2.4534,-2.4509,-2.4509,-2.45,-2.4473,-2.4465,-2.4438,-2.4393,-2.4048,-2.3728,-2.3616,-2.3616,-2.3558,-2.3499,-2.3392,-2.3415,-2.336,-2.3271,-2.3214,-2.3133,-2.301,-2.3019,-2.2944,-2.2944,-2.2807,-2.266,-2.2483,-2.2161,-2.1878,-2.1857,-2.2007,-2.1848,-2.1759,-2.1691,-2.1631,-2.1556,-2.1402,-2.1332,-2.1301,-2.1309,-2.1277,-2.1254,-2.1087,-2.0852,-2.0605,-2.0355,-2.004,-1.9786,-1.9816,-1.973,-1.9354,-1.9126,-1.9145,-1.8958,-1.8601,-1.8381,-1.8258,-1.8059,-1.7853,-1.8251,-1.8772,-2.5076,-2.5049,-2.4652,-2.4534,-2.4582,-2.4698,-2.4832,-2.4968,-2.5006,-2.5019,-2.5009,-2.5009,-2.5091,-2.5139,-2.516,-2.5213,-2.5264,-2.5303,-2.5303,-2.5293,-2.5264,-2.5293,-2.5303,-2.5312,-2.5364,-2.5442,-2.5504,-2.559,-2.5977,-2.7013,-2.8303,-2.9297,-2.9253,-2.8857,-2.8129,-2.7186,-2.6455,-2.5882,-2.5771,-2.5615,-2.5535,-2.5511,-2.5435,-2.5382,-2.5303,-2.5274,-2.5253,-2.5212,-2.5134,-2.4938,-2.4884,-2.4784,-2.4549,-2.4517,-2.4509,-2.4509,-2.4509,-2.4509,-2.4509,-2.4509,-2.4465,-2.433,-2.4066,-2.3967,-2.3873,-2.3747,-2.3669,-2.3576,-2.3462,-2.3415,-2.3289,-2.3232,-2.3166,-2.3035,-2.2935,-2.2944,-2.2893,-2.2893,-2.2782,-2.2721,-2.2545,-2.2292,-2.1978,-2.2036,-2.2161,-2.1949,-2.1802,-2.1735,-2.1645,-2.157,-2.1495,-2.1394,-2.1363,-2.1371,-2.1309,-2.1277,-2.1119,-2.0934,-2.0661,-2.0393,-2.0119,-1.9946,-1.9942,-1.9795,-1.9545,-1.9603,-1.9739,-1.9435,-1.9019,-1.9139,-1.9051,-1.8837,-1.8711,-1.896,-1.9136,-2.5479,-2.5262,-2.4957,-2.4699,-2.4545,-2.4573,-2.4676,-2.4764,-2.4856,-2.4902,-2.4902,-2.4915,-2.4955,-2.5012,-2.5082,-2.5158,-2.5213,-2.5222,-2.5222,-2.5202,-2.518,-2.5171,-2.5192,-2.5245,-2.533,-2.5395,-2.546,-2.5536,-2.5994,-2.7004,-2.8291,-3.0003,-2.9855,-2.9324,-2.8721,-2.7973,-2.7118,-2.6416,-2.594,-2.5688,-2.5594,-2.556,-2.5485,-2.5439,-2.5341,-2.5293,-2.5282,-2.5262,-2.5113,-2.4951,-2.4929,-2.4764,-2.4566,-2.4551,-2.4509,-2.4509,-2.4509,-2.4509,-2.4509,-2.4509,-2.4393,-2.4247,-2.4125,-2.3928,-2.3792,-2.3651,-2.3611,-2.3539,-2.3407,-2.328,-2.3126,-2.2994,-2.2859,-2.2712,-2.2747,-2.279,-2.2816,-2.2876,-2.2867,-2.2859,-2.266,-2.2402,-2.2292,-2.2347,-2.2265,-2.1998,-2.189,-2.1882,-2.1794,-2.167,-2.1587,-2.1503,-2.1472,-2.1472,-2.1402,-2.1301,-2.1143,-2.0909,-2.0574,-2.0331,-2.0111,-1.9826,-1.9588,-1.9675,-1.9841,-1.9812,-1.9748,-1.9654,-1.939,-1.9464,-1.9398,-1.9156,-1.9001,-1.9162,-1.9287,-2.5878,-2.5454,-2.5377,-2.5056,-2.4569,-2.4559,-2.4531,-2.4472,-2.4676,-2.4837,-2.4847,-2.4851,-2.4847,-2.4879,-2.4962,-2.5043,-2.508,-2.5091,-2.5082,-2.5091,-2.5019,-2.5009,-2.5084,-2.5154,-2.5186,-2.5327,-2.5469,-2.5573,-2.5925,-2.6957,-2.8577,-3.0545,-2.9964,-2.9376,-2.8953,-2.8174,-2.736,-2.6796,-2.6278,-2.595,-2.5819,-2.5707,-2.5591,-2.5584,-2.5469,-2.5348,-2.5274,-2.5192,-2.5084,-2.4997,-2.4874,-2.4704,-2.4622,-2.4584,-2.4517,-2.4509,-2.4509,-2.4509,-2.4509,-2.4509,-2.442,-2.4303,-2.4192,-2.3959,-2.3783,-2.3567,-2.3495,-2.3295,-2.3118,-2.3151,-2.3052,-2.3028,-2.291,-2.2884,-2.2935,-2.2867,-2.2816,-2.2756,-2.2589,-2.2563,-2.2473,-2.2209,-2.2133,-2.2153,-2.2146,-2.1931,-2.189,-2.194,-2.189,-2.173,-2.1678,-2.1603,-2.1573,-2.1534,-2.1472,-2.1371,-2.1166,-2.0909,-2.0587,-2.0172,-1.9955,-1.9581,-1.9146,-1.9332,-1.9589,-1.9552,-1.9487,-1.9398,-1.9347,-1.9303,-1.9243,-1.9302,-1.9288,-1.9229,-1.9347,-2.6627,-2.646,-2.6085,-2.5474,-2.4838,-2.4802,-2.4477,-2.4007,-2.4183,-2.4425,-2.4554,-2.4596,-2.4626,-2.47,-2.4727,-2.4814,-2.491,-2.49,-2.4926,-2.4936,-2.4879,-2.4874,-2.4932,-2.4978,-2.5005,-2.5057,-2.5255,-2.5694,-2.6425,-2.74,-2.8392,-2.9696,-2.9552,-2.9359,-2.8652,-2.7838,-2.7314,-2.6933,-2.685,-2.6627,-2.6604,-2.6033,-2.569,-2.5946,-2.6012,-2.5552,-2.5398,-2.5219,-2.5077,-2.4932,-2.4784,-2.466,-2.4532,-2.4507,-2.45,-2.4509,-2.4509,-2.4509,-2.4509,-2.45,-2.4429,-2.433,-2.421,-2.4018,-2.3804,-2.3518,-2.3265,-2.3042,-2.2935,-2.3003,-2.3003,-2.3003,-2.2944,-2.2994,-2.3019,-2.2884,-2.2782,-2.2616,-2.2364,-2.2281,-2.2217,-2.2161,-2.2084,-2.2017,-2.1939,-2.1888,-2.1849,-2.184,-2.184,-2.1759,-2.1738,-2.1686,-2.1656,-2.1625,-2.1565,-2.1433,-2.1261,-2.1031,-2.0752,-2.0296,-1.9826,-1.9574,-1.9347,-1.9176,-1.9221,-1.9369,-1.9376,-1.916,-1.9116,-1.9094,-1.9019,-1.9003,-1.8896,-1.8843,-1.9071,-2.7102,-2.6845,-2.6327,-2.5868,-2.5425,-2.5064,-2.4648,-2.4293,-2.4065,-2.4048,-2.421,-2.4275,-2.4311,-2.4328,-2.4344,-2.4496,-2.4619,-2.4635,-2.4708,-2.4766,-2.476,-2.4746,-2.4775,-2.4804,-2.4888,-2.4936,-2.5115,-2.5677,-2.6654,-2.761,-2.8436,-2.898,-2.9123,-2.9032,-2.8211,-2.7661,-2.7206,-2.6927,-2.7274,-2.7499,-2.7546,-2.7057,-2.6803,-2.704,-2.6826,-2.6294,-2.5878,-2.5709,-2.5387,-2.5104,-2.4865,-2.4734,-2.4645,-2.4606,-2.4568,-2.4526,-2.4509,-2.4509,-2.4509,-2.4482,-2.4429,-2.4294,-2.4172,-2.3967,-2.3499,-2.3245,-2.3324,-2.3126,-2.3028,-2.307,-2.2807,-2.2747,-2.25,-2.2419,-2.2411,-2.2328,-2.2599,-2.279,-2.2712,-2.2721,-2.2712,-2.279,-2.2712,-2.2607,-2.246,-2.2081,-2.1999,-2.1878,-2.1848,-2.1789,-2.1768,-2.1746,-2.1746,-2.1716,-2.1634,-2.1526,-2.1386,-2.1158,-2.0869,-2.0496,-2.0093,-1.9839,-1.9624,-1.9522,-1.9457,-1.9435,-1.9369,-1.9228,-1.8965,-1.8943,-1.8798,-1.8704,-1.8595,-1.8595,-1.8819,-2.7404,-2.6943,-2.6532,-2.6237,-2.603,-2.5292,-2.4887,-2.4676,-2.4075,-2.3741,-2.3732,-2.3939,-2.391,-2.3883,-2.3926,-2.4072,-2.4218,-2.4316,-2.4465,-2.4536,-2.454,-2.4596,-2.4645,-2.4676,-2.4759,-2.4856,-2.4994,-2.5465,-2.614,-2.7081,-2.7755,-2.8126,-2.8461,-2.8762,-2.8333,-2.7998,-2.7635,-2.774,-2.8032,-2.8414,-2.8427,-2.8306,-2.8136,-2.8081,-2.7989,-2.7514,-2.6892,-2.6376,-2.5926,-2.5411,-2.4952,-2.4832,-2.4764,-2.4719,-2.4654,-2.4599,-2.4558,-2.4541,-2.4507,-2.4509,-2.4348,-2.4182,-2.4075,-2.3813,-2.3362,-2.3262,-2.3365,-2.3265,-2.3168,-2.2952,-2.2686,-2.2527,-2.2281,-2.2118,-2.2081,-2.2133,-2.259,-2.2943,-2.296,-2.3019,-2.3077,-2.3175,-2.3126,-2.3028,-2.2781,-2.24,-2.2162,-2.2032,-2.1907,-2.1848,-2.1789,-2.1768,-2.1768,-2.1746,-2.1664,-2.1595,-2.1448,-2.1087,-2.0795,-2.0556,-2.0353,-2.007,-1.9929,-2.0,-1.9937,-1.9775,-1.961,-1.9472,-1.9206,-1.9011,-1.892,-1.8889,-1.8728,-1.869,-1.8651,-2.7521,-2.7534,-2.7423,-2.7044,-2.6417,-2.565,-2.4987,-2.4375,-2.3865,-2.3449,-2.3424,-2.3526,-2.3664,-2.3804,-2.3828,-2.3883,-2.3925,-2.4032,-2.4127,-2.4211,-2.4375,-2.4481,-2.4541,-2.4566,-2.4631,-2.4713,-2.4795,-2.4982,-2.56,-2.6378,-2.6804,-2.6912,-2.7181,-2.762,-2.8071,-2.7834,-2.7778,-2.8197,-2.8928,-2.9388,-2.9508,-2.9266,-2.8713,-2.857,-2.8432,-2.7663,-2.6975,-2.6592,-2.5976,-2.5413,-2.5018,-2.4932,-2.4861,-2.4828,-2.4749,-2.4638,-2.4599,-2.4575,-2.4534,-2.4509,-2.4358,-2.4303,-2.4201,-2.4028,-2.3714,-2.3562,-2.3544,-2.3327,-2.3151,-2.2816,-2.259,-2.2686,-2.2536,-2.2515,-2.2513,-2.2686,-2.3026,-2.2976,-2.291,-2.2918,-2.2944,-2.2969,-2.2969,-2.2877,-2.2815,-2.2504,-2.2353,-2.22,-2.207,-2.1931,-2.1819,-2.1789,-2.1789,-2.1587,-2.145,-2.1595,-2.1456,-2.1055,-2.0722,-2.0563,-2.0395,-2.025,-2.0181,-2.0285,-2.0216,-2.0085,-1.9917,-1.9818,-1.9631,-1.9442,-1.9288,-1.9191,-1.8988,-1.8867,-1.8867]}]]